[[{"header":{"parameterUnit":"m.s-1","parameterCategory":1,"la1":30.6,"la2":29.2853,"lo1":-89.7004,"lo2":-87.6739,"dx":0.0162,"dy":0.0183,"nx":112,"ny":82,"refTime":"2022-12-08T18:00:00:Z","depth":0,"parameterNumber":2,"parameterNumberName":"U-component_of_WINDS"},"data":[0.0,0.0,0.0,0.0,0.0,0.0,0.0,0.0,0.0,0.0,0.0,0.0,0.0,0.0,0.0,0.0,0.0,0.0,0.0,0.0,0.0,0.0,0.0,0.0,0.0,0.0,0.0,0.0,0.0,0.0,0.0,0.0,0.0,0.0,0.0,0.0,0.0,0.0,0.0,0.0,0.0,0.0,0.0,0.0,0.0,0.0,0.0,0.0,0.0,0.0,0.0,0.0,0.0,0.0,0.0,0.0,0.0,0.0,0.0,0.0,0.0,0.0,0.0,0.0,0.0,0.0,0.0,0.0,0.0,0.0,0.0,0.0,0.0,0.0,0.0,0.0,0.0,0.0,0.0,0.0,0.0,0.0,0.0,0.0,0.0,0.0,0.0,0.0,0.0,0.0,-1.427,-1.6271,-1.9747,-2.219,-2.2813,-2.2609,-2.048,-1.5882,0.0,0.0,0.0,0.0,0.0,0.0,0.0,0.0,0.0,0.0,0.0,0.0,0.0,0.0,0.0,0.0,0.0,0.0,0.0,0.0,0.0,0.0,0.0,0.0,0.0,0.0,0.0,0.0,0.0,0.0,0.0,0.0,0.0,0.0,0.0,0.0,0.0,0.0,0.0,0.0,0.0,0.0,0.0,0.0,0.0,0.0,0.0,0.0,0.0,0.0,0.0,0.0,0.0,0.0,0.0,0.0,0.0,0.0,0.0,0.0,0.0,0.0,0.0,0.0,0.0,0.0,0.0,0.0,0.0,0.0,0.0,0.0,0.0,0.0,0.0,0.0,0.0,0.0,0.0,0.0,0.0,0.0,0.0,0.0,0.0,0.0,0.0,0.0,0.0,0.0,0.0,0.0,0.0,0.0,0.0,0.0,0.0,0.0,0.0,0.0,0.0,0.0,0.0,0.0,-1.4347,-1.91,-2.0543,-2.1228,-2.1336,-2.1274,-1.937,-1.4881,0.0,0.0,0.0,0.0,0.0,0.0,0.0,0.0,0.0,0.0,0.0,0.0,0.0,0.0,0.0,0.0,0.0,0.0,0.0,0.0,0.0,0.0,0.0,0.0,0.0,0.0,0.0,0.0,0.0,0.0,0.0,0.0,0.0,0.0,0.0,0.0,0.0,0.0,0.0,0.0,0.0,0.0,0.0,0.0,0.0,0.0,0.0,0.0,0.0,0.0,0.0,0.0,0.0,0.0,0.0,0.0,0.0,0.0,0.0,0.0,0.0,0.0,0.0,0.0,0.0,0.0,0.0,0.0,0.0,0.0,0.0,0.0,0.0,0.0,0.0,0.0,0.0,0.0,0.0,0.0,0.0,0.0,0.0,0.0,0.0,0.0,0.0,0.0,0.0,0.0,0.0,0.0,0.0,0.0,0.0,0.0,0.0,0.0,0.0,0.0,0.0,0.0,0.0,-1.2526,-1.5271,-1.9489,-2.0333,-2.0715,-2.0959,-2.0991,-1.911,-1.468,-1.3658,0.0,0.0,0.0,0.0,0.0,0.0,0.0,0.0,0.0,0.0,0.0,0.0,0.0,0.0,0.0,0.0,0.0,0.0,0.0,0.0,0.0,0.0,0.0,0.0,0.0,0.0,0.0,0.0,0.0,0.0,0.0,0.0,0.0,0.0,0.0,0.0,0.0,0.0,0.0,0.0,0.0,0.0,0.0,0.0,0.0,0.0,0.0,0.0,0.0,0.0,0.0,0.0,0.0,0.0,0.0,0.0,0.0,0.0,0.0,0.0,0.0,0.0,0.0,0.0,0.0,0.0,0.0,0.0,0.0,0.0,0.0,0.0,0.0,0.0,0.0,0.0,0.0,0.0,0.0,0.0,0.0,0.0,0.0,0.0,0.0,0.0,0.0,0.0,0.0,0.0,0.0,0.0,0.0,0.0,0.0,0.0,0.0,0.0,0.0,0.0,0.0,0.0,-1.467,-1.6414,-1.9161,-1.9778,-2.0177,-2.0665,-2.0698,-1.884,-1.4528,-1.3034,0.0,0.0,0.0,0.0,0.0,0.0,0.0,0.0,0.0,0.0,0.0,0.0,0.0,0.0,0.0,0.0,0.0,0.0,0.0,0.0,0.0,0.0,0.0,0.0,0.0,0.0,0.0,0.0,0.0,0.0,0.0,0.0,0.0,0.0,0.0,0.0,0.0,0.0,0.0,0.0,0.0,0.0,0.0,0.0,0.0,0.0,0.0,0.0,0.0,0.0,0.0,0.0,0.0,0.0,0.0,0.0,0.0,0.0,0.0,0.0,0.0,0.0,0.0,0.0,0.0,0.0,0.0,0.0,0.0,0.0,0.0,0.0,0.0,0.0,0.0,0.0,0.0,0.0,0.0,0.0,0.0,0.0,0.0,0.0,0.0,0.0,0.0,0.0,0.0,0.0,0.0,0.0,0.0,0.0,0.0,0.0,0.0,0.0,0.0,0.0,0.0,0.0,-1.5212,-1.7597,-1.8826,-1.8991,-1.9192,-1.9747,-1.9782,-1.8097,-1.41,-1.2545,0.0,0.0,0.0,0.0,0.0,0.0,0.0,0.0,0.0,0.0,0.0,0.0,0.0,0.0,0.0,0.0,0.0,0.0,0.0,0.0,0.0,0.0,0.0,0.0,0.0,0.0,0.0,0.0,0.0,0.0,0.0,0.0,0.0,0.0,0.0,0.0,0.0,0.0,0.0,0.0,0.0,0.0,0.0,0.0,0.0,0.0,0.0,0.0,0.0,0.0,0.0,0.0,0.0,0.0,0.0,0.0,0.0,0.0,0.0,0.0,0.0,0.0,0.0,0.0,0.0,0.0,0.0,0.0,0.0,0.0,0.0,0.0,0.0,0.0,0.0,0.0,0.0,0.0,0.0,0.0,0.0,0.0,0.0,0.0,0.0,0.0,0.0,0.0,0.0,0.0,0.0,0.0,0.0,0.0,0.0,0.0,0.0,0.0,0.0,0.0,0.0,0.0,-1.4156,-1.6302,-1.7745,-1.8496,-1.8968,-1.9169,-1.953,-1.7966,-1.3867,0.0,0.0,0.0,0.0,0.0,0.0,0.0,0.0,0.0,0.0,0.0,0.0,0.0,0.0,0.0,0.0,0.0,0.0,0.0,0.0,0.0,0.0,0.0,0.0,0.0,0.0,0.0,0.0,0.0,0.0,0.0,0.0,0.0,0.0,0.0,0.0,0.0,0.0,0.0,0.0,0.0,0.0,0.0,0.0,0.0,0.0,0.0,0.0,0.0,0.0,0.0,0.0,0.0,0.0,0.0,0.0,0.0,0.0,0.0,0.0,0.0,0.0,0.0,0.0,0.0,0.0,0.0,0.0,0.0,0.0,0.0,0.0,0.0,0.0,0.0,0.0,0.0,0.0,0.0,0.0,0.0,0.0,0.0,0.0,0.0,0.0,0.0,0.0,0.0,0.0,0.0,0.0,0.0,0.0,0.0,0.0,0.0,0.0,0.0,0.0,0.0,0.0,-1.1299,-1.3783,-1.5853,-1.7139,-1.7947,-1.8458,-1.8612,-1.8968,-1.7413,-1.3257,0.0,0.0,0.0,0.0,0.0,0.0,0.0,0.0,0.0,0.0,0.0,0.0,0.0,0.0,0.0,0.0,0.0,0.0,0.0,0.0,0.0,0.0,0.0,0.0,0.0,0.0,0.0,0.0,0.0,0.0,0.0,0.0,0.0,0.0,0.0,0.0,0.0,0.0,0.0,0.0,0.0,0.0,0.0,0.0,0.0,0.0,0.0,0.0,0.0,0.0,0.0,0.0,0.0,0.0,0.0,0.0,0.0,0.0,0.0,0.0,0.0,0.0,0.0,0.0,0.0,0.0,0.0,0.0,0.0,0.0,0.0,0.0,0.0,0.0,0.0,0.0,0.0,0.0,0.0,0.0,0.0,0.0,0.0,0.0,0.0,0.0,0.0,0.0,0.0,0.0,0.0,0.0,0.0,0.0,0.0,0.0,0.0,0.0,0.0,0.0,0.0,0.0,-1.1437,-1.4475,-1.671,-1.7229,-1.7312,-1.7504,-1.8066,-1.8106,-1.6332,0.0,0.0,0.0,0.0,0.0,0.0,0.0,0.0,0.0,0.0,0.0,0.0,0.0,0.0,0.0,0.0,0.0,0.0,0.0,0.0,0.0,0.0,0.0,0.0,0.0,0.0,0.0,0.0,0.0,0.0,0.0,0.0,0.0,0.0,0.0,0.0,0.0,0.0,0.0,0.0,0.0,0.0,0.0,0.0,0.0,0.0,0.0,0.0,0.0,0.0,0.0,0.0,0.0,0.0,0.0,0.0,0.0,0.0,0.0,0.0,0.0,0.0,0.0,0.0,0.0,0.0,0.0,0.0,0.0,0.0,0.0,0.0,0.0,0.0,0.0,0.0,0.0,0.0,0.0,0.0,0.0,0.0,0.0,0.0,0.0,0.0,0.0,0.0,0.0,0.0,0.0,0.0,0.0,0.0,0.0,0.0,0.0,0.0,0.0,0.0,0.0,0.0,0.0,-1.1197,-1.435,-1.6552,-1.671,-1.7076,-1.7353,-1.7504,-1.7867,-1.6261,-1.1897,0.0,0.0,0.0,0.0,0.0,0.0,0.0,0.0,0.0,0.0,0.0,0.0,0.0,0.0,0.0,0.0,0.0,0.0,0.0,0.0,0.0,0.0,0.0,0.0,0.0,0.0,0.0,0.0,0.0,0.0,0.0,0.0,0.0,0.0,0.0,0.0,0.0,0.0,0.0,0.0,0.0,0.0,0.0,0.0,0.0,0.0,0.0,0.0,0.0,0.0,0.0,0.0,0.0,0.0,0.0,0.0,0.0,0.0,0.0,0.0,0.0,0.0,0.0,0.0,0.0,0.0,0.0,0.0,0.0,0.0,0.0,0.0,0.0,0.0,0.0,0.0,0.0,0.0,0.0,0.0,0.0,0.0,0.0,0.0,0.0,0.0,0.0,0.0,0.0,0.0,0.0,0.0,0.0,0.0,0.0,0.0,0.0,0.0,0.0,0.0,0.0,0.0,-1.1082,-1.4312,-1.6522,-1.6522,-1.6795,-1.6993,-1.6993,-1.7271,-1.5949,-1.2419,0.0,0.0,0.0,0.0,0.0,0.0,0.0,0.0,0.0,0.0,0.0,0.0,0.0,0.0,0.0,0.0,0.0,0.0,0.0,0.0,0.0,0.0,0.0,0.0,0.0,0.0,0.0,0.0,0.0,0.0,0.0,0.0,0.0,0.0,0.0,0.0,0.0,0.0,0.0,0.0,0.0,0.0,0.0,0.0,0.0,0.0,0.0,0.0,0.0,0.0,0.0,0.0,0.0,0.0,0.0,0.0,0.0,0.0,0.0,0.0,0.0,0.0,0.0,0.0,0.0,0.0,0.0,0.0,0.0,0.0,0.0,0.0,0.0,0.0,0.0,0.0,0.0,0.0,0.0,0.0,0.0,0.0,0.0,0.0,0.0,0.0,0.0,0.0,0.0,0.0,0.0,0.0,0.0,0.0,0.0,0.0,0.0,0.0,0.0,0.0,0.0,0.0,-1.1028,-1.4299,-1.6522,-1.6522,-1.6522,-1.6522,-1.6522,-1.6522,-1.558,-1.3336,0.0,0.0,0.0,0.0,0.0,0.0,0.0,0.0,0.0,0.0,0.0,0.0,0.0,0.0,0.0,0.0,0.0,0.0,0.0,0.0,0.0,0.0,0.0,0.0,0.0,0.0,0.0,0.0,0.0,0.0,0.0,0.0,0.0,0.0,0.0,0.0,0.0,0.0,0.0,0.0,0.0,0.0,0.0,0.0,0.0,0.0,0.0,0.0,0.0,0.0,0.0,0.0,0.0,0.0,0.0,0.0,0.0,0.0,0.0,0.0,-1.2787,-1.1011,0.0,0.0,0.0,0.0,0.0,0.0,0.0,0.0,0.0,0.0,0.0,0.0,0.0,0.0,0.0,0.0,0.0,0.0,0.0,0.0,0.0,0.0,0.0,0.0,0.0,0.0,0.0,0.0,0.0,0.0,0.0,0.0,0.0,0.0,0.0,0.0,0.0,0.0,0.0,0.0,-1.0772,-1.4173,-1.6522,-1.6522,-1.6522,-1.6522,-1.6522,-1.6522,-1.558,-1.3336,-1.2319,0.0,0.0,0.0,0.0,0.0,0.0,0.0,0.0,0.0,0.0,0.0,0.0,0.0,0.0,0.0,0.0,0.0,0.0,0.0,0.0,0.0,0.0,0.0,0.0,0.0,0.0,0.0,0.0,0.0,0.0,0.0,0.0,0.0,0.0,0.0,0.0,0.0,0.0,0.0,0.0,0.0,0.0,0.0,0.0,0.0,0.0,0.0,0.0,0.0,0.0,0.0,0.0,0.0,0.0,0.0,0.0,0.0,0.0,0.0,-1.4699,-1.3582,0.0,0.0,0.0,0.0,0.0,0.0,0.0,0.0,0.0,0.0,0.0,0.0,0.0,0.0,0.0,0.0,0.0,0.0,0.0,0.0,0.0,0.0,0.0,0.0,0.0,0.0,0.0,0.0,0.0,0.0,0.0,0.0,0.0,0.0,0.0,0.0,0.0,0.0,0.0,0.0,-1.0264,-1.3688,-1.6051,-1.6051,-1.6337,-1.6522,-1.6522,-1.6522,-1.6032,-1.4851,-1.3228,0.0,0.0,0.0,0.0,0.0,0.0,0.0,0.0,0.0,0.0,0.0,0.0,0.0,0.0,0.0,0.0,0.0,0.0,0.0,0.0,0.0,0.0,0.0,0.0,0.0,0.0,0.0,0.0,0.0,0.0,0.0,0.0,0.0,0.0,0.0,0.0,0.0,0.0,0.0,0.0,0.0,0.0,0.0,0.0,0.0,0.0,0.0,0.0,0.0,0.0,0.0,0.0,0.0,-1.6289,-1.6762,-1.6762,-1.6762,-1.776,-1.935,-1.6931,-1.6657,-1.776,-1.4716,0.0,0.0,0.0,0.0,0.0,0.0,0.0,0.0,0.0,0.0,0.0,0.0,0.0,0.0,0.0,0.0,0.0,0.0,0.0,0.0,0.0,0.0,-1.176,-1.2523,-1.3557,-1.3911,-1.2245,0.0,0.0,0.0,0.0,0.0,0.0,0.0,0.0,0.0,0.0,0.0,-1.009,-1.3288,-1.5454,-1.5454,-1.5876,-1.6238,-1.6324,-1.6324,-1.6324,-1.6324,-1.4062,-1.2531,0.0,0.0,0.0,0.0,0.0,0.0,0.0,0.0,0.0,0.0,0.0,0.0,0.0,0.0,0.0,0.0,0.0,0.0,0.0,0.0,0.0,0.0,0.0,0.0,0.0,0.0,0.0,0.0,0.0,0.0,0.0,0.0,-1.5792,-1.5638,0.0,0.0,0.0,0.0,0.0,0.0,0.0,0.0,0.0,0.0,0.0,0.0,0.0,-1.5289,-1.5482,-1.7478,-1.842,-1.8335,-2.0433,-2.1431,-2.1431,-2.1431,-2.1583,-2.1837,-2.1448,0.0,-1.8724,-1.8234,0.0,0.0,0.0,0.0,0.0,0.0,0.0,0.0,0.0,0.0,0.0,0.0,0.0,0.0,0.0,0.0,0.0,0.0,0.0,0.0,0.0,0.0,-1.5208,-1.5759,-1.6011,-1.5965,-1.5175,-1.226,-0.9579,-0.8847,-0.8251,-0.74,0.0,0.0,0.0,0.0,0.0,0.0,-1.1308,-1.3442,-1.4835,-1.4835,-1.488,-1.5152,-1.5676,-1.572,-1.572,-1.572,-1.4898,-1.3649,-1.1998,-1.0743,0.0,0.0,0.0,0.0,0.0,0.0,0.0,0.0,0.0,0.0,0.0,0.0,0.0,0.0,0.0,0.0,0.0,0.0,0.0,0.0,0.0,0.0,0.0,0.0,0.0,0.0,0.0,0.0,0.0,-1.4607,-1.5701,-1.5508,-1.5301,-1.4145,0.0,0.0,0.0,0.0,0.0,0.0,0.0,0.0,0.0,-1.748,-1.7548,-1.8133,-1.935,-2.0331,-2.0805,-2.0822,-2.1837,-2.231,-2.231,-2.231,-2.231,-2.231,-2.231,-2.1735,-2.072,-1.9435,-1.7384,-1.4932,0.0,0.0,0.0,0.0,-1.164,-1.1925,-1.3874,-1.4546,-1.446,-1.3809,0.0,0.0,0.0,0.0,0.0,0.0,0.0,-1.0941,-1.3153,-1.4261,-1.5104,-1.6233,-1.6522,-1.6324,-1.572,-1.4011,-1.2129,-1.0632,-0.968,-0.8364,-0.601,-0.6189,0.0,0.0,0.0,-0.9991,-1.1145,-1.2996,-1.419,-1.419,-1.4514,-1.4789,-1.505,-1.5096,-1.5096,-1.5096,-1.4514,-1.3828,-1.2985,-1.1257,-0.9695,0.0,0.0,0.0,0.0,0.0,0.0,0.0,0.0,0.0,0.0,0.0,0.0,0.0,0.0,0.0,0.0,0.0,0.0,0.0,0.0,0.0,0.0,0.0,0.0,0.0,0.0,0.0,0.0,-1.5892,-1.6284,-1.5919,-1.6818,-1.5884,0.0,0.0,0.0,0.0,0.0,0.0,-1.7135,-1.6879,-1.7654,-1.9705,-1.9773,-2.0585,-2.2293,-2.231,-2.231,-2.231,-2.231,-2.231,-2.231,-2.231,-2.231,-2.231,-2.231,-2.231,-2.2175,-2.0467,-1.9169,-1.8055,-1.6249,-1.4924,-1.4071,-1.4416,-1.4531,-1.4815,-1.6786,-1.7458,-1.7319,-1.6483,-1.5768,-1.4762,-1.2163,0.0,0.0,0.0,0.0,-1.2052,-1.4173,-1.4714,-1.5029,-1.622,-1.638,-1.6095,-1.5499,-1.4721,-1.3696,-1.2297,-1.1291,-0.9812,-0.7186,-0.7655,0.0,-0.7217,-0.8916,-1.0557,-1.1318,-1.266,-1.3552,-1.3552,-1.3967,-1.4294,-1.4468,-1.4468,-1.4468,-1.4468,-1.405,-1.3732,-1.36,-1.1884,-1.0651,-1.0049,0.0,0.0,0.0,0.0,0.0,0.0,0.0,0.0,0.0,0.0,0.0,0.0,0.0,0.0,0.0,0.0,0.0,0.0,0.0,0.0,0.0,0.0,0.0,0.0,0.0,0.0,0.0,0.0,0.0,-1.8347,-1.9612,0.0,0.0,0.0,0.0,-1.6725,-1.6688,-1.7493,-1.9333,-1.9293,-2.0119,-2.2073,-2.2141,-2.2192,-2.231,-2.231,-2.231,-2.231,-2.231,-2.231,-2.231,-2.231,-2.231,-2.231,-2.231,-2.231,-2.2293,-2.2192,-2.05,-1.7995,-1.7882,-1.6192,-1.4034,-1.5875,-1.6562,-1.6846,-1.8852,-1.954,-1.9525,-1.9495,-1.7856,-1.5773,-1.485,-1.3271,0.0,0.0,-1.3921,-1.4311,-1.5957,-1.6396,-1.6409,-1.6497,-1.6051,-1.5499,-1.488,-1.3619,-1.2828,-1.3521,-1.3162,-1.2292,-1.0859,0.0,-1.0273,-1.0596,-1.0439,-1.0889,-1.2568,-1.289,-1.2978,-1.2978,-1.2978,-1.3238,-1.3779,-1.3862,-1.3862,-1.3862,-1.3815,-1.3552,-1.2978,-1.2841,-1.1691,-0.9386,-0.9239,0.0,0.0,0.0,0.0,0.0,0.0,0.0,0.0,0.0,0.0,0.0,0.0,0.0,0.0,0.0,0.0,0.0,0.0,0.0,0.0,0.0,0.0,0.0,0.0,0.0,0.0,0.0,0.0,-1.9287,-2.0661,0.0,-1.7211,-1.8849,-1.9877,-1.9271,-2.0444,-2.1508,-2.221,-2.199,-2.2059,-2.2529,-2.2563,-2.249,-2.231,-2.231,-2.231,-2.231,-2.231,-2.231,-2.231,-2.231,-2.231,-2.231,-2.231,-2.231,-2.231,-2.231,-2.1506,-2.0299,-2.0035,-1.9136,-1.8037,-1.8459,-1.8627,-1.8732,-1.9435,-1.969,-1.9639,-1.9281,-1.8134,-1.6799,-1.6505,-1.566,-1.4954,-1.552,-1.563,-1.5781,-1.6358,-1.6522,-1.6522,-1.6522,-1.6337,-1.6008,-1.541,-1.4552,-1.388,-1.3799,-1.2858,-1.1753,-1.0684,-1.1309,-1.1631,-1.0654,-1.1338,-1.2178,-1.2803,-1.2881,-1.2881,-1.2881,-1.2881,-1.2968,-1.319,-1.3238,-1.3238,-1.3238,-1.3238,-1.3104,-1.2929,-1.2881,-1.2282,-1.0947,-1.0012,-0.8505,0.0,0.0,0.0,0.0,0.0,0.0,0.0,0.0,0.0,0.0,0.0,0.0,0.0,0.0,0.0,0.0,0.0,0.0,0.0,0.0,0.0,0.0,0.0,0.0,0.0,-1.9382,-2.0555,-1.9606,-2.15,-2.1618,-1.8423,-2.0876,-2.2422,-2.1804,-2.3065,-2.3816,-2.3714,-2.35,-2.323,-2.2873,-2.2772,-2.2608,-2.2453,-2.2349,-2.231,-2.231,-2.231,-2.231,-2.231,-2.231,-2.231,-2.231,-2.231,-2.231,-2.231,-2.231,-2.2032,-2.1552,-2.115,-2.0715,-2.0246,-1.9839,-1.969,-1.969,-1.969,-1.969,-1.9603,-1.908,-1.8302,-1.7544,-1.7353,-1.6909,-1.6522,-1.6522,-1.6522,-1.6522,-1.6522,-1.6522,-1.6522,-1.6522,-1.6324,-1.6008,-1.541,-1.4824,-1.4247,-1.36,-1.2709,-1.1871,-1.126,-1.2119,-1.2441,-1.1143,-1.2051,-1.2832,-1.2676,-1.2793,-1.2881,-1.2881,-1.2881,-1.2881,-1.2881,-1.2471,-1.2402,-1.2852,-1.2461,-1.2422,-1.2861,-1.2404,-1.1771,-1.1031,-0.9657,-0.8034,-0.6123,0.0,0.0,0.0,0.0,0.0,0.0,0.0,0.0,0.0,0.0,0.0,0.0,0.0,0.0,0.0,0.0,0.0,0.0,0.0,0.0,0.0,0.0,0.0,-1.9685,-2.0285,-2.0462,-1.9577,-2.228,-2.3254,-2.0868,-2.2795,-2.419,-2.419,-2.419,-2.4074,-2.3735,-2.3714,-2.3566,-2.323,-2.2898,-2.2721,-2.2695,-2.2436,-2.231,-2.231,-2.231,-2.231,-2.231,-2.231,-2.231,-2.231,-2.231,-2.231,-2.231,-2.231,-2.2032,-2.1582,-2.115,-2.0715,-2.0246,-1.9839,-1.969,-1.969,-1.969,-1.969,-1.9603,-1.9095,-1.8574,-1.8027,-1.7504,-1.6951,-1.6522,-1.6522,-1.6522,-1.6522,-1.6522,-1.6522,-1.6522,-1.6522,-1.6051,-1.5454,-1.488,-1.4236,-1.3637,-1.3065,-1.2929,-1.2881,-1.2881,-1.2881,-1.2744,-1.2314,-1.2607,0.0,-1.2258,-1.2617,-1.2871,-1.2842,-1.2842,-1.2842,-1.2842,-1.166,-1.1494,-1.2803,-1.168,-1.1543,-1.2832,-1.1376,-1.0194,-0.9469,-0.8165,-0.7042,-0.6194,0.0,0.0,0.0,0.0,0.0,0.0,0.0,0.0,0.0,0.0,0.0,0.0,0.0,0.0,0.0,0.0,0.0,0.0,0.0,0.0,0.0,-1.9428,-2.0902,-2.0624,-2.2115,-2.3197,-2.3091,-2.3731,-2.3989,-2.3446,-2.3897,-2.419,-2.419,-2.419,-2.417,-2.4074,-2.4074,-2.3917,-2.3566,-2.3459,-2.3189,-2.2695,-2.2634,-2.25,-2.231,-2.231,-2.231,-2.231,-2.231,-2.231,-2.231,-2.231,-2.231,-2.231,-2.231,-2.2209,-2.2032,-2.1291,-2.0715,-2.0246,-1.9839,-1.969,-1.969,-1.969,-1.969,-1.969,-1.953,-1.9132,-1.8574,-1.8027,-1.7504,-1.6993,-1.6595,-1.6522,-1.6522,-1.6522,-1.6522,-1.6522,-1.6522,-1.638,-1.6095,-1.5499,-1.4869,-1.4283,-1.3695,-1.32,-1.2881,-1.2881,-1.2881,-1.2842,-1.2725,-1.2803,-1.2842,-1.2715,-1.2803,-1.2684,-1.2037,-1.1969,-1.1969,-1.1969,-1.1636,-1.1807,-1.2822,-1.2539,-1.25,-1.2861,-1.1958,-1.064,-0.8969,-0.7659,-0.663,0.0,0.0,0.0,0.0,0.0,0.0,0.0,0.0,0.0,0.0,0.0,0.0,0.0,0.0,0.0,0.0,0.0,0.0,0.0,0.0,0.0,0.0,-2.1464,-2.2666,-2.2666,-2.369,-2.4495,-2.4607,-2.4444,-2.4375,-2.4495,-2.4617,-2.4685,-2.4685,-2.5016,-2.5217,-2.5217,-2.5217,-2.4974,-2.4426,-2.461,-2.4277,-2.3387,-2.3571,-2.3381,-2.2767,-2.2767,-2.2598,-2.231,-2.231,-2.231,-2.231,-2.231,-2.231,-2.231,-2.231,-2.218,-2.1974,0.0,0.0,0.0,0.0,-1.969,-1.969,-1.969,-1.969,-1.969,-1.969,-1.9332,-1.8817,-1.8263,-1.7747,-1.7188,-1.6637,-1.6522,-1.6522,-1.6522,-1.6522,-1.6522,-1.6522,-1.6522,-1.6281,-1.541,-1.4971,-1.4433,-1.36,-1.3152,0.0,-1.2881,-1.2881,-1.2822,-1.2637,-1.2764,-1.2812,-1.2627,-1.2773,-1.2686,-1.2214,-1.2155,-1.2155,-1.2155,-1.1655,0.0,0.0,0.0,-1.1491,-1.1064,-1.0672,0.0,0.0,0.0,-0.6899,-0.6535,-0.5782,0.0,0.0,-0.4829,-0.409,0.0,0.0,0.0,0.0,0.0,0.0,0.0,0.0,0.0,0.0,0.0,0.0,0.0,0.0,0.0,0.0,-2.3522,-2.501,-2.5034,-2.493,-2.4861,-2.4832,-2.4698,-2.4642,-2.4659,-2.519,-2.555,-2.555,-2.619,-2.6612,-2.6612,-2.6612,0.0,0.0,0.0,-2.5596,-2.4448,-2.4917,-2.4591,-2.3511,-2.3427,-2.3054,-2.2429,-2.2344,-2.231,-2.231,-2.231,-2.231,-2.231,-2.231,-2.2032,-2.1658,-2.1521,-2.1244,-2.0829,-2.0015,-1.969,-1.969,-1.969,0.0,0.0,-1.969,-1.9369,-1.8893,-1.8341,-1.7827,-1.7271,-1.6752,-1.6552,-1.6522,-1.6522,-1.6522,-1.6466,-1.6423,-1.638,-1.6064,-1.488,-1.4606,-1.4247,-1.3113,-1.2881,-1.2881,-1.2881,-1.2881,-1.2754,-1.2363,-1.2627,-1.2744,-1.2353,-1.2646,-1.2842,-1.2744,-1.2734,0.0,-1.2734,-1.166,-1.1523,-1.2803,-1.113,-0.9691,-0.8692,-0.8655,-0.8011,-0.6678,-0.7334,-0.7714,-0.783,-0.7723,-0.7723,-0.7623,-0.5351,-0.4826,0.0,0.0,0.0,0.0,0.0,0.0,0.0,0.0,0.0,0.0,0.0,0.0,0.0,0.0,0.0,-2.2352,-2.3934,-2.5065,-2.5214,-2.5233,-2.513,-2.4974,-2.5264,-2.5534,-2.5697,-2.6116,-2.6374,-2.6374,-2.6521,-2.6612,-2.6612,-2.6612,-2.6539,-2.6374,-2.6478,-2.6118,-2.5295,-2.5359,-2.5025,-2.4286,-2.368,0.0,-2.3173,-2.2581,-2.231,-2.231,-2.231,-2.231,-2.231,-2.231,-2.2254,-2.2077,-2.0975,-2.0501,-2.0382,-1.9874,-1.969,-1.969,-1.969,-1.969,-1.969,-1.969,-1.9639,-1.9442,-1.8893,-1.838,0.0,-1.7312,-1.6837,-1.6522,-1.6522,-1.6522,-1.638,-1.5908,-1.5764,-1.5454,-1.4236,-1.3956,-1.3779,-1.3065,-1.2881,-1.2881,-1.2881,-1.2881,-1.2852,-1.2773,-1.2832,-1.2852,-1.2773,-1.2832,-1.2655,-1.1939,-1.1861,-1.1861,-1.1861,-1.1626,-1.19,-1.2822,-1.1965,-1.0842,-0.958,-0.953,-0.9184,-0.8339,-0.8493,-0.8579,-0.8593,-0.7996,-0.7723,-0.7658,-0.6595,-0.6223,0.0,0.0,0.0,0.0,0.0,0.0,0.0,0.0,0.0,0.0,0.0,-1.8602,-2.0459,0.0,-2.2441,-2.3842,-2.4676,-2.5192,-2.5293,-2.5668,-2.5847,-2.5628,-2.5752,-2.6043,-2.655,-2.6971,-2.7245,-2.7335,-2.7635,-2.7805,-2.7805,-2.7805,-2.7622,-2.7218,-2.7603,-2.7253,-2.61,-2.6517,-2.6155,-2.505,-2.4678,-2.4103,-2.3376,-2.3021,-2.2649,-2.231,-2.231,-2.231,-2.231,-2.231,-2.231,-2.2209,-2.1306,-2.0846,-2.055,-1.9945,-1.969,-1.969,-1.969,-1.969,-1.969,-1.969,-1.969,-1.9603,-1.9043,-1.8535,-1.7987,-1.7463,-1.6909,-1.6522,-1.6522,-1.6522,-1.6337,-1.572,-1.5588,-1.5264,-1.4039,-1.3815,-1.3637,-1.3017,-1.2881,-1.2881,-1.2881,-1.2881,-1.2881,-1.2881,-1.2881,-1.2881,-1.2881,-1.2881,-1.2705,-1.2312,-1.2263,-1.2263,-1.2263,-1.2263,-1.2299,-1.2365,-1.1972,-1.1366,-1.0364,-0.9961,-0.9666,-0.9316,-0.8956,-0.8956,-0.9309,-0.858,-0.862,-0.9221,-0.8541,-0.7806,0.0,0.0,0.0,0.0,0.0,0.0,0.0,-1.6862,-1.7446,-1.9356,-1.9863,-2.0584,-2.2727,-2.3208,-2.3735,-2.5072,-2.5437,-2.5553,-2.5553,-2.6294,-2.6795,-2.6648,-2.6529,-2.6704,-2.7328,-2.7786,-2.8117,-2.8272,-2.8728,-2.8994,-2.8994,-2.8994,-2.8705,-2.8044,-2.8668,-2.8318,-2.6967,-2.7596,-2.7203,-2.5812,-2.5676,-2.4983,-2.3816,-2.368,-2.3207,-2.2513,-2.2361,-2.231,-2.231,-2.231,-2.231,-2.2237,-2.1794,-2.1399,-2.1023,-2.0243,-1.9945,-1.9945,-1.9839,-1.9818,-1.9803,-1.9726,-1.969,-1.9603,-1.9207,-1.8612,-1.8027,-1.7585,-1.6993,-1.6522,-1.6522,-1.6423,-1.6194,-1.5555,-1.541,-1.5141,-1.405,-1.3815,-1.3684,-1.3334,-1.3152,-1.3104,-1.3248,-1.3152,-1.3065,-1.2929,-1.2881,-1.2881,-1.2881,-1.2881,-1.2881,-1.2881,-1.2881,-1.2881,-1.2881,-1.2881,-1.2618,-1.1873,-1.1814,-1.1516,-1.0813,-1.0261,-1.0012,-1.0012,-0.9465,-0.9465,-1.0012,-0.9458,-0.9762,-1.0762,-1.0269,-0.934,-2.129,-1.9547,-1.7889,-1.8226,-1.7785,-1.8392,0.0,-2.2015,-2.1149,-2.3738,-2.4281,-2.4435,-2.4908,-2.5014,-2.5072,-2.5264,-2.5947,-2.6447,-2.6447,-2.7198,-2.7853,-2.8118,-2.8131,-2.8103,-2.7997,-2.851,-2.887,-2.8915,-2.8962,-2.8994,-2.8994,-2.8994,-2.8957,-2.8865,-2.8938,-2.8615,-2.7773,-2.7862,-2.7465,-2.6573,-2.5913,-2.5524,-2.5338,-2.4661,-2.3951,-2.3241,-2.2598,-2.231,-2.231,-2.231,-2.231,-2.2237,-2.1794,-2.1582,-2.1491,-2.1023,-2.0862,-2.0797,-2.0382,-2.0212,-2.0193,-1.9818,-1.969,-1.969,-1.9639,-1.8893,-1.8106,-1.8027,-1.7271,-1.6522,-1.6522,-1.6095,-1.5543,-1.4926,-1.4789,-1.4606,-1.3956,-1.3815,-1.3956,-1.4422,-1.4061,-1.3873,-1.4433,-1.405,-1.3505,-1.2968,-1.2881,-1.2881,-1.2881,-1.2881,-1.2881,-1.2881,-1.2881,-1.2881,-1.2881,-1.2881,-1.2569,-1.185,-1.1774,-1.1516,-1.0813,-1.072,-1.0669,-1.0669,-1.061,-1.061,-1.0669,-1.061,-1.0661,-1.0813,-1.0712,-1.0261,-2.3845,-2.2738,-2.1405,-2.1156,-2.112,-2.1494,-2.2973,-2.2857,-2.2922,-2.4561,-2.4937,-2.5057,-2.5264,-2.5303,-2.5303,-2.5303,-2.6043,-2.6601,-2.6601,-2.7755,-2.8542,-2.8426,-2.8848,-2.908,-2.8872,-2.8935,-2.9067,-2.9225,-2.9089,-2.8994,-2.8994,-2.8994,-2.8994,-2.8994,-2.8994,-2.8651,-2.7897,-2.7897,-2.7517,-2.6691,-2.6387,-2.6031,-2.5592,-2.5287,-2.4492,-2.3376,-2.3071,-2.2699,-2.231,-2.231,-2.231,-2.2282,-2.2077,-2.2003,-2.1945,-2.126,-2.0991,-2.0926,-2.0449,-2.0314,-2.0212,-1.9839,-1.969,-1.969,-1.969,-1.8968,-1.8106,-1.8106,-1.7353,-1.6522,-1.6522,-1.6324,-1.5964,-1.5365,-1.5231,-1.505,-1.4468,-1.4329,-1.4376,-1.4652,-1.4525,-1.4376,-1.4663,-1.4468,-1.4247,-1.3978,-1.3344,-1.2881,-1.2881,-1.2881,-1.3017,-1.3372,-1.3742,-1.3931,-1.3931,-1.3931,-1.3684,-1.3006,-1.2948,-1.2657,-1.2049,-1.1625,-1.1366,-1.1366,-1.1015,-1.1015,-1.1366,-1.1015,-1.1225,-1.1999,-1.1575,-1.1216,-2.4486,-2.4276,-2.3889,-2.294,-2.3426,-2.3926,-2.3105,-2.3421,-2.4093,-2.4723,-2.4981,-2.5141,-2.5274,-2.5303,-2.538,-2.561,-2.639,-2.7044,-2.7255,-2.8544,-2.9289,-2.8804,-2.9319,-2.9588,-2.933,-2.9112,-2.9067,-2.9267,-2.9112,-2.8994,-2.8994,-2.8994,-2.8994,-2.8994,-2.8994,-2.8651,-2.7897,-2.7897,-2.7517,-2.6691,-2.6691,-2.642,-2.5896,-2.5693,-2.5033,-2.4002,-2.3782,-2.3274,-2.2615,-2.2615,-2.2496,-2.231,-2.231,-2.231,-2.2209,-2.1584,-2.1354,-2.1291,-2.0682,-2.0483,-2.0431,-1.9874,-1.969,-1.969,-1.969,-1.8968,-1.8106,-1.8106,-1.7353,-1.6522,-1.6522,-1.638,-1.6139,-1.572,-1.5588,-1.5499,-1.505,-1.505,-1.5231,-1.5398,-1.5386,-1.5463,-1.5596,-1.5508,-1.533,-1.5174,-1.4272,-1.3542,-1.343,-1.3382,-1.3563,-1.4003,-1.4422,-1.4698,-1.4698,-1.4698,-1.4514,-1.4097,-1.405,-1.3789,-1.3152,-1.2618,-1.2258,-1.2129,-1.1633,-1.1633,-1.208,-1.1633,-1.19,-1.2881,-1.2344,-1.208,-2.2394,-2.289,-2.3842,-2.277,-2.3759,-2.4924,-2.4771,-2.4847,-2.496,-2.4979,-2.5152,-2.5284,-2.5303,-2.5303,-2.5572,-2.6428,-2.7294,-2.8121,-2.8909,-2.9794,-3.019,-2.9727,-2.9677,-2.9514,-2.9067,-2.9017,-2.9017,-2.9017,-2.9017,-2.8994,-2.8994,-2.8994,-2.8994,-2.8994,-2.8994,-2.8651,-2.7897,-2.7897,-2.7517,-2.6691,-2.6691,-2.6674,-2.664,-2.593,-2.5592,-2.5507,-2.4763,-2.4066,-2.3359,-2.3359,-2.2953,-2.231,-2.231,-2.231,-2.231,-2.2282,-2.2254,-2.2152,-2.126,-2.0959,-2.0829,-1.998,-1.969,-1.969,-1.969,-1.8968,-1.8106,-1.8106,-1.7353,-1.6522,-1.6522,-1.6051,-1.5632,-1.5588,-1.5588,-1.5576,-1.5588,-1.5959,-1.6519,-1.7092,-1.7177,-1.7301,-1.7894,-1.7531,-1.6931,-1.6421,-1.5835,-1.5217,-1.4687,-1.4663,-1.4652,-1.4652,-1.4709,-1.4698,-1.4698,-1.4698,-1.4709,-1.4652,-1.4652,-1.4376,-1.3815,-1.3768,-1.3457,-1.2881,-1.2832,-1.2832,-1.2881,-1.2832,-1.2881,-1.2881,-1.2881,-1.2881,-2.4761,-2.4941,-2.4957,-2.5175,-2.5644,-2.586,-2.5114,-2.5065,-2.5163,-2.5022,-2.5163,-2.5303,-2.5303,-2.5303,-2.5591,-2.6467,-2.7332,-2.8179,-2.8986,-2.9852,-3.0228,-2.9765,-2.9696,-2.9514,-2.9044,-2.8994,-2.8994,-2.8994,-2.8994,-2.8994,-2.8994,-2.8994,-2.8994,-2.8994,-2.8994,-2.8651,-2.7897,-2.7897,-2.7517,-2.6691,-2.6691,-2.6691,-2.6691,-2.6437,-2.6065,-2.5592,-2.5338,-2.4526,-2.3393,-2.3393,-2.297,-2.231,-2.231,-2.231,-2.231,-2.231,-2.231,-2.218,-2.1291,-2.0991,-2.0878,-1.998,-1.969,-1.969,-1.969,-1.8968,-1.8106,-1.8106,-1.7353,-1.6522,-1.6522,-1.6612,-1.6744,-1.6744,-1.6983,-1.7259,-1.7259,-1.7395,-1.7599,-1.7773,-1.78,-1.788,-1.8066,-1.792,-1.776,-1.7558,-1.6053,-1.4903,-1.4698,-1.5062,-1.5276,-1.5276,-1.5656,-1.5876,-1.5876,-1.5876,-1.5744,-1.532,-1.5276,-1.5005,-1.4422,-1.4376,-1.4097,-1.3505,-1.3515,-1.3286,-1.2881,-1.2881,-1.2881,-1.2881,-1.2881,-1.2881,-2.5757,-2.5986,-2.5967,-2.6851,-2.6832,-2.6427,-2.5726,-2.5425,-2.5264,-2.5122,-2.4983,-2.4966,-2.5245,-2.5303,-2.5687,-2.6871,-2.8044,-2.8967,-2.9486,-3.0227,-3.0472,-2.9786,-2.9644,-2.9455,-2.9044,-2.8994,-2.8994,-2.8994,-2.8994,-2.8994,-2.8994,-2.8994,-2.8994,-2.8994,-2.8994,-2.8651,-2.7897,-2.7897,-2.7517,-2.6691,-2.6691,-2.6691,-2.6691,-2.6691,-2.6437,-2.5998,-2.5998,-2.5321,-2.4171,-2.39,-2.3359,-2.2682,-2.2412,-2.231,-2.231,-2.231,-2.218,-2.1945,-2.126,-2.0991,-2.0878,-1.998,-1.969,-1.969,-1.969,-1.908,-1.8341,-1.8145,-1.7585,-1.7034,-1.6837,-1.7188,-1.7585,-1.7585,-1.7867,-1.8106,-1.8106,-1.8263,-1.838,-1.838,-1.8535,-1.865,-1.865,-1.8496,-1.838,-1.838,-1.6985,-1.5891,-1.5891,-1.6089,-1.6188,-1.6188,-1.6355,-1.6522,-1.6522,-1.6522,-1.6324,-1.5964,-1.5908,-1.5644,-1.5062,-1.5017,-1.4652,-1.3815,-1.3815,-1.3505,-1.2881,-1.2881,-1.2881,-1.2881,-1.2881,-1.2881,-2.5438,-2.6082,-2.6928,-2.7755,-2.7332,-2.6717,-2.6621,-2.5967,-2.5341,-2.5264,-2.4601,-2.4245,-2.4966,-2.513,-2.5736,-2.7486,-2.9179,-3.0302,-3.0379,-3.0871,-3.0852,-2.9825,-2.9532,-2.9289,-2.904,-2.8994,-2.9012,-2.9049,-2.9049,-2.903,-2.8994,-2.903,-2.9007,-2.8952,-2.8952,-2.8601,-2.7869,-2.784,-2.7457,-2.6691,-2.6691,-2.6691,-2.6691,-2.6691,-2.6691,-2.6691,-2.6691,-2.6285,-2.5558,-2.4831,-2.4086,-2.3325,-2.2632,-2.2344,-2.231,-2.231,-2.2032,-2.1598,-2.1181,-2.0991,-2.0829,-1.998,-1.969,-1.969,-1.969,-1.9332,-1.8779,-1.8302,-1.8145,-1.7987,-1.7463,-1.7747,-1.8145,-1.8145,-1.8185,-1.8185,-1.8185,-1.8574,-1.893,-1.893,-1.9369,-1.969,-1.969,-1.9281,-1.893,-1.893,-1.8496,-1.8185,-1.8106,-1.7666,-1.7353,-1.7312,-1.6837,-1.6522,-1.6522,-1.6522,-1.6522,-1.6522,-1.6522,-1.6238,-1.5676,-1.5632,-1.5084,-1.3862,-1.3862,-1.3552,-1.2881,-1.2881,-1.2881,-1.2881,-1.2881,-1.2881,-2.69,-2.7832,-2.8525,-2.8736,-2.8621,-2.814,-2.689,-2.6428,-2.5909,-2.4659,-2.3725,-2.3004,-2.2543,-2.3004,-2.3985,-2.5697,-2.7409,-2.8967,-3.0206,-3.0355,-3.0167,-2.975,-2.9532,-2.9289,-2.904,-2.8994,-2.9255,-2.9861,-2.9898,-2.9641,-2.9012,-2.9271,-2.9163,-2.8583,-2.8308,-2.7936,-2.7439,-2.7147,-2.6906,-2.6691,-2.6691,-2.6691,-2.6691,-2.6691,-2.6691,-2.6691,-2.6691,-2.6285,-2.5592,-2.5406,-2.456,-2.3376,-2.319,-2.2784,-2.231,-2.231,-2.2209,-2.2077,-2.1598,-2.1007,-2.0382,-1.9874,-1.969,-1.969,-1.969,-1.9332,-1.8855,-1.8727,-1.8419,-1.8066,-1.7947,-1.8302,-1.8688,-1.8688,-1.9006,-1.9281,-1.9281,-1.9406,-1.9479,-1.9479,-1.9603,-1.969,-1.969,-1.9603,-1.9479,-1.9479,-1.9369,-1.9006,-1.8224,-1.7987,-1.7747,-1.7353,-1.7188,-1.6909,-1.6522,-1.6522,-1.6522,-1.6522,-1.6522,-1.6423,-1.6281,-1.6281,-1.5688,-1.4468,-1.4468,-1.3978,-1.2881,-1.2881,-1.2881,-1.2881,-1.2881,-1.2881,-2.7621,-2.8775,-2.9679,-2.9679,-2.9121,-2.8217,-2.6909,-2.6024,-2.5024,-2.3312,-2.2293,-2.1446,-2.0562,-2.1932,-2.3494,-2.4432,-2.7278,-2.9564,-3.0037,-3.0297,-3.0213,-2.9626,-2.9355,-2.9178,-2.8998,-2.8994,-2.9347,-3.0136,-3.021,-3.0173,-3.0063,-2.9929,-2.9569,-2.8943,-2.8416,-2.7851,-2.7303,-2.6906,-2.6691,-2.6691,-2.6691,-2.6691,-2.6691,-2.6691,-2.6691,-2.6691,-2.6691,-2.6471,-2.6065,-2.5744,-2.5118,-2.4306,-2.3646,-2.3139,-2.275,-2.2429,-2.218,-2.1974,-2.1688,-2.1165,-2.055,-2.0089,-1.9839,-1.969,-1.969,-1.9479,-1.9207,-1.8968,-1.8855,-1.8727,-1.8496,-1.8977,-1.9471,-1.9281,-1.9609,-1.9909,-1.9747,-1.969,-1.969,-1.969,-1.969,-1.969,-1.969,-1.969,-1.969,-1.969,-1.969,-1.9479,-1.8893,-1.838,-1.7987,-1.7666,-1.7229,-1.6837,-1.6522,-1.6522,-1.6522,-1.6522,-1.6522,-1.6522,-1.6522,-1.6522,-1.6064,-1.5096,-1.5096,-1.4514,-1.3286,-1.3286,-1.3152,-1.2881,-1.2881,-1.2881,-2.7923,-2.9156,-3.0417,-3.0425,-2.9231,-2.7806,-2.6832,-2.5293,-2.359,-2.1716,-2.06,-1.9715,-1.8972,-2.1158,-2.3221,-2.369,-2.763,-3.043,-2.982,-3.0336,-3.0434,-2.9507,-2.9178,-2.8994,-2.8994,-2.8994,-2.936,-3.0283,-3.0356,-3.065,-3.1347,-3.0693,-3.0006,-2.9323,-2.856,-2.7872,-2.7241,-2.6873,-2.6691,-2.6691,-2.6691,-2.6691,-2.6691,-2.6691,-2.6691,-2.6691,-2.6691,-2.6691,-2.664,-2.6015,-2.5693,-2.5473,-2.4086,-2.3477,-2.3308,-2.2581,-2.2032,-2.1688,-2.1688,-2.1399,-2.0991,-2.0483,-2.0054,-1.9782,-1.9726,-1.969,-1.9603,-1.9132,-1.9332,-1.9603,-1.9132,-1.9636,-2.0212,-1.9874,-2.0089,-2.0296,-1.9874,-1.9747,-1.969,-1.969,-1.969,-1.969,-1.969,-1.969,-1.969,-1.969,-1.969,-1.969,-1.969,-1.8817,-1.8185,-1.8106,-1.7188,-1.6595,-1.6522,-1.6522,-1.6522,-1.6522,-1.6522,-1.6522,-1.6522,-1.6423,-1.6139,-1.5632,-1.5543,-1.4903,-1.3815,-1.3815,-1.3505,-1.2881,-1.2881,-1.2881,-2.8074,-2.9298,-3.054,-3.049,-2.9717,-2.8549,-2.6959,-2.5293,-2.3417,-2.1004,-1.9254,-1.81,-1.7953,-1.897,-2.074,-2.3563,-2.5803,-2.7818,-2.9688,-2.9793,-2.9622,-2.9431,-2.9178,-2.8994,-2.8994,-2.8994,-2.9622,-3.1072,-3.1182,-3.1237,-3.1384,-3.1,-2.9843,-2.7757,-2.723,-2.6922,-2.6825,-2.6725,-2.6691,-2.6691,-2.6691,-2.6691,-2.6691,-2.6691,-2.6691,-2.6691,-2.6691,-2.6691,-2.6674,-2.6556,-2.615,-2.5524,-2.4644,-2.3934,-2.3308,-2.2581,-2.2254,-2.218,-2.218,-2.1869,-2.1368,-2.0567,-2.0246,-2.0124,-1.9818,-1.969,-1.969,-1.9603,-1.9639,-1.969,-1.9603,-1.9914,-2.028,-2.0212,-2.0565,-2.0764,-2.028,-1.9929,-1.969,-1.969,-1.969,-1.969,-1.969,-1.969,-1.969,-1.969,-1.969,-1.969,-1.969,-1.9169,-1.8574,-1.8145,-1.7544,-1.6993,-1.6552,-1.6522,-1.6522,-1.6522,-1.6522,-1.6522,-1.6522,-1.6008,-1.572,-1.5588,-1.5096,-1.4514,-1.3815,-1.3815,-1.3505,-1.2881,-1.2881,-1.2881,-2.7974,-2.8985,-2.992,-2.9834,-2.919,-2.7887,-2.5235,-2.3639,-2.1908,-1.8927,-1.7657,-1.6792,-1.5888,-1.7777,-2.0012,-2.1646,-2.4658,-2.7286,-2.881,-2.9232,-2.9351,-2.9203,-2.9067,-2.8994,-2.8994,-2.936,-2.9953,-3.0723,-3.1549,-3.221,-3.2632,-3.1327,-2.9686,-2.7672,-2.7019,-2.6691,-2.6691,-2.6691,-2.6691,-2.6691,-2.6691,-2.6691,-2.6691,-2.6691,-2.6691,-2.6691,-2.6691,-2.6691,-2.6691,-2.6691,-2.6488,-2.6065,-2.4932,-2.4286,-2.3833,-2.2716,-2.231,-2.231,-2.231,-2.2135,-2.184,-2.0959,-2.0516,-2.0212,-1.9818,-1.969,-1.969,-1.969,-1.969,-1.9747,-1.9965,-2.033,-2.0649,-2.0649,-2.0649,-2.0516,-2.007,-1.9854,-1.969,-1.969,-1.969,-1.969,-1.969,-1.969,-1.969,-1.969,-1.969,-1.969,-1.969,-1.9244,-1.8688,-1.8185,-1.7626,-1.7076,-1.6552,-1.6522,-1.6522,-1.6522,-1.6522,-1.6522,-1.6522,-1.6238,-1.6051,-1.6051,-1.5788,-1.5332,-1.4721,-1.4721,-1.4411,-1.3836,-1.3515,-1.3563,-2.7662,-2.8461,-2.907,-2.9,-2.8364,-2.6881,-2.3581,-2.2002,-2.035,-1.7157,-1.6349,-1.5868,-1.467,-1.7041,-1.9458,-2.0363,-2.3693,-2.6604,-2.7979,-2.8665,-2.9021,-2.9003,-2.8994,-2.8994,-2.8994,-2.9586,-3.0008,-3.0191,-3.1696,-3.2771,-3.3149,-3.1343,-2.952,-2.7836,-2.7083,-2.6691,-2.6691,-2.6691,-2.6691,-2.6691,-2.6691,-2.6691,-2.6691,-2.6691,-2.6691,-2.6691,-2.6691,-2.6691,-2.6691,-2.6691,-2.6691,-2.6539,-2.5099,-2.4506,-2.4337,-2.2852,-2.231,-2.231,-2.231,-2.231,-2.2152,-2.1291,-2.0764,-2.0348,-1.9839,-1.969,-1.969,-1.969,-1.9747,-1.9909,-2.0212,-2.0715,-2.1118,-2.1118,-2.0781,-2.0364,-1.9909,-1.9747,-1.969,-1.969,-1.969,-1.969,-1.969,-1.969,-1.969,-1.969,-1.969,-1.969,-1.969,-1.9332,-1.8855,-1.8341,-1.7706,-1.7076,-1.6552,-1.6522,-1.6522,-1.6522,-1.6522,-1.6522,-1.6522,-1.638,-1.638,-1.6522,-1.638,-1.6051,-1.5588,-1.5588,-1.5276,-1.4709,-1.419,-1.4236,-2.7067,-2.7733,-2.8376,-2.831,-2.7608,-2.6193,-2.3515,-2.1601,-1.9677,-1.7042,-1.5868,-1.5503,-1.6138,-1.6567,-1.8078,-2.191,-2.26,-2.399,-2.7817,-2.8143,-2.8195,-2.8925,-2.8994,-2.8994,-2.8994,-2.9067,-2.942,-3.0155,-3.1696,-3.219,-3.1238,-3.0606,-2.94,-2.74,-2.6939,-2.6691,-2.6691,-2.6691,-2.6691,-2.6691,-2.6691,-2.6691,-2.6691,-2.6691,-2.6691,-2.6691,-2.6691,-2.6691,-2.6691,-2.6691,-2.6691,-2.6539,-2.5099,-2.4506,-2.4337,-2.2852,-2.231,-2.231,-2.231,-2.231,-2.2152,-2.1291,-2.0959,-2.0764,-1.9945,-1.969,-1.969,-1.969,-1.9965,-2.0246,-2.028,-2.0943,-2.1552,-2.1552,-2.1244,-2.0797,-2.0348,-1.9965,-1.969,-1.969,-1.969,-1.969,-1.969,-1.969,-1.969,-1.969,-1.969,-1.969,-1.969,-1.9639,-1.9406,-1.8893,-1.7907,-1.7076,-1.6552,-1.6522,-1.6522,-1.6522,-1.6522,-1.6522,-1.6522,-1.5952,-1.5952,-1.6479,-1.5952,-1.5676,-1.5588,-1.5588,-1.5276,-1.4698,-1.4652,-1.4663,-2.6835,-2.7246,-2.7498,-2.7378,-2.7074,-2.597,-2.2836,-2.1176,-1.9576,-1.7037,-1.5813,-1.5311,-1.5657,-1.6157,-1.7514,-2.0604,-2.1315,-2.2553,-2.5635,-2.6227,-2.6649,-2.7475,-2.7989,-2.8484,-2.8938,-2.9457,-3.0063,-3.0852,-3.1072,-3.0753,-2.9866,-3.0101,-2.9369,-2.7369,-2.6906,-2.6691,-2.6691,-2.6691,-2.6691,-2.6691,-2.6691,-2.6691,-2.6691,-2.6691,-2.6691,-2.6691,-2.6691,-2.6437,-2.6065,-2.6522,-2.6167,-2.5336,-2.4743,-2.4235,-2.3697,-2.2682,-2.231,-2.231,-2.231,-2.231,-2.2152,-2.1291,-2.0991,-2.0845,-1.9945,-1.969,-1.969,-1.969,-2.0,-2.0382,-2.0649,-2.1385,-2.1957,-2.1658,-2.1491,-2.1244,-2.0813,-2.0348,-2.0054,-2.0054,-1.9874,-1.969,-1.969,-1.969,-1.969,-1.969,-1.969,-1.969,-1.969,-1.969,-1.9479,-1.8968,-1.8224,-1.7544,-1.7034,-1.668,-1.6522,-1.6522,-1.6522,-1.6522,-1.6522,-1.6281,-1.6238,-1.6522,-1.6238,-1.6139,-1.6139,-1.6139,-1.6008,-1.5788,-1.5421,-1.5421,-2.6425,-2.6621,-2.6581,-2.6493,-2.6467,-2.5589,-2.2392,-2.0971,-1.9593,-1.7031,-1.582,-1.5189,-1.5189,-1.5695,-1.6886,-1.9259,-1.9983,-2.125,-2.4102,-2.482,-2.5419,-2.6484,-2.7108,-2.7769,-2.8576,-2.9384,-3.0081,-3.065,-3.0283,-2.9652,-2.8798,-2.9395,-2.8956,-2.7181,-2.6841,-2.6691,-2.6691,-2.6691,-2.6691,-2.6691,-2.6691,-2.6691,-2.6691,-2.6691,-2.6691,-2.6691,-2.6691,-2.6285,-2.5642,-2.6167,-2.5625,-2.4489,-2.4269,-2.3849,-2.3308,-2.2581,-2.231,-2.231,-2.231,-2.2209,-2.1974,-2.1229,-2.0894,-2.0665,-1.9909,-1.969,-1.9711,-1.9839,-2.0261,-2.0797,-2.1244,-2.1857,-2.218,-2.1718,-2.1491,-2.1306,-2.0894,-2.0431,-2.0124,-2.0124,-1.9909,-1.969,-1.969,-1.969,-1.969,-1.969,-1.969,-1.969,-1.969,-1.969,-1.9566,-1.9169,-1.865,-1.8066,-1.7353,-1.6795,-1.6522,-1.6522,-1.6522,-1.6522,-1.6522,-1.6522,-1.6522,-1.6522,-1.6522,-1.6522,-1.6522,-1.6522,-1.6522,-1.6479,-1.6051,-1.6095,-2.5683,-2.5703,-2.5703,-2.5703,-2.5658,-2.4939,-2.2389,-2.1068,-1.9657,-1.7044,-1.582,-1.5189,-1.5189,-1.5209,-1.6003,-1.8429,-1.8644,-1.992,-2.3934,-2.4339,-2.4814,-2.641,-2.6612,-2.6924,-2.7732,-2.8539,-2.9012,-2.9012,-2.9403,-2.9116,-2.7979,-2.8281,-2.7939,-2.6742,-2.6691,-2.6691,-2.6691,-2.6691,-2.6691,-2.6691,-2.6691,-2.6691,-2.6691,-2.6691,-2.6691,-2.6691,-2.6691,-2.6285,-2.5609,-2.5609,-2.5169,-2.4438,-2.3697,-2.341,-2.3308,-2.2581,-2.231,-2.231,-2.231,-2.2003,-2.1521,-2.1118,-2.0682,-2.0212,-1.9818,-1.969,-1.9782,-2.0193,-2.0927,-2.1688,-2.2163,-2.2282,-2.218,-2.1718,-2.1306,-2.0862,-2.0416,-2.0,-1.9726,-1.9726,-1.969,-1.969,-1.969,-1.969,-1.969,-1.969,-1.969,-1.969,-1.969,-1.969,-1.969,-1.969,-1.9207,-1.8458,-1.7394,-1.6795,-1.6522,-1.6522,-1.6522,-1.6522,-1.6522,-1.6522,-1.6522,-1.6522,-1.6522,-1.6522,-1.6522,-1.6522,-1.6522,-1.6522,-1.6466,-1.6466,-2.4784,-2.4805,-2.4668,-2.4074,-2.3907,-2.3505,-2.2059,-2.0579,-1.9104,-1.768,-1.6226,-1.5189,-1.5189,-1.5189,-1.6342,-1.9879,-1.9805,-2.0538,-2.4004,-2.4801,-2.5219,-2.5713,-2.7236,-2.8333,-2.8613,-2.8847,-2.8994,-2.8994,-2.8851,-2.8515,-2.7926,-2.7774,-2.7373,-2.6742,-2.6971,-2.7004,-2.6691,-2.6954,-2.6971,-2.6691,-2.6691,-2.6691,-2.6691,-2.6691,-2.6691,-2.6691,-2.6691,-2.5998,-2.4881,-2.5389,-2.4577,-2.3021,-2.3291,-2.3088,-2.2632,-2.2395,-2.231,-2.2237,-2.1928,-2.1718,-2.1491,-2.0748,-2.0416,-2.0212,-1.9818,-1.969,-1.9854,-2.0565,-2.1181,-2.1718,-2.218,-2.231,-2.2254,-2.2106,-2.1974,-2.1857,-2.1705,-2.1086,-2.0599,-2.0599,-2.033,-2.0124,-2.0124,-2.0364,-2.0465,-2.0158,-2.0124,-2.0,-1.9762,-1.969,-1.969,-1.969,-1.9207,-1.8765,-1.8419,-1.7907,-1.7422,-1.7076,-1.7034,-1.6879,-1.6522,-1.6837,-1.6879,-1.6522,-1.7229,-1.7435,-1.7034,-1.7034,-1.6879,-1.6522,-1.6879,-1.6837,-2.3633,-2.3906,-2.3789,-2.3235,-2.3109,-2.2767,-2.1533,-2.0137,-1.876,-1.7563,-1.6187,-1.5189,-1.5189,-1.5189,-1.6086,-1.883,-1.9017,-1.9894,-2.305,-2.4081,-2.4832,-2.5731,-2.7457,-2.8558,-2.8558,-2.881,-2.8994,-2.8994,-2.8489,-2.8129,-2.7926,-2.7378,-2.7019,-2.6939,-2.7178,-2.7255,-2.7147,-2.7241,-2.7178,-2.6939,-2.6774,-2.6691,-2.6691,-2.6691,-2.6691,-2.6674,-2.6404,-2.5609,0.0,-2.4695,-2.3799,-2.2361,-2.2818,-2.2699,-2.231,-2.231,-2.231,-2.2254,-2.1974,-2.1628,-2.1275,-2.0748,-2.0449,-2.028,-2.0208,-2.0174,-2.0345,-2.1023,-2.1538,-2.1928,-2.2209,-2.231,-2.231,-2.231,-2.2163,-2.2032,-2.2032,-2.1477,-2.0991,-2.0991,-2.0748,-2.055,-2.055,-2.0649,-2.0616,-2.0348,-2.0193,-1.9965,-1.9711,-1.969,-1.969,-1.969,-1.9406,-1.9207,-1.9207,-1.8535,-1.7947,-1.7626,-1.7585,-1.7463,-1.7105,-1.7435,-1.7422,-1.7118,-1.7747,-1.7947,-1.7585,-1.7394,-1.7105,-1.6795,-1.6951,-1.6837,0.0,-2.2773,-2.2812,-2.2754,-2.2729,-2.2307,-2.0687,-1.9588,0.0,-1.6827,-1.5815,-1.5228,-1.5368,-1.5266,-1.549,-1.6413,-1.7098,-1.8603,-2.1649,-2.2813,-2.419,-2.6502,-2.7438,-2.7879,-2.7879,-2.8576,-2.8994,-2.8994,-2.8352,-2.7954,-2.7954,-2.721,-2.6971,-2.7378,-2.7378,-2.753,-2.7897,-2.753,-2.7317,-2.7303,-2.6906,-2.6691,-2.6691,-2.6691,-2.6657,-2.6573,-2.5896,-2.5152,-2.4388,-2.3663,-2.297,-2.231,-2.231,-2.231,-2.231,-2.231,-2.231,-2.2282,-2.2254,-2.1691,-2.0991,-2.0959,-2.0649,-2.0382,-2.0894,-2.1023,-2.1118,-2.1491,-2.1928,-2.231,-2.231,-2.231,-2.231,-2.231,-2.1974,-2.1658,-2.1658,-2.1337,-2.1023,-2.1023,-2.1023,-2.1023,-2.1023,-2.0715,-2.0449,-2.0416,-2.007,-1.9818,-1.9782,-1.9782,-1.9782,-1.9747,-1.9747,-1.9711,-1.969,-1.8779,-1.8224,-1.8185,-1.8185,-1.8145,-1.8106,-1.8145,-1.8145,-1.8106,-1.8145,-1.8185,-1.8185,-1.7666,-1.7394,-1.7312,-1.6795,-1.6552,-1.9023,0.0,-2.0019,-1.9291,-1.9111,-1.8999,0.0,-1.7745,-1.6992,-1.6576,-1.5809,-1.5599,-1.6888,-1.5971,-1.6365,-2.0421,-2.0421,-2.1038,-2.4329,-2.5872,-2.7108,-2.8301,-2.8613,-2.8723,-2.8723,-2.8906,-2.8994,-2.8994,-2.854,-2.829,-2.829,-2.788,-2.7794,-2.8139,-2.8139,-2.8057,-2.7897,-2.7811,-2.7589,-2.7303,-2.6906,-2.6691,-2.6691,-2.6691,-2.6387,-2.5862,-2.5693,-2.4864,-2.3646,-2.346,-2.297,-2.231,-2.231,-2.231,-2.231,-2.231,-2.231,-2.2254,-2.1899,-2.1446,-2.0926,-2.0583,-2.0382,-2.0449,-2.1228,-2.146,-2.1491,-2.1582,-2.1928,-2.231,-2.231,-2.231,-2.231,-2.231,-2.2209,-2.2135,-2.2135,-2.1764,-2.146,-2.146,-2.146,-2.146,-2.146,-2.1675,-2.1705,-2.1352,-2.1228,-2.1039,-2.0731,-2.0698,-2.0565,-2.0193,-2.0158,-2.0035,-1.9726,-1.9479,-1.9169,-1.8727,-1.8688,-1.8535,-1.8145,-1.8496,-1.8535,-1.8106,-1.8496,-1.8688,-1.8688,-1.8574,-1.8106,-1.7312,-1.7146,-1.6879,-1.6792,-1.832,-1.9765,-1.9223,-1.9075,-1.8938,-1.8508,-1.7418,-1.6394,-1.5996,-1.5541,-1.5484,-1.6388,-1.6318,-1.6986,-1.9722,-2.0476,-2.1832,-2.5097,-2.7177,-2.8521,-2.8938,-2.8994,-2.8994,-2.8994,-2.8994,-2.8994,-2.8994,-2.8633,-2.8394,-2.8394,-2.8075,-2.8047,-2.8394,-2.8394,-2.8316,-2.8129,-2.7982,-2.7678,-2.7303,-2.6906,-2.6691,-2.6674,-2.6353,-2.5981,-2.5575,-2.4881,-2.4137,-2.3376,-2.3038,-2.2665,-2.231,-2.231,-2.231,-2.231,-2.231,-2.231,-2.2254,-2.2003,-2.1645,-2.1244,-2.0975,-2.0894,-2.1023,-2.1705,-2.1928,-2.1928,-2.1928,-2.2106,-2.231,-2.231,-2.231,-2.231,-2.231,-2.231,-2.231,-2.231,-2.2106,-2.1928,-2.1928,-2.1928,-2.1928,-2.1928,-2.1957,-2.1899,-2.1658,-2.143,-2.1244,-2.1039,-2.0991,-2.0894,-2.0649,-2.0616,-2.0532,-2.0311,-2.0311,-1.9984,-1.9317,-1.9281,-1.9132,-1.8855,-1.9132,-1.9132,-1.8855,-1.9132,-1.9281,-1.9281,-1.9006,-1.8496,-1.7666,-1.7435,-1.6993,-1.5699,-1.8115,-2.0426,-1.9858,-1.9968,-1.9908,-1.875,-1.7464,-1.6253,-1.5388,-1.5311,-1.5522,-1.5901,-1.6853,-1.7719,-1.8173,-2.0019,-2.2399,-2.5182,-2.7567,-2.8994,-2.8994,-2.8994,-2.8994,-2.8994,-2.8994,-2.8994,-2.8994,-2.8682,-2.8471,-2.8471,-2.821,-2.8201,-2.8471,-2.8471,-2.8446,-2.8394,-2.8129,-2.7794,-2.7452,-2.6899,-2.6622,-2.6605,-2.581,-2.5372,-2.5203,-2.3934,-2.3342,-2.3173,-2.2564,-2.231,-2.231,-2.231,-2.231,-2.231,-2.231,-2.231,-2.2282,-2.2209,-2.1928,-2.1582,-2.1582,-2.1582,-2.1688,-2.2163,-2.231,-2.231,-2.231,-2.231,-2.231,-2.231,-2.231,-2.231,-2.231,-2.231,-2.231,-2.231,-2.231,-2.231,-2.231,-2.231,-2.231,-2.231,-2.1957,-2.1718,-2.1718,-2.1415,-2.1197,-2.1197,-2.1197,-2.1166,-2.1086,-2.1086,-2.1055,-2.1007,-2.0991,-2.0665,-1.996,-1.9854,-1.9747,-1.969,-1.969,-1.969,-1.969,-1.969,-1.969,-1.969,-1.9169,-1.865,-1.8224,-1.7585,-1.7076,-1.7046,-1.89,-1.9731,-1.6823,-1.7711,-1.8675,-1.6328,-1.6169,-1.6253,-1.5388,-1.5792,-1.6965,-1.9119,-1.8878,-1.9251,-2.2086,-2.3754,-2.5092,-2.6245,-2.7915,-2.8994,-2.8994,-2.8994,-2.8994,-2.8994,-2.8994,-2.8994,-2.8994,-2.8952,-2.8905,-2.8905,-2.8858,-2.8839,-2.8905,-2.8905,-2.8749,-2.8402,-2.8368,-2.8272,-2.8219,-2.6895,-2.6277,-2.6243,-2.5169,-2.4323,-2.3731,-2.3494,-2.3054,-2.2462,-2.2361,-2.231,-2.231,-2.231,-2.231,-2.231,-2.231,-2.231,-2.2237,-2.1853,-2.1658,-2.1582,-2.1582,-2.1582,-2.1688,-2.2163,-2.231,-2.231,-2.231,-2.231,-2.231,-2.231,-2.231,-2.231,-2.231,-2.231,-2.231,-2.231,-2.231,-2.231,-2.231,-2.231,-2.231,-2.231,-2.2237,-2.218,-2.218,-2.2152,-2.2106,-2.2106,-2.2106,-2.1945,-2.1552,-2.1491,-2.1368,-2.1039,-2.0991,-2.0926,-2.0797,-2.0431,-2.007,-1.9711,-1.969,-1.969,-1.969,-1.969,-1.969,-1.969,-1.9169,-1.8855,-1.8727,-1.7747,-1.7271,-1.554,-1.6984,-1.8032,-1.6937,-1.8915,-2.083,-1.9584,-1.8927,-1.8446,-1.8042,-1.8273,-1.8907,-2.0081,-2.0509,-2.1441,-2.3817,-2.5327,-2.6376,-2.6842,-2.8333,-2.9334,-2.9225,-2.9222,-2.9156,-2.8998,-2.8994,-2.8994,-2.8994,-2.8994,-2.8994,-2.8994,-2.8994,-2.8994,-2.8994,-2.8994,-2.8905,-2.8725,-2.8288,-2.7881,-2.7478,-2.6795,-2.6144,-2.5507,-2.4591,-2.3903,-2.3376,-2.2987,-2.2615,-2.231,-2.231,-2.231,-2.231,-2.231,-2.231,-2.231,-2.231,-2.231,-2.2282,-2.2032,-2.1974,-2.1974,-2.1974,-2.1974,-2.2032,-2.2237,-2.231,-2.231,-2.231,-2.231,-2.231,-2.231,-2.231,-2.231,-2.231,-2.2398,-2.249,-2.2321,-2.2398,-2.249,-2.2321,-2.231,-2.231,-2.231,-2.231,-2.231,-2.231,-2.231,-2.231,-2.231,-2.231,-2.2209,-2.2003,-2.1974,-2.1899,-2.1721,-2.1358,-2.0904,-2.0447,-2.0017,-1.9533,-1.8933,-1.8714,-1.8627,-1.8627,-1.8627,-1.8807,-1.9151,-1.8924,-1.8834,-1.8893,-1.8106,-1.7585,-1.4467,-1.5526,-1.6739,-1.7816,-2.0051,-2.2023,-2.2183,-2.1062,-2.0042,-2.0254,-2.0446,-2.0639,-2.085,-2.2087,-2.346,-2.4625,-2.6022,-2.7022,-2.7172,-2.8638,-2.9643,-2.9474,-2.9474,-2.9373,-2.9112,-2.9089,-2.9067,-2.9017,-2.8994,-2.8994,-2.8994,-2.8994,-2.8994,-2.8994,-2.8833,-2.8723,-2.8723,-2.7915,-2.7318,-2.696,-2.6428,-2.5719,-2.4833,-2.394,-2.338,-2.3105,-2.2547,-2.231,-2.231,-2.231,-2.231,-2.231,-2.231,-2.231,-2.231,-2.231,-2.231,-2.231,-2.231,-2.231,-2.231,-2.231,-2.231,-2.231,-2.231,-2.231,-2.231,-2.231,-2.231,-2.231,-2.231,-2.2349,-2.2371,-2.2371,-2.2616,-2.2738,-2.2436,-2.2563,-2.2625,-2.2349,-2.231,-2.231,-2.231,-2.231,-2.231,-2.231,-2.231,-2.231,-2.231,-2.231,-2.231,-2.231,-2.2158,-2.1972,-2.1786,-2.1245,-2.0565,-1.9722,-1.9653,-1.9264,-1.8361,-1.8004,-1.7829,-1.7829,-1.7747,-1.7936,-1.8478,-1.8478,-1.851,-1.8608,-1.8214,-1.7767,-1.5875,-1.6419,-1.6901,-1.8518,-1.9102,-1.948,-2.0292,-1.9754,-1.9319,-2.0139,-2.0889,-2.1658,-2.2466,-2.3839,-2.4816,-2.4795,-2.6133,-2.7188,-2.7204,-2.8638,-2.9696,-2.9678,-2.9678,-2.9607,-2.9373,-2.9372,-2.9267,-2.9017,-2.8994,-2.8994,-2.8994,-2.8994,-2.8994,-2.8994,-2.8282,-2.7879,-2.7879,-2.709,-2.7031,-2.7702,-2.5566,-2.4516,-2.4403,-2.3027,-2.2406,-2.2395,-2.2327,-2.231,-2.231,-2.231,-2.231,-2.231,-2.231,-2.231,-2.231,-2.231,-2.231,-2.231,-2.231,-2.231,-2.231,-2.231,-2.231,-2.231,-2.231,-2.231,-2.231,-2.231,-2.231,-2.231,-2.231,-2.2473,-2.2669,-2.2669,-2.2923,-2.3069,-2.2746,-2.2695,-2.2625,-2.2349,-2.231,-2.231,-2.231,-2.231,-2.231,-2.231,-2.231,-2.231,-2.231,-2.231,-2.231,-2.231,-2.1684,-2.0974,-2.0221,-2.012,-1.9782,-1.9024,-1.9893,-1.991,-1.881,-1.8376,-1.8146,-1.8146,-1.7861,-1.7712,-1.7757,-1.7757,-1.7787,-1.7781,-1.7861,-1.7636,-1.397,-1.4907,-1.6099,-1.7779,-1.9004,-2.0177,-2.1543,-2.2032,-2.2571,-2.3928,-2.4043,-2.3966,-2.4293,-2.47,-2.5022,-2.5103,-2.6422,-2.748,-2.7625,-2.909,-3.0066,-2.9908,-2.9893,-2.9813,-2.9607,-2.9589,-2.9475,-2.9267,-2.9246,-2.9178,-2.9017,-2.8539,-2.8246,-2.8246,-2.7475,-2.7053,-2.7053,-2.6264,-2.6007,-2.6282,-2.5433,-2.4527,-2.3631,-2.3105,-2.266,-2.231,-2.231,-2.231,-2.2293,-2.249,-2.2436,-2.231,-2.231,-2.231,-2.231,-2.231,-2.231,-2.231,-2.231,-2.231,-2.231,-2.231,-2.231,-2.231,-2.231,-2.231,-2.231,-2.231,-2.2426,-2.2537,-2.2537,-2.2608,-2.2746,-2.2972,-2.3277,-2.3414,-2.3093,-2.3165,-2.323,-2.2908,-2.2695,-2.2537,-2.2537,-2.2398,-2.231,-2.231,-2.231,-2.231,-2.231,-2.1904,-2.1617,-2.1617,-2.0923,-2.0145,-1.9384,-1.9731,-1.9478,-1.8302,-1.8826,-1.8798,-1.7906,-1.7529,-1.7227,-1.7016,-1.6887,-1.6909,-1.7085,-1.7085,-1.7294,-1.7697,-1.7403,-1.7051,-1.3551,-1.4522,-1.6003,-1.7683,-1.9004,-2.0408,-2.235,-2.3263,-2.4168,-2.5851,-2.5717,-2.5303,-2.5303,-2.5192,-2.5141,-2.5274,-2.642,-2.7431,-2.7841,-2.9102,-3.0016,-3.0131,-3.0136,-3.0032,-2.9813,-2.9569,-2.9317,-2.9101,-2.8858,-2.861,-2.8359,-2.7803,-2.7488,-2.742,-2.6631,-2.6227,-2.6227,-2.5419,-2.5035,-2.5035,-2.5035,-2.4444,-2.3346,-2.3236,-2.2965,-2.2571,-2.2571,-2.2571,-2.2598,-2.2789,-2.2678,-2.2426,-2.2426,-2.236,-2.231,-2.231,-2.231,-2.231,-2.2415,-2.2426,-2.2426,-2.2426,-2.2426,-2.2398,-2.2338,-2.231,-2.231,-2.231,-2.25,-2.2721,-2.2822,-2.2947,-2.3069,-2.3282,-2.361,-2.3774,-2.3414,-2.3544,-2.3588,-2.3277,-2.2923,-2.2695,-2.2695,-2.249,-2.2226,-2.1989,-2.1955,-2.187,-2.1589,-2.1126,-2.072,-2.0483,-1.9976,-1.9343,-1.8623,-1.9029,-1.887,-1.7856,-1.8057,-1.797,-1.7496,-1.7126,-1.685,-1.6617,-1.6394,-1.6394,-1.6577,-1.6458,-1.6667,-1.7116,-1.691,-1.6603,-1.5405,-1.583,-1.6907,-1.8568,-1.9023,-1.9727,-2.2235,-2.2812,-2.3293,-2.4957,-2.5303,-2.5303,-2.5303,-2.5303,-2.5303,-2.5303,-2.6043,-2.6909,-2.7775,-2.8582,-2.941,-3.0263,-3.0379,-3.026,-3.0009,-2.927,-2.8688,-2.8412,-2.7662,-2.7112,-2.6916,-2.6879,-2.6802,-2.6594,-2.5805,-2.5403,-2.5403,-2.4593,-2.419,-2.419,-2.419,-2.4016,-2.3692,-2.3369,-2.3189,-2.3189,-2.3189,-2.3189,-2.3189,-2.3189,-2.2996,-2.2695,-2.2695,-2.2537,-2.231,-2.231,-2.231,-2.2349,-2.2599,-2.2695,-2.2695,-2.2695,-2.2695,-2.2634,-2.2388,-2.231,-2.231,-2.231,-2.25,-2.2772,-2.3117,-2.3437,-2.3692,-2.3692,-2.3976,-2.4113,-2.3774,-2.3692,-2.3628,-2.3259,-2.2947,-2.2695,-2.2695,-2.2473,-2.204,-2.1322,-2.1204,-2.0889,-2.0086,-1.9985,-1.9697,-1.8961,-1.8877,-1.8589,-1.7862,-1.7811,-1.7811,-1.7811,-1.7811,-1.7811,-1.7811,-1.7479,-1.7296,-1.7296,-1.6644,-1.6301,-1.6301,-1.5955,-1.5799,-1.5814,-1.6398,-1.6434,-1.293,-1.4887,-1.733,-1.726,-2.0369,-2.3476,-2.3667,-2.4139,-2.487,-2.5986,-2.6217,-2.6024,-2.5399,-2.5303,-2.5303,-2.5303,-2.6043,-2.6697,-2.6948,-2.7717,-2.8352,-2.8602,-2.864,-2.8599,-2.8533,-2.8303,-2.8058,-2.778,-2.7557,-2.7316,-2.7129,-2.643,-2.6042,-2.5968,-2.5058,-2.4557,-2.4557,-2.4318,-2.419,-2.419,-2.419,-2.4016,-2.3692,-2.3606,-2.3414,-2.3189,-2.3189,-2.3189,-2.3189,-2.3189,-2.3141,-2.3021,-2.2797,-2.2537,-2.2321,-2.25,-2.2463,-2.2349,-2.2599,-2.259,-2.2426,-2.2426,-2.2426,-2.2398,-2.2321,-2.231,-2.2349,-2.2527,-2.2815,-2.3117,-2.3459,-2.3795,-2.4054,-2.4054,-2.4132,-2.417,-2.4074,-2.4054,-2.4016,-2.3917,-2.3437,-2.3045,-2.3045,-2.2212,-2.1448,-2.1237,-2.072,-2.0094,-1.9333,-1.9232,-1.8944,-1.8217,-1.8132,-1.8048,-1.7828,-1.7811,-1.7811,-1.7811,-1.7811,-1.7811,-1.7811,-1.7704,-1.7549,-1.7304,-1.6876,-1.6528,-1.6301,-1.5955,-1.5799,-1.5799,-1.5964,-1.5832,-1.5513,-1.7523,-1.9773,-1.9946,-2.2177,-2.4447,-2.4966,-2.5197,-2.5437,-2.5986,-2.6082,-2.5928,-2.5399,-2.5303,-2.5303,-2.5303,-2.5726,-2.6197,-2.6544,-2.7044,-2.7505,-2.7852,-2.789,-2.789,-2.789,-2.7582,-2.7308,-2.7146,-2.6809,-2.6543,-2.6332,-2.5755,-2.5402,-2.534,-2.4688,-2.4321,-2.4321,-2.4247,-2.419,-2.419,-2.419,-2.4094,-2.3896,-2.3896,-2.3795,-2.3606,-2.3606,-2.3606,-2.3606,-2.3606,-2.3522,-2.3369,-2.3021,-2.2789,-2.2634,-2.2563,-2.25,-2.25,-2.2789,-2.2704,-2.249,-2.2607,-2.2571,-2.2453,-2.2321,-2.236,-2.25,-2.266,-2.3045,-2.3455,-2.3649,-2.3937,-2.419,-2.419,-2.419,-2.419,-2.419,-2.419,-2.419,-2.419,-2.3774,-2.3262,-2.2845,-2.207,-2.1232,-2.0399,-1.9621,-1.8954,-1.8521,-1.8454,-1.833,-1.8,-1.7949,-1.7949,-1.7949,-1.7949,-1.7905,-1.7811,-1.7811,-1.7811,-1.7811,-1.7811,-1.7704,-1.7502,-1.7175,-1.6901,-1.6696,-1.6246,-1.6011,-1.5983,-1.5856,-1.5639,-2.0458,-2.1716,-2.3043,-2.4572,-2.3985,-2.362,-2.5947,-2.587,-2.5322,-2.5399,-2.536,-2.5303,-2.5303,-2.5303,-2.5303,-2.5303,-2.5303,-2.5572,-2.637,-2.6486,-2.6774,-2.7563,-2.7659,-2.7659,-2.7659,-2.6948,-2.6486,-2.6486,-2.5755,-2.5214,-2.5034,-2.501,-2.4937,-2.4814,-2.4623,-2.4528,-2.4528,-2.4358,-2.4247,-2.4228,-2.4228,-2.4209,-2.419,-2.419,-2.419,-2.419,-2.419,-2.419,-2.419,-2.419,-2.3996,-2.3671,-2.3369,-2.323,-2.3117,-2.2571,-2.2527,-2.2746,-2.3093,-2.2972,-2.2772,-2.3093,-2.2996,-2.2712,-2.2453,-2.2554,-2.2746,-2.2797,-2.3212,-2.3714,-2.3753,-2.3976,-2.419,-2.419,-2.419,-2.419,-2.419,-2.419,-2.419,-2.419,-2.3862,-2.3286,-2.2291,-2.1932,-2.1148,-1.916,-1.8285,-1.7861,-1.7861,-1.7861,-1.7971,-1.8208,-1.8208,-1.8187,-1.8187,-1.8166,-1.8057,-1.7811,-1.7811,-1.7811,-1.7811,-1.7811,-1.7811,-1.7811,-1.7479,-1.7296,-1.7296,-1.6644,-1.6355,-1.6355,-1.6011,-1.5856,-1.5827,-1.8593,-2.187,-2.2235,-2.3562,-2.4909,-2.5437,-2.5418,-2.5495,-2.6178,-2.5793,-2.5303,-2.5303,-2.5303,-2.5303,-2.5303,-2.5303,-2.536,-2.5553,-2.5572,-2.5649,-2.5851,-2.587,-2.587,-2.587,-2.5687,-2.5572,-2.5572,-2.5399,-2.5274,-2.5243,-2.5088,-2.4986,-2.4962,-2.4814,-2.4731,-2.4731,-2.4685,-2.4591,-2.4445,-2.4445,-2.4339,-2.419,-2.419,-2.419,-2.419,-2.419,-2.419,-2.419,-2.419,-2.3996,-2.3692,-2.361,-2.3414,-2.3165,-2.3063,-2.289,-2.2746,-2.3093,-2.2972,-2.2772,-2.3093,-2.3141,-2.3069,-2.3014,-2.3063,-2.3141,-2.3414,-2.3588,-2.3774,-2.4016,-2.4151,-2.419,-2.419,-2.419,-2.419,-2.419,-2.419,-2.419,-2.419,-2.3426,-2.2677,-2.2434,-2.1191,-1.985,-1.8816,-1.8535,-1.843,-1.843,-1.843,-1.845,-1.8508,-1.833,-1.8187,-1.8187,-1.8014,-1.7878,-1.7811,-1.7811,-1.7811,-1.7811,-1.7811,-1.7811,-1.7811,-1.7479,-1.7296,-1.7296,-1.6876,-1.6686,-1.6686,-1.6355,-1.6191,-1.7151,-1.9485,-2.1793,-2.3004,-2.4322,-2.5303,-2.5303,-2.5303,-2.5418,-2.589,-2.561,-2.5303,-2.5303,-2.5303,-2.5303,-2.5303,-2.5303,-2.5303,-2.5303,-2.5303,-2.5303,-2.5303,-2.5303,-2.5303,-2.5303,-2.5303,-2.5303,-2.5303,-2.5303,-2.5303,-2.5303,-2.5203,-2.5152,-2.5152,-2.4981,-2.4891,-2.4891,-2.4828,-2.4746,-2.4639,-2.4561,-2.4393,-2.419,-2.419,-2.419,-2.419,-2.419,-2.419,-2.419,-2.419,-2.4094,-2.3917,-2.3774,-2.3692,-2.3649,-2.3323,-2.3189,-2.3189,-2.3392,-2.3212,-2.2996,-2.3346,-2.3346,-2.3189,-2.3189,-2.3323,-2.3477,-2.3649,-2.3816,-2.3976,-2.4151,-2.419,-2.4098,-2.3731,-2.3914,-2.4098,-2.3712,-2.3639,-2.3511,-2.3125,-2.2575,-2.2006,-2.1492,-2.0144,-1.9084,-1.8824,-1.8697,-1.8585,-1.8585,-1.8585,-1.8659,-1.877,-1.8678,-1.8585,-1.8585,-1.845,-1.831,-1.8187,-1.8061,-1.7992,-1.7992,-1.7861,-1.7811,-1.7811,-1.7635,-1.7549,-1.7526,-1.7199,-1.7027,-1.7027,-1.6712,-1.6448,-1.8666,-2.0504,-2.1947,-2.463,-2.5303,-2.5303,-2.5303,-2.5303,-2.5303,-2.5303,-2.5303,-2.5303,-2.5303,-2.5303,-2.5303,-2.5303,-2.5303,-2.5303,-2.5303,-2.5303,-2.5303,-2.5303,-2.5303,-2.5303,-2.5303,-2.5313,-2.5313,-2.5303,-2.5313,-2.5313,-2.5303,-2.5303,-2.5303,-2.5303,-2.5141,-2.5046,-2.5046,-2.4949,-2.4874,-2.4828,-2.4639,-2.4461,-2.4303,-2.4284,-2.4228,-2.419,-2.419,-2.419,-2.419,-2.419,-2.419,-2.417,-2.3896,-2.3955,-2.4132,-2.3522,-2.3459,-2.3692,-2.3692,-2.3522,-2.3346,-2.3671,-2.3588,-2.3369,-2.3369,-2.3566,-2.3795,-2.3795,-2.3996,-2.419,-2.419,-2.4098,-2.3823,-2.3162,-2.34,-2.3602,-2.2942,-2.2795,-2.2593,-2.1931,-2.1692,-2.1239,-2.0209,-1.9309,-1.8789,-1.9018,-1.886,-1.8734,-1.8734,-1.8734,-1.8807,-1.9035,-1.9018,-1.9002,-1.9002,-1.8949,-1.8843,-1.8604,-1.8391,-1.827,-1.827,-1.8057,-1.7949,-1.7949,-1.7856,-1.7811,-1.7811,-1.7526,-1.7392,-1.7368,-1.7027,-1.6738,-1.2775,-1.6516,-2.1235,-2.4495,-2.5303,-2.5303,-2.5303,-2.5303,-2.5303,-2.5303,-2.5303,-2.5303,-2.5303,-2.5303,-2.5303,-2.5303,-2.5303,-2.5303,-2.5303,-2.5303,-2.5303,-2.5303,-2.5303,-2.5303,-2.5303,-2.5354,-2.5371,-2.5293,-2.5354,-2.5363,-2.5293,-2.5303,-2.5303,-2.5303,-2.5274,-2.5264,-2.5264,-2.5243,-2.516,-2.4974,-2.4828,-2.4746,-2.4716,-2.4545,-2.4357,-2.419,-2.419,-2.419,-2.419,-2.419,-2.419,-2.4208,-2.4151,-2.417,-2.4151,-2.3774,-2.3671,-2.3692,-2.3692,-2.3671,-2.3692,-2.4016,-2.4094,-2.4074,-2.4074,-2.4094,-2.4113,-2.4113,-2.417,-2.419,-2.419,-2.3676,-2.3144,-2.3033,-2.2556,-2.2097,-2.1969,-2.1951,-2.1931,-2.1821,-2.1198,-2.0411,-1.9552,-1.9301,-1.9227,-1.9243,-1.9227,-1.9212,-1.9212,-1.9212,-1.9227,-1.9259,-1.9101,-1.9002,-1.9002,-1.8789,-1.8641,-1.8604,-1.8566,-1.8547,-1.8547,-1.8508,-1.8489,-1.8489,-1.8035,-1.7811,-1.7811,-1.7766,-1.7726,-1.7726,-1.7392,-1.7224,-1.346,-1.7549,-2.1677,-2.4572,-2.5303,-2.5303,-2.5303,-2.5303,-2.5303,-2.5303,-2.5303,-2.5303,-2.5303,-2.5303,-2.5303,-2.5303,-2.5303,-2.5303,-2.5303,-2.5303,-2.5303,-2.5303,-2.5303,-2.5303,-2.5303,-2.5363,-2.5383,-2.5354,-2.5383,-2.5391,-2.5354,-2.5322,-2.5303,-2.5303,-2.5303,-2.5303,-2.5303,-2.5303,-2.5203,-2.501,-2.4937,-2.4864,-2.479,-2.4591,-2.4444,-2.4357,-2.4247,-2.419,-2.419,-2.419,-2.419,-2.419,-2.419,-2.419,-2.417,-2.4036,-2.3976,-2.3976,-2.3976,-2.3976,-2.3996,-2.4151,-2.419,-2.419,-2.419,-2.419,-2.419,-2.419,-2.419,-2.4098,-2.3639,-2.3272,-2.2758,-2.1805,-2.1345,-2.0941,-2.0517,-2.0739,-2.0941,-2.0499,-2.0079,-1.9711,-1.9344,-1.9305,-1.9305,-1.9305,-1.9305,-1.9305,-1.9305,-1.9305,-1.9305,-1.9305,-1.923,-1.9166,-1.9166,-1.9066,-1.8981,-1.8981,-1.8896,-1.8825,-1.8825,-1.8678,-1.8585,-1.8585,-1.8371,-1.8166,-1.8035,-1.8035,-1.7949,-1.7811,-1.7658,-1.7479,-1.399,-1.7202,-1.9792,-2.3419,-2.4322,-2.4495,-2.5149,-2.5303,-2.5303,-2.5303,-2.5303,-2.5303,-2.5303,-2.5303,-2.5303,-2.5303,-2.5303,-2.5313,-2.5312,-2.5303,-2.5322,-2.5312,-2.534,-2.534,-2.5331,-2.5406,-2.5441,-2.5441,-2.5421,-2.5415,-2.5406,-2.5339,-2.5303,-2.5303,-2.5303,-2.5303,-2.5303,-2.5303,-2.5224,-2.5077,-2.5077,-2.5018,-2.4929,-2.4685,-2.4594,-2.4559,-2.4321,-2.419,-2.419,-2.419,-2.419,-2.419,-2.419,-2.419,-2.419,-2.419,-2.419,-2.419,-2.419,-2.419,-2.419,-2.419,-2.419,-2.419,-2.419,-2.419,-2.419,-2.419,-2.419,-2.4006,-2.3217,-2.285,-2.2318,-2.0851,-2.0338,-2.0042,-1.9418,-1.9767,-2.0023,-1.9418,-1.9305,-1.9305,-1.9305,-1.9305,-1.9305,-1.9305,-1.9305,-1.9305,-1.9305,-1.9305,-1.9305,-1.9305,-1.9305,-1.9305,-1.9305,-1.9305,-1.9305,-1.9305,-1.9166,-1.9086,-1.9086,-1.8878,-1.8682,-1.8467,-1.8467,-1.8428,-1.831,-1.8229,-1.81,-1.7905,-1.7833,-1.7658,-1.1509,-1.2425,-1.3503,-2.0062,-2.1696,-2.2331,-2.4745,-2.5303,-2.5303,-2.5303,-2.5303,-2.5303,-2.5303,-2.5303,-2.5303,-2.5303,-2.5303,-2.5331,-2.5395,-2.5339,-2.5312,-2.5391,-2.5386,-2.5379,-2.5391,-2.5517,-2.5561,-2.5489,-2.5484,-2.5477,-2.5394,-2.5339,-2.5303,-2.5303,-2.5303,-2.5303,-2.5303,-2.5303,-2.5284,-2.5274,-2.5274,-2.5274,-2.5253,-2.4923,-2.479,-2.476,-2.4375,-2.419,-2.419,-2.419,-2.419,-2.419,-2.419,-2.419,-2.419,-2.419,-2.419,-2.419,-2.419,-2.419,-2.419,-2.419,-2.419,-2.419,-2.419,-2.419,-2.419,-2.419,-2.419,-2.4006,-2.3217,-2.2428,-2.162,-2.0704,-1.9913,-1.9344,-1.9323,-1.9326,-1.9344,-1.9323,-1.9305,-1.9305,-1.9305,-1.9305,-1.9305,-1.9305,-1.9305,-1.9305,-1.9305,-1.9305,-1.9305,-1.9305,-1.9305,-1.9305,-1.9305,-1.9305,-1.9305,-1.9305,-1.9289,-1.9274,-1.9274,-1.9274,-1.8892,-1.8141,-1.8141,-1.8272,-1.8566,-1.833,-1.8187,-1.8166,-1.7927,-1.7789,-1.0302,-1.166,-1.3214,-1.7279,-1.9523,-2.11,-2.2543,-2.413,-2.5303,-2.5303,-2.5303,-2.5303,-2.5303,-2.5303,-2.5313,-2.5354,-2.5371,-2.5391,-2.5459,-2.5447,-2.5441,-2.5451,-2.5451,-2.5451,-2.5451,-2.5551,-2.5595,-2.5564,-2.5561,-2.552,-2.5477,-2.5406,-2.5348,-2.5313,-2.5303,-2.5303,-2.5303,-2.5303,-2.5303,-2.5303,-2.5303,-2.5303,-2.5293,-2.4949,-2.4804,-2.4775,-2.4375,-2.419,-2.419,-2.419,-2.419,-2.419,-2.419,-2.419,-2.419,-2.419,-2.419,-2.419,-2.419,-2.419,-2.419,-2.419,-2.419,-2.419,-2.419,-2.419,-2.419,-2.419,-2.3823,-2.3235,-2.2446,-2.1602,-2.0758,-1.9932,-1.951,-1.9305,-1.9305,-1.9305,-1.9305,-1.9305,-1.9305,-1.9305,-1.9305,-1.9305,-1.9305,-1.9305,-1.9305,-1.9305,-1.9305,-1.9305,-1.9305,-1.9305,-1.9305,-1.9305,-1.9305,-1.9305,-1.9305,-1.9305,-1.9305,-1.9069,-1.8555,-1.8537,-1.8151,-1.7348,-1.733,-1.7297,-1.7251,-1.7082,-1.6884,-1.6732,-1.6496,-1.639,-0.8619,-0.9941,-1.1733,-1.4841,-1.6484,-1.8119,-2.1235,-2.2812,-2.3938,-2.5072,-2.5303,-2.5303,-2.5303,-2.5322,-2.5357,-2.5391,-2.5415,-2.5465,-2.5511,-2.5503,-2.5517,-2.5539,-2.552,-2.552,-2.552,-2.5598,-2.5634,-2.5634,-2.5607,-2.557,-2.5543,-2.5453,-2.5371,-2.5293,-2.5303,-2.5303,-2.5303,-2.5303,-2.5303,-2.5303,-2.5303,-2.5303,-2.5303,-2.5,-2.4869,-2.4855,-2.4478,-2.4247,-2.419,-2.419,-2.419,-2.419,-2.419,-2.419,-2.419,-2.419,-2.419,-2.419,-2.419,-2.419,-2.419,-2.419,-2.419,-2.419,-2.419,-2.419,-2.419,-2.419,-2.3621,-2.2813,-2.2006,-2.0941,-1.9968,-1.9418,-1.9305,-1.932,-1.9398,-1.935,-1.9305,-1.9305,-1.9305,-1.9305,-1.9305,-1.9305,-1.9305,-1.9305,-1.9305,-1.9305,-1.9305,-1.9305,-1.9305,-1.9305,-1.935,-1.9365,-1.9305,-1.935,-1.9254,-1.8919,-1.8945,-1.8605,-1.7799,-1.7816,-1.7428,-1.6583,-1.6564,-1.6327,-1.5831,-1.615,-1.6219,-1.6045,-1.575,-1.5479,0.0,0.0,0.0,-1.2647,-1.2502,-1.3315,-2.0781,-2.1254,-2.11,-2.4457,-2.5149,-2.5168,-2.5274,-2.5354,-2.5406,-2.542,-2.5471,-2.5535,-2.5598,-2.5551,-2.5535,-2.5598,-2.5603,-2.5603,-2.5603,-2.566,-2.5703,-2.5703,-2.5636,-2.5603,-2.5601,-2.5463,-2.536,-2.5313,-2.5313,-2.5303,-2.5303,-2.5303,-2.5303,-2.5303,-2.5303,-2.5303,-2.5284,-2.5088,-2.501,-2.4986,-2.4666,-2.4393,-2.4209,-2.419,-2.419,-2.419,-2.419,-2.419,-2.419,-2.419,-2.419,-2.419,-2.419,-2.419,-2.419,-2.419,-2.419,-2.419,-2.419,-2.4171,-2.4153,-2.4153,-2.3566,-2.274,-2.1932,-2.0535,-1.9305,-1.9305,-1.9305,-1.9365,-1.9555,-1.9438,-1.932,-1.932,-1.932,-1.932,-1.932,-1.932,-1.932,-1.932,-1.932,-1.932,-1.932,-1.932,-1.932,-1.932,-1.9499,-1.9527,-1.9298,-1.9462,-1.9137,-1.8143,-1.8194,-1.7901,-1.7101,-1.718,-1.6817,-1.5874,-1.5856,-1.541,-1.4488,-1.5672,-1.6232,-1.6216,-1.5758,-1.5213,-0.5637,0.0,0.0,0.0,0.0,0.0,-1.3937,-1.5623,-1.7574,-2.0985,-2.1669,-2.2434,-2.4919,-2.5421,-2.5498,-2.5543,-2.5558,-2.5598,-2.5661,-2.5659,-2.5658,-2.5662,-2.5662,-2.5662,-2.5662,-2.5683,-2.5703,-2.5703,-2.5683,-2.5658,-2.5603,-2.5477,-2.5391,-2.5379,-2.5331,-2.5303,-2.5303,-2.5303,-2.5303,-2.5303,-2.5303,-2.5303,-2.5284,-2.5088,-2.501,-2.4998,-2.4814,-2.4591,-2.441,-2.4266,-2.419,-2.419,-2.419,-2.419,-2.419,-2.419,-2.419,-2.419,-2.419,-2.419,-2.419,-2.419,-2.419,-2.419,-2.419,-2.3786,-2.3327,-2.3327,-2.2299,-2.1015,-2.0189,-1.9654,-1.9335,-1.9485,-1.9513,-1.9569,-1.9713,-1.9713,-1.9657,-1.9657,-1.9657,-1.9657,-1.9657,-1.9657,-1.9657,-1.9657,-1.9657,-1.9657,-1.9657,-1.9657,-1.9657,-1.9657,-1.9713,-1.9469,-1.879,-1.877,-1.8451,-1.7576,-1.7554,-1.7169,-1.6276,-1.6273,-1.5856,-1.4906,-1.4887,-1.4754,-1.4488,-1.4697,-1.4717,-1.4553,-1.4177,-1.3917,-0.5974,-0.654,-0.7475,-0.7449,0.0,0.0,-1.3237,-1.4682,-1.6614,-2.1469,-2.2475,-2.3089,-2.5066,-2.5503,-2.5554,-2.5598,-2.5611,-2.5659,-2.5683,-2.5703,-2.5703,-2.5703,-2.5703,-2.5703,-2.5703,-2.5703,-2.5703,-2.5703,-2.5703,-2.5662,-2.5603,-2.5508,-2.5421,-2.5406,-2.533,-2.5303,-2.5303,-2.5303,-2.5303,-2.5303,-2.5303,-2.5303,-2.5303,-2.5173,-2.5141,-2.5099,-2.4896,-2.4731,-2.4591,-2.4321,-2.419,-2.419,-2.419,-2.419,-2.419,-2.419,-2.4247,-2.4339,-2.4339,-2.4375,-2.4444,-2.4444,-2.4393,-2.4339,-2.4409,-2.3766,-2.3033,-2.3103,-2.1854,-2.0301,-1.951,-1.935,-1.9438,-1.9569,-1.9649,-1.9713,-1.9858,-1.989,-1.9869,-1.9802,-1.979,-1.979,-1.979,-1.979,-1.979,-1.979,-1.979,-1.979,-1.979,-1.979,-1.9658,-1.9307,-1.9325,-1.9014,-1.8087,-1.8046,-1.7717,-1.6863,-1.6818,-1.6451,-1.5555,-1.5518,-1.5254,-1.4685,-1.4603,-1.4515,-1.4375,-1.4175,-1.3941,-1.3698,-1.3495,-1.3346,-0.7049,-0.7674,-0.8824,-0.8663,-0.7655,0.0,-1.4911,-1.5387,-1.6233,-2.2512,-2.3796,-2.3913,-2.4306,-2.4502,-2.4566,-2.4471,-2.4918,-2.5371,-2.5664,-2.5703,-2.5703,-2.5703,-2.5703,-2.5703,-2.5703,-2.5703,-2.5703,-2.5703,-2.5703,-2.5662,-2.5607,-2.5551,-2.5473,-2.5408,-2.5357,-2.5303,-2.5303,-2.5303,-2.5303,-2.5303,-2.5303,-2.5303,-2.5303,-2.5303,-2.5303,-2.5274,-2.4975,-2.4828,-2.4785,-2.4409,-2.4247,-2.419,-2.419,-2.419,-2.419,-2.419,-2.4321,-2.4461,-2.4495,-2.4607,-2.4775,-2.479,-2.4613,-2.4396,-2.4584,-2.3747,-2.2739,-2.2831,-2.1657,-2.0207,-1.9504,-1.9471,-1.9596,-1.9636,-1.9738,-1.9858,-2.0003,-2.0031,-1.9993,-1.9888,-1.9866,-1.9866,-1.9866,-1.9866,-1.9866,-1.9866,-1.9866,-1.9866,-1.9866,-1.976,-1.942,-1.8642,-1.8621,-1.8288,-1.73,-1.7311,-1.6986,-1.6064,-1.6058,-1.5754,-1.5033,-1.4995,-1.4954,-1.4886,-1.4747,-1.4519,-1.4162,-1.3983,-1.3741,-1.3413,-1.3413,-1.326,-0.8105,-0.7695,-0.7773,-0.7069,-0.7694,0.0,-0.7722,-0.8405,-0.9942,-1.2626,-1.3199,-1.4027,-1.6784,-1.7869,-1.8141,-1.7497,-2.0332,-2.3359,-2.541,-2.5703,-2.5703,-2.5703,-2.5703,-2.5703,-2.5703,-2.5703,-2.5703,-2.5703,-2.5703,-2.5683,-2.5683,-2.5629,-2.5551,-2.5473,-2.5415,-2.5354,-2.5303,-2.5303,-2.5303,-2.5303,-2.5303,-2.5303,-2.5303,-2.5303,-2.5303,-2.5303,-2.5233,-2.5107,-2.4949,-2.4756,-2.4495,-2.419,-2.419,-2.419,-2.419,-2.419,-2.4228,-2.4284,-2.4444,-2.4528,-2.4594,-2.4746,-2.4238,-2.3542,-2.3571,-2.237,-2.0868,-2.0252,-1.9832,-1.9537,-1.9536,-1.9569,-1.9643,-1.9869,-1.9934,-2.0003,-2.0197,-2.0241,-2.0233,-2.0208,-2.0208,-2.0208,-2.0208,-2.0208,-2.0208,-2.0208,-2.0208,-2.0208,-2.0208,-1.9594,-1.9096,-1.8915,-1.8306,-1.7565,-1.673,-1.6675,-1.631,-1.5427,-1.5383,-1.5286,-1.5014,-1.4995,-1.4923,-1.4747,-1.4603,-1.4344,-1.3955,-1.3927,-1.3783,-1.3572,-1.3462,-1.3363,-0.916,-0.8672,-0.8887,-0.8457,-0.834,0.0,0.0,-0.8965,-0.9844,-1.283,-1.31,-1.3451,-1.5604,-1.5994,-1.6014,-1.6035,-1.8984,-2.123,-2.1211,-2.3809,-2.5703,-2.5703,-2.5703,-2.5703,-2.5703,-2.5703,-2.5703,-2.5703,-2.5703,-2.5703,-2.5703,-2.5636,-2.5564,-2.5493,-2.5441,-2.5379,-2.5303,-2.5303,-2.5303,-2.5303,-2.5303,-2.5303,-2.5303,-2.5303,-2.5303,-2.5284,-2.5184,-2.5099,-2.4986,-2.4756,-2.4545,-2.4339,-2.4247,-2.419,-2.419,-2.419,-2.4339,-2.4512,-2.4607,-2.4756,-2.4847,-2.4555,-2.4031,-2.3483,-2.3158,-2.2048,-2.0725,-1.9791,-1.954,-1.9567,-1.9663,-1.975,-1.9836,-1.9973,-2.0078,-2.0188,-2.0277,-2.0312,-2.0312,-2.0312,-2.0312,-2.0312,-2.0312,-2.0312,-2.0312,-2.0312,-1.9927,-1.9638,-1.9638,-1.8895,-1.8203,-1.7811,-1.7369,-1.6753,-1.5926,-1.5849,-1.5676,-1.5228,-1.5189,-1.5177,-1.5095,-1.5035,-1.4914,-1.4688,-1.4635,-1.4428,-1.4038,-1.3955,-1.3754,-1.3493,-1.3429,-1.3396,-1.0273,-1.002,-1.0645,-0.9961,-0.9238,-0.916,0.0,0.0,0.0,-1.3816,-1.3916,-1.3625,-1.4342,-1.4033,-1.3843,-1.4373,-1.7068,-1.8241,-1.5801,-2.0371,-2.3965,-2.3965,-2.498,-2.5508,-2.5019,-2.541,-2.5703,-2.5703,-2.5703,-2.5703,-2.5703,-2.5658,-2.5595,-2.5511,-2.544,-2.5391,-2.5322,-2.5322,-2.5303,-2.5303,-2.5303,-2.5303,-2.5303,-2.5303,-2.5303,-2.5284,-2.5141,-2.5065,-2.5022,-2.4697,-2.4561,-2.4526,-2.4284,-2.419,-2.419,-2.4247,-2.4461,-2.476,-2.4814,-2.4917,-2.4908,-2.4293,-2.3744,-2.3179,-2.246,-2.1665,-2.0847,-2.0032,-1.979,-1.9821,-1.9824,-1.9922,-2.0012,-2.006,-2.0169,-2.0312,-2.0312,-2.0312,-2.0312,-2.0312,-2.0158,-2.0042,-2.0042,-2.0042,-1.9985,-1.9831,-1.9196,-1.8742,-1.8742,-1.801,-1.7215,-1.6561,-1.6349,-1.5965,-1.5266,-1.5189,-1.5189,-1.5189,-1.5189,-1.5189,-1.5189,-1.5061,-1.4906,-1.4747,-1.4697,-1.4519,-1.4188,-1.4038,-1.3786,-1.3429,-1.3413,-1.3396,-1.1504,-1.1348,-1.1855,-0.877,-1.0176,-1.1191,-0.6951,0.0,-0.7691,-0.6628,0.0,-0.6295,-0.6392,0.0,0.0,-0.6532,-1.0514,-1.3055,-1.1287,-1.4899,-1.7713,-1.7715,-2.2441,-2.4805,-2.2559,-2.4375,-2.5703,-2.5703,-2.5703,-2.5703,-2.5703,-2.5683,-2.566,-2.5595,-2.5511,-2.5459,-2.5383,-2.5321,-2.5303,-2.5303,-2.5303,-2.5303,-2.5303,-2.5303,-2.5303,-2.5303,-2.5274,-2.5264,-2.5243,-2.4896,-2.476,-2.4731,-2.4339,-2.419,-2.4228,-2.441,-2.4495,-2.4575,-2.4872,-2.4541,-2.3976,-2.4072,-2.2968,-2.1403,-2.0429,-2.0063,-1.9945,-1.9839,-1.979,-1.9824,-1.9953,-2.0003,-2.0041,-2.0214,-2.0285,-2.0312,-2.0312,-2.0312,-2.0312,-2.0312,-1.9677,-1.9146,-1.9146,-1.9146,-1.8895,-1.81,-1.7914,-1.7856,-1.7856,-1.7138,-1.6599,-1.6503,-1.5811,-1.5305,-1.5209,-1.5189,-1.5189,-1.5189,-1.5189,-1.5189,-1.5189,-1.5008,-1.4894,-1.4886,-1.4635,-1.4422,-1.4188,-1.4175,-1.3955,-1.357,-1.3462,-1.3396,-1.1246,-1.1873,-1.2889,-0.9941,-1.0684,-1.1172,-0.7456,-0.6398,-0.6119,-0.5851,0.0,0.0,0.0,0.0,0.0,0.0,-0.8922,-1.0529,-0.8352,-1.2593,-1.5954,-1.5957,-1.8184,-2.0098,-2.1055,-2.2109,-2.3555,-2.5547,-2.3867,-2.3613,-2.5586,-2.5703,-2.5662,-2.5603,-2.5567,-2.5531,-2.5465,-2.5428,-2.5427,-2.5427,-2.5427,-2.5398,-2.5363,-2.5363,-2.5339,-2.5303,-2.5303,-2.5303,-2.5264,-2.4942,-2.4804,-2.4775,-2.4478,-2.4375,-2.4393,-2.4461,-2.4339,-2.4109,-2.4245,-2.3834,-2.3141,-2.2737,-2.1739,-2.0631,-2.0222,-2.0088,-2.0088,-2.0088,-2.0088,-2.0098,-2.0152,-2.0169,-2.0197,-2.0277,-2.0312,-2.0312,-2.0312,-2.0312,-2.0158,-1.9638,-1.9242,-1.8684,-1.7722,-1.7933,-1.8126,-1.776,-1.7292,-1.7003,-1.7003,-1.6272,-1.5753,-1.5753,-1.5426,-1.5189,-1.5189,-1.5189,-1.5189,-1.5189,-1.5189,-1.5189,-1.5189,-1.504,-1.4933,-1.4904,-1.4707,-1.4537,-1.4375,-1.4257,-1.4123,-1.3941,-1.3771,-1.368,-1.214,-1.2987,-1.395,-1.0467,-1.0409,-1.0466,-0.7628,-0.6541,-0.6168,-0.6282,-0.6376,0.0,0.0,0.0,0.0,0.0,0.0,-0.8676,-0.6366,-1.0026,-1.2923,-1.2929,-1.3789,-1.5625,-1.8867,-1.9766,-2.1191,-2.375,-2.1269,-2.1309,-2.5137,-2.5332,-2.5429,-2.5613,-2.5605,-2.559,-2.5535,-2.5517,-2.5493,-2.5493,-2.5493,-2.5468,-2.5428,-2.5428,-2.5398,-2.5321,-2.534,-2.5322,-2.5264,-2.4942,-2.4804,-2.4775,-2.4575,-2.4379,-2.4238,-2.4286,-2.3931,-2.3454,-2.3518,-2.3045,-2.2293,-2.1446,-2.0773,-2.0312,-2.0312,-2.0312,-2.0312,-2.0312,-2.0312,-2.0312,-2.0312,-2.0312,-2.0312,-2.0312,-2.0312,-2.0312,-2.0312,-2.0312,-2.0042,-1.9165,-1.8819,-1.8184,-1.6753,-1.6984,-1.7292,-1.7042,-1.6522,-1.6138,-1.6138,-1.5599,-1.5189,-1.5189,-1.5189,-1.5189,-1.5189,-1.5189,-1.5189,-1.5189,-1.5189,-1.5189,-1.5189,-1.5075,-1.4962,-1.4904,-1.4766,-1.4635,-1.4488,-1.4362,-1.4282,-1.4282,-1.4011,-1.3913,-1.526,-1.5174,-1.5112,-0.9239,-0.9027,-0.9354,-0.596,-0.7039,-0.8306,-0.6643,-0.8192,-0.9363,-0.7757,0.0,0.0,0.0,0.0,0.0,0.0,0.0,0.0,0.0,0.0,0.0,-1.5312,-1.7617,-1.9102,-1.9473,-1.8086,-1.9336,-2.418,-2.4434,-2.4824,-2.5664,-2.5634,-2.5601,-2.5601,-2.5539,-2.5493,-2.5493,-2.5493,-2.5508,-2.5508,-2.5508,-2.5471,-2.5406,-2.5398,-2.5354,-2.5264,-2.4942,-2.4804,-2.4775,-2.4575,-2.4105,-2.3549,-2.3752,-2.3279,-2.2577,-2.2767,-2.2274,-2.1408,-2.06,-2.0331,-2.0312,-2.0312,-2.0312,-2.0312,-2.0312,-2.0312,-2.0312,-2.0312,-2.0312,-2.0312,-2.0312,-2.0312,-2.0312,-2.0312,-2.0312,-2.0042,-1.9165,-1.8318,-1.7491,-1.6638,-1.6522,-1.6253,-1.5407,-1.5266,-1.5228,-1.5228,-1.5209,-1.5189,-1.5189,-1.5189,-1.5189,-1.5189,-1.5189,-1.5189,-1.5189,-1.5189,-1.5189,-1.5189,-1.5075,-1.4962,-1.4904,-1.4766,-1.4635,-1.4488,-1.4488,-1.4488,-1.4476,-1.4078,-1.3913,-1.6976,-1.8174,-1.8489,-1.25,-1.2289,-1.2241,-0.7125,-0.749,-0.8403,-0.6663,-0.8268,-0.9491,-0.781,0.0,0.0,0.0,0.0,0.0,0.0,0.0,0.0,0.0,0.0,0.0,0.0,0.0,-1.6718,-1.9121,-1.8301,-1.9414,-2.332,-2.4082,-2.4531,-2.4824,-2.539,-2.5661,-2.5661,-2.5637,-2.5634,-2.5634,-2.5634,-2.5605,-2.5564,-2.5564,-2.5513,-2.5406,-2.5406,-2.5363,-2.5274,-2.503,-2.4924,-2.4873,-2.4276,-2.3556,-2.2923,-2.3553,-2.2974,-2.177,-2.1314,-2.0946,-2.0658,-2.0389,-2.0312,-2.0312,-2.0312,-2.0312,-2.0312,-2.0312,-2.0312,-2.0312,-2.0312,-2.0312,-2.0312,-2.0312,-2.0312,-2.0312,-2.0312,-2.0312,-2.0042,-1.9165,-1.8299,-1.7446,-1.6638,-1.6064,-1.5598,-1.5259,-1.5189,-1.5212,-1.526,-1.5265,-1.5265,-1.5265,-1.5265,-1.525,-1.5195,-1.5189,-1.5189,-1.5189,-1.5189,-1.5189,-1.5189,-1.5075,-1.4992,-1.4981,-1.4794,-1.4687,-1.4635,-1.4545,-1.4488,-1.4506,-1.4362,-1.4295,-1.9347,-2.0314,-2.0347,-1.5224,-1.4801,-1.4294,-0.9218,-0.9616,-1.055,-0.8818,-0.9749,-1.0852,-1.0877,0.0,0.0,0.0,0.0,0.0,0.0,-0.543,0.0,0.0,0.0,0.0,0.0,0.0,0.0,0.0,0.0,0.0,0.0,-2.3477,-2.4082,-2.4394,-2.5254,-2.5703,-2.5703,-2.5703,-2.5703,-2.5703,-2.5703,-2.5683,-2.5634,-2.5634,-2.5558,-2.5434,-2.5434,-2.5383,-2.5274,-2.5088,-2.501,-2.4915,-2.4102,-2.3271,-2.2547,-2.2849,-2.2182,-2.1004,-2.0485,-2.0296,-2.0299,-2.03,-2.0296,-2.0299,-2.03,-2.0312,-2.0312,-2.0312,-2.0312,-2.0312,-2.0312,-2.0312,-2.0312,-2.0312,-2.0312,-2.0312,-2.0312,-2.0296,-1.9959,-1.8795,-1.8146,-1.7416,-1.6275,-1.5631,-1.5291,-1.5245,-1.5236,-1.5245,-1.5288,-1.5292,-1.5292,-1.5292,-1.5291,-1.5275,-1.522,-1.5189,-1.5189,-1.5189,-1.5189,-1.5189,-1.5189,-1.5127,-1.5042,-1.4995,-1.4863,-1.4785,-1.4776,-1.4635,-1.4578,-1.4578,-1.4522,-1.4488]},{"header":{"parameterUnit":"m.s-1","parameterCategory":1,"la1":30.6,"la2":29.2853,"lo1":-89.7004,"lo2":-87.6739,"dx":0.0162,"dy":0.0183,"nx":112,"ny":82,"refTime":"2022-12-08T18:00:00:Z","depth":0,"parameterNumber":3,"parameterNumberName":"V-component_of_WINDS"},"data":[0.0,0.0,0.0,0.0,0.0,0.0,0.0,0.0,0.0,0.0,0.0,0.0,0.0,0.0,0.0,0.0,0.0,0.0,0.0,0.0,0.0,0.0,0.0,0.0,0.0,0.0,0.0,0.0,0.0,0.0,0.0,0.0,0.0,0.0,0.0,0.0,0.0,0.0,0.0,0.0,0.0,0.0,0.0,0.0,0.0,0.0,0.0,0.0,0.0,0.0,0.0,0.0,0.0,0.0,0.0,0.0,0.0,0.0,0.0,0.0,0.0,0.0,0.0,0.0,0.0,0.0,0.0,0.0,0.0,0.0,0.0,0.0,0.0,0.0,0.0,0.0,0.0,0.0,0.0,0.0,0.0,0.0,0.0,0.0,0.0,0.0,0.0,0.0,0.0,0.0,-1.1921,-1.3176,-1.3195,-1.2619,-1.1499,-1.1895,-1.1236,-0.8894,0.0,0.0,0.0,0.0,0.0,0.0,0.0,0.0,0.0,0.0,0.0,0.0,0.0,0.0,0.0,0.0,0.0,0.0,0.0,0.0,0.0,0.0,0.0,0.0,0.0,0.0,0.0,0.0,0.0,0.0,0.0,0.0,0.0,0.0,0.0,0.0,0.0,0.0,0.0,0.0,0.0,0.0,0.0,0.0,0.0,0.0,0.0,0.0,0.0,0.0,0.0,0.0,0.0,0.0,0.0,0.0,0.0,0.0,0.0,0.0,0.0,0.0,0.0,0.0,0.0,0.0,0.0,0.0,0.0,0.0,0.0,0.0,0.0,0.0,0.0,0.0,0.0,0.0,0.0,0.0,0.0,0.0,0.0,0.0,0.0,0.0,0.0,0.0,0.0,0.0,0.0,0.0,0.0,0.0,0.0,0.0,0.0,0.0,0.0,0.0,0.0,0.0,0.0,0.0,-1.2253,-1.4923,-1.4721,-1.4318,-1.4122,-1.4215,-1.3126,-1.0517,0.0,0.0,0.0,0.0,0.0,0.0,0.0,0.0,0.0,0.0,0.0,0.0,0.0,0.0,0.0,0.0,0.0,0.0,0.0,0.0,0.0,0.0,0.0,0.0,0.0,0.0,0.0,0.0,0.0,0.0,0.0,0.0,0.0,0.0,0.0,0.0,0.0,0.0,0.0,0.0,0.0,0.0,0.0,0.0,0.0,0.0,0.0,0.0,0.0,0.0,0.0,0.0,0.0,0.0,0.0,0.0,0.0,0.0,0.0,0.0,0.0,0.0,0.0,0.0,0.0,0.0,0.0,0.0,0.0,0.0,0.0,0.0,0.0,0.0,0.0,0.0,0.0,0.0,0.0,0.0,0.0,0.0,0.0,0.0,0.0,0.0,0.0,0.0,0.0,0.0,0.0,0.0,0.0,0.0,0.0,0.0,0.0,0.0,0.0,0.0,0.0,0.0,0.0,-1.2581,-1.363,-1.5782,-1.5531,-1.505,-1.4744,-1.4698,-1.3569,-1.0862,-0.9608,0.0,0.0,0.0,0.0,0.0,0.0,0.0,0.0,0.0,0.0,0.0,0.0,0.0,0.0,0.0,0.0,0.0,0.0,0.0,0.0,0.0,0.0,0.0,0.0,0.0,0.0,0.0,0.0,0.0,0.0,0.0,0.0,0.0,0.0,0.0,0.0,0.0,0.0,0.0,0.0,0.0,0.0,0.0,0.0,0.0,0.0,0.0,0.0,0.0,0.0,0.0,0.0,0.0,0.0,0.0,0.0,0.0,0.0,0.0,0.0,0.0,0.0,0.0,0.0,0.0,0.0,0.0,0.0,0.0,0.0,0.0,0.0,0.0,0.0,0.0,0.0,0.0,0.0,0.0,0.0,0.0,0.0,0.0,0.0,0.0,0.0,0.0,0.0,0.0,0.0,0.0,0.0,0.0,0.0,0.0,0.0,0.0,0.0,0.0,0.0,0.0,0.0,-1.4994,-1.5645,-1.651,-1.6232,-1.5764,-1.5152,-1.5107,-1.3941,-1.1097,-0.9867,0.0,0.0,0.0,0.0,0.0,0.0,0.0,0.0,0.0,0.0,0.0,0.0,0.0,0.0,0.0,0.0,0.0,0.0,0.0,0.0,0.0,0.0,0.0,0.0,0.0,0.0,0.0,0.0,0.0,0.0,0.0,0.0,0.0,0.0,0.0,0.0,0.0,0.0,0.0,0.0,0.0,0.0,0.0,0.0,0.0,0.0,0.0,0.0,0.0,0.0,0.0,0.0,0.0,0.0,0.0,0.0,0.0,0.0,0.0,0.0,0.0,0.0,0.0,0.0,0.0,0.0,0.0,0.0,0.0,0.0,0.0,0.0,0.0,0.0,0.0,0.0,0.0,0.0,0.0,0.0,0.0,0.0,0.0,0.0,0.0,0.0,0.0,0.0,0.0,0.0,0.0,0.0,0.0,0.0,0.0,0.0,0.0,0.0,0.0,0.0,0.0,0.0,-1.6313,-1.8222,-1.7327,-1.7175,-1.698,-1.6423,-1.638,-1.4985,-1.1727,-1.0573,0.0,0.0,0.0,0.0,0.0,0.0,0.0,0.0,0.0,0.0,0.0,0.0,0.0,0.0,0.0,0.0,0.0,0.0,0.0,0.0,0.0,0.0,0.0,0.0,0.0,0.0,0.0,0.0,0.0,0.0,0.0,0.0,0.0,0.0,0.0,0.0,0.0,0.0,0.0,0.0,0.0,0.0,0.0,0.0,0.0,0.0,0.0,0.0,0.0,0.0,0.0,0.0,0.0,0.0,0.0,0.0,0.0,0.0,0.0,0.0,0.0,0.0,0.0,0.0,0.0,0.0,0.0,0.0,0.0,0.0,0.0,0.0,0.0,0.0,0.0,0.0,0.0,0.0,0.0,0.0,0.0,0.0,0.0,0.0,0.0,0.0,0.0,0.0,0.0,0.0,0.0,0.0,0.0,0.0,0.0,0.0,0.0,0.0,0.0,0.0,0.0,0.0,-1.5585,-1.7406,-1.8215,-1.7706,-1.7229,-1.7034,-1.668,-1.5142,-1.2002,0.0,0.0,0.0,0.0,0.0,0.0,0.0,0.0,0.0,0.0,0.0,0.0,0.0,0.0,0.0,0.0,0.0,0.0,0.0,0.0,0.0,0.0,0.0,0.0,0.0,0.0,0.0,0.0,0.0,0.0,0.0,0.0,0.0,0.0,0.0,0.0,0.0,0.0,0.0,0.0,0.0,0.0,0.0,0.0,0.0,0.0,0.0,0.0,0.0,0.0,0.0,0.0,0.0,0.0,0.0,0.0,0.0,0.0,0.0,0.0,0.0,0.0,0.0,0.0,0.0,0.0,0.0,0.0,0.0,0.0,0.0,0.0,0.0,0.0,0.0,0.0,0.0,0.0,0.0,0.0,0.0,0.0,0.0,0.0,0.0,0.0,0.0,0.0,0.0,0.0,0.0,0.0,0.0,0.0,0.0,0.0,0.0,0.0,0.0,0.0,0.0,0.0,-1.3466,-1.5786,-1.7606,-1.8786,-1.8263,-1.7747,-1.7585,-1.7229,-1.5542,-1.2042,0.0,0.0,0.0,0.0,0.0,0.0,0.0,0.0,0.0,0.0,0.0,0.0,0.0,0.0,0.0,0.0,0.0,0.0,0.0,0.0,0.0,0.0,0.0,0.0,0.0,0.0,0.0,0.0,0.0,0.0,0.0,0.0,0.0,0.0,0.0,0.0,0.0,0.0,0.0,0.0,0.0,0.0,0.0,0.0,0.0,0.0,0.0,0.0,0.0,0.0,0.0,0.0,0.0,0.0,0.0,0.0,0.0,0.0,0.0,0.0,0.0,0.0,0.0,0.0,0.0,0.0,0.0,0.0,0.0,0.0,0.0,0.0,0.0,0.0,0.0,0.0,0.0,0.0,0.0,0.0,0.0,0.0,0.0,0.0,0.0,0.0,0.0,0.0,0.0,0.0,0.0,0.0,0.0,0.0,0.0,0.0,0.0,0.0,0.0,0.0,0.0,0.0,-1.363,-1.7251,-1.9479,-1.8968,-1.8893,-1.8688,-1.8145,-1.8106,-1.6261,0.0,0.0,0.0,0.0,0.0,0.0,0.0,0.0,0.0,0.0,0.0,0.0,0.0,0.0,0.0,0.0,0.0,0.0,0.0,0.0,0.0,0.0,0.0,0.0,0.0,0.0,0.0,0.0,0.0,0.0,0.0,0.0,0.0,0.0,0.0,0.0,0.0,0.0,0.0,0.0,0.0,0.0,0.0,0.0,0.0,0.0,0.0,0.0,0.0,0.0,0.0,0.0,0.0,0.0,0.0,0.0,0.0,0.0,0.0,0.0,0.0,0.0,0.0,0.0,0.0,0.0,0.0,0.0,0.0,0.0,0.0,0.0,0.0,0.0,0.0,0.0,0.0,0.0,0.0,0.0,0.0,0.0,0.0,0.0,0.0,0.0,0.0,0.0,0.0,0.0,0.0,0.0,0.0,0.0,0.0,0.0,0.0,0.0,0.0,0.0,0.0,0.0,0.0,-1.3828,-1.733,-1.9639,-1.9479,-1.9132,-1.8855,-1.8688,-1.8341,-1.6332,-1.216,0.0,0.0,0.0,0.0,0.0,0.0,0.0,0.0,0.0,0.0,0.0,0.0,0.0,0.0,0.0,0.0,0.0,0.0,0.0,0.0,0.0,0.0,0.0,0.0,0.0,0.0,0.0,0.0,0.0,0.0,0.0,0.0,0.0,0.0,0.0,0.0,0.0,0.0,0.0,0.0,0.0,0.0,0.0,0.0,0.0,0.0,0.0,0.0,0.0,0.0,0.0,0.0,0.0,0.0,0.0,0.0,0.0,0.0,0.0,0.0,0.0,0.0,0.0,0.0,0.0,0.0,0.0,0.0,0.0,0.0,0.0,0.0,0.0,0.0,0.0,0.0,0.0,0.0,0.0,0.0,0.0,0.0,0.0,0.0,0.0,0.0,0.0,0.0,0.0,0.0,0.0,0.0,0.0,0.0,0.0,0.0,0.0,0.0,0.0,0.0,0.0,0.0,-1.387,-1.7362,-1.969,-1.969,-1.9406,-1.9207,-1.9207,-1.893,-1.7254,-1.3733,0.0,0.0,0.0,0.0,0.0,0.0,0.0,0.0,0.0,0.0,0.0,0.0,0.0,0.0,0.0,0.0,0.0,0.0,0.0,0.0,0.0,0.0,0.0,0.0,0.0,0.0,0.0,0.0,0.0,0.0,0.0,0.0,0.0,0.0,0.0,0.0,0.0,0.0,0.0,0.0,0.0,0.0,0.0,0.0,0.0,0.0,0.0,0.0,0.0,0.0,0.0,0.0,0.0,0.0,0.0,0.0,0.0,0.0,0.0,0.0,0.0,0.0,0.0,0.0,0.0,0.0,0.0,0.0,0.0,0.0,0.0,0.0,0.0,0.0,0.0,0.0,0.0,0.0,0.0,0.0,0.0,0.0,0.0,0.0,0.0,0.0,0.0,0.0,0.0,0.0,0.0,0.0,0.0,0.0,0.0,0.0,0.0,0.0,0.0,0.0,0.0,0.0,-1.3864,-1.7346,-1.969,-1.969,-1.969,-1.969,-1.969,-1.969,-1.8568,-1.5963,0.0,0.0,0.0,0.0,0.0,0.0,0.0,0.0,0.0,0.0,0.0,0.0,0.0,0.0,0.0,0.0,0.0,0.0,0.0,0.0,0.0,0.0,0.0,0.0,0.0,0.0,0.0,0.0,0.0,0.0,0.0,0.0,0.0,0.0,0.0,0.0,0.0,0.0,0.0,0.0,0.0,0.0,0.0,0.0,0.0,0.0,0.0,0.0,0.0,0.0,0.0,0.0,0.0,0.0,0.0,0.0,0.0,0.0,0.0,0.0,-0.7383,-0.6357,0.0,0.0,0.0,0.0,0.0,0.0,0.0,0.0,0.0,0.0,0.0,0.0,0.0,0.0,0.0,0.0,0.0,0.0,0.0,0.0,0.0,0.0,0.0,0.0,0.0,0.0,0.0,0.0,0.0,0.0,0.0,0.0,0.0,0.0,0.0,0.0,0.0,0.0,0.0,0.0,-1.4039,-1.7425,-1.969,-1.969,-1.969,-1.969,-1.969,-1.969,-1.8568,-1.5963,-1.5557,0.0,0.0,0.0,0.0,0.0,0.0,0.0,0.0,0.0,0.0,0.0,0.0,0.0,0.0,0.0,0.0,0.0,0.0,0.0,0.0,0.0,0.0,0.0,0.0,0.0,0.0,0.0,0.0,0.0,0.0,0.0,0.0,0.0,0.0,0.0,0.0,0.0,0.0,0.0,0.0,0.0,0.0,0.0,0.0,0.0,0.0,0.0,0.0,0.0,0.0,0.0,0.0,0.0,0.0,0.0,0.0,0.0,0.0,0.0,-0.8486,-0.7842,0.0,0.0,0.0,0.0,0.0,0.0,0.0,0.0,0.0,0.0,0.0,0.0,0.0,0.0,0.0,0.0,0.0,0.0,0.0,0.0,0.0,0.0,0.0,0.0,0.0,0.0,0.0,0.0,0.0,0.0,0.0,0.0,0.0,0.0,0.0,0.0,0.0,0.0,0.0,0.0,-1.439,-1.7759,-2.0,-2.0,-1.9818,-1.969,-1.969,-1.969,-1.9106,-1.7777,-1.6855,0.0,0.0,0.0,0.0,0.0,0.0,0.0,0.0,0.0,0.0,0.0,0.0,0.0,0.0,0.0,0.0,0.0,0.0,0.0,0.0,0.0,0.0,0.0,0.0,0.0,0.0,0.0,0.0,0.0,0.0,0.0,0.0,0.0,0.0,0.0,0.0,0.0,0.0,0.0,0.0,0.0,0.0,0.0,0.0,0.0,0.0,0.0,0.0,0.0,0.0,0.0,0.0,0.0,-0.9404,-0.9678,-0.9678,-0.9678,-1.0254,-1.1172,-0.9775,-0.9665,-1.0254,-0.8496,0.0,0.0,0.0,0.0,0.0,0.0,0.0,0.0,0.0,0.0,0.0,0.0,0.0,0.0,0.0,0.0,0.0,0.0,0.0,0.0,0.0,0.0,-1.2722,-1.4217,-1.5257,-1.5517,-1.4148,0.0,0.0,0.0,0.0,0.0,0.0,0.0,0.0,0.0,0.0,0.0,-1.5244,-1.8374,-2.0416,-2.0416,-2.0139,-1.9874,-1.9803,-1.9803,-1.9803,-1.9803,-1.8161,-1.709,0.0,0.0,0.0,0.0,0.0,0.0,0.0,0.0,0.0,0.0,0.0,0.0,0.0,0.0,0.0,0.0,0.0,0.0,0.0,0.0,0.0,0.0,0.0,0.0,0.0,0.0,0.0,0.0,0.0,0.0,0.0,0.0,-0.2784,-0.4044,0.0,0.0,0.0,0.0,0.0,0.0,0.0,0.0,0.0,0.0,0.0,0.0,0.0,-0.8475,-0.8849,-1.004,-1.0635,-1.0586,-1.1797,-1.2373,-1.2373,-1.2373,-1.2461,-1.2607,-1.2383,0.0,-1.0811,-1.0527,0.0,0.0,0.0,0.0,0.0,0.0,0.0,0.0,0.0,0.0,0.0,0.0,0.0,0.0,0.0,0.0,0.0,0.0,0.0,0.0,0.0,0.0,-1.7885,-1.8698,-1.8996,-1.9111,-1.9249,-1.6122,-1.3005,-1.2065,-1.2175,-1.1728,0.0,0.0,0.0,0.0,0.0,0.0,-1.7412,-1.9651,-2.0894,-2.0894,-2.0862,-2.0665,-2.0246,-2.0212,-2.0212,-2.0212,-2.0319,-1.9675,-1.8127,-1.7446,0.0,0.0,0.0,0.0,0.0,0.0,0.0,0.0,0.0,0.0,0.0,0.0,0.0,0.0,0.0,0.0,0.0,0.0,0.0,0.0,0.0,0.0,0.0,0.0,0.0,0.0,0.0,0.0,0.0,-0.202,-0.2733,-0.3759,-0.3532,-0.3494,0.0,0.0,0.0,0.0,0.0,0.0,0.0,0.0,0.0,-0.9839,-0.9878,-1.0311,-1.1172,-1.1738,-1.2012,-1.2021,-1.2607,-1.2881,-1.2881,-1.2881,-1.2881,-1.2881,-1.2881,-1.2549,-1.1963,-1.1221,-1.0394,-0.9604,0.0,0.0,0.0,0.0,-0.9767,-1.0006,-1.1693,-1.226,-1.2241,-1.2217,0.0,0.0,0.0,0.0,0.0,0.0,0.0,-1.2924,-1.5606,-1.6921,-1.7921,-1.9346,-1.969,-1.9803,-2.0212,-1.8935,-1.7162,-1.5397,-1.4556,-1.3129,-0.9855,-1.0454,0.0,0.0,0.0,-1.6303,-1.8367,-2.0205,-2.1337,-2.1337,-2.1118,-2.0926,-2.0715,-2.0682,-2.0682,-2.0682,-2.1118,-2.0991,-2.0188,-1.8642,-1.6707,0.0,0.0,0.0,0.0,0.0,0.0,0.0,0.0,0.0,0.0,0.0,0.0,0.0,0.0,0.0,0.0,0.0,0.0,0.0,0.0,0.0,0.0,0.0,0.0,0.0,0.0,0.0,0.0,-0.2659,-0.3128,-0.3969,-0.4076,-0.4108,0.0,0.0,0.0,0.0,0.0,0.0,-0.8036,-0.8647,-0.9686,-1.1377,-1.1416,-1.1885,-1.2871,-1.2881,-1.2881,-1.2881,-1.2881,-1.2881,-1.2881,-1.2881,-1.2881,-1.2881,-1.2881,-1.2881,-1.2803,-1.1816,-1.1632,-1.1894,-1.1116,-1.0993,-1.1394,-1.1989,-1.2247,-1.2486,-1.4148,-1.4714,-1.4727,-1.4647,-1.4449,-1.4009,-1.2986,0.0,0.0,0.0,0.0,-1.4363,-1.6816,-1.7458,-1.7832,-1.9331,-1.9782,-1.9965,-2.0382,-2.0543,-2.0116,-1.8491,-1.747,-1.5702,-1.2019,-1.3126,0.0,-1.25,-1.5443,-1.8285,-1.9604,-2.0966,-2.1794,-2.1794,-2.1507,-2.1291,-2.115,-2.115,-2.115,-2.115,-2.143,-2.1658,-2.1764,-1.9974,-1.8636,-1.7944,0.0,0.0,0.0,0.0,0.0,0.0,0.0,0.0,0.0,0.0,0.0,0.0,0.0,0.0,0.0,0.0,0.0,0.0,0.0,0.0,0.0,0.0,0.0,0.0,0.0,0.0,0.0,0.0,0.0,-0.5522,-0.5996,0.0,0.0,0.0,0.0,-0.6129,-0.6448,-0.7425,-0.9325,-0.9672,-1.0754,-1.2744,-1.2783,-1.2812,-1.2881,-1.2881,-1.2881,-1.2881,-1.2881,-1.2881,-1.2881,-1.2881,-1.2881,-1.2881,-1.2881,-1.2881,-1.2871,-1.2812,-1.2562,-1.2195,-1.2118,-1.1872,-1.1776,-1.338,-1.3959,-1.4198,-1.5819,-1.6396,-1.6384,-1.6358,-1.5659,-1.4902,-1.558,-1.4674,0.0,0.0,-1.6517,-1.698,-1.9016,-1.954,-1.9555,-1.966,-2.0,-2.0382,-2.0862,-2.0192,-1.9848,-2.1121,-2.169,-2.1184,-1.8809,0.0,-1.7794,-1.8352,-1.8082,-1.886,-2.1769,-2.2215,-2.2254,-2.2254,-2.2254,-2.2032,-2.1628,-2.1552,-2.1552,-2.1552,-2.1582,-2.1794,-2.2254,-2.213,-2.0875,-1.8322,-1.8133,0.0,0.0,0.0,0.0,0.0,0.0,0.0,0.0,0.0,0.0,0.0,0.0,0.0,0.0,0.0,0.0,0.0,0.0,0.0,0.0,0.0,0.0,0.0,0.0,0.0,0.0,0.0,0.0,-0.5989,-0.6169,0.0,-0.6222,-0.6628,-0.6942,-0.7014,-0.8053,-0.8964,-0.9657,-1.0196,-1.0998,-1.2169,-1.2187,-1.2403,-1.2881,-1.2881,-1.2881,-1.2881,-1.2881,-1.2881,-1.2881,-1.2881,-1.2881,-1.2881,-1.2881,-1.2881,-1.2881,-1.2881,-1.305,-1.3245,-1.3641,-1.3967,-1.4283,-1.5284,-1.563,-1.5718,-1.6308,-1.6522,-1.6552,-1.6909,-1.7209,-1.7472,-1.7777,-1.77,-1.7665,-1.8414,-1.8627,-1.8807,-1.9495,-1.969,-1.969,-1.969,-1.9818,-2.0035,-2.0449,-2.0496,-2.0675,-2.1453,-2.1189,-2.0255,-1.8504,-1.9587,-2.0145,-1.8454,-1.9638,-2.1092,-2.2175,-2.231,-2.231,-2.231,-2.231,-2.2237,-2.2061,-2.2032,-2.2032,-2.2032,-2.2032,-2.2135,-2.2282,-2.231,-2.1932,-2.1142,-2.1472,-1.9559,0.0,0.0,0.0,0.0,0.0,0.0,0.0,0.0,0.0,0.0,0.0,0.0,0.0,0.0,0.0,0.0,0.0,0.0,0.0,0.0,0.0,0.0,0.0,0.0,0.0,-0.5741,-0.6383,-0.6465,-0.683,-0.6972,-0.666,-0.7341,-0.783,-0.7936,-0.8912,-0.9562,-0.9762,-1.0218,-1.0771,-1.1466,-1.1665,-1.2021,-1.251,-1.2774,-1.2881,-1.2881,-1.2881,-1.2881,-1.2881,-1.2881,-1.2881,-1.2881,-1.2881,-1.2881,-1.2881,-1.2881,-1.3238,-1.3862,-1.4468,-1.505,-1.5676,-1.6281,-1.6522,-1.6522,-1.6522,-1.6522,-1.6595,-1.7105,-1.7907,-1.865,-1.8855,-1.9281,-1.969,-1.969,-1.969,-1.969,-1.969,-1.969,-1.969,-1.969,-1.9803,-2.0035,-2.0449,-2.0878,-2.1323,-2.1764,-2.1256,-2.0458,-1.9502,-2.0991,-2.1549,-1.9299,-2.0873,-2.2226,-2.1955,-2.2158,-2.231,-2.231,-2.231,-2.231,-2.231,-2.16,-2.1481,-2.226,-2.1583,-2.1515,-2.2276,-2.1593,-2.1345,-2.1649,-2.221,-2.0136,-1.5347,0.0,0.0,0.0,0.0,0.0,0.0,0.0,0.0,0.0,0.0,0.0,0.0,0.0,0.0,0.0,0.0,0.0,0.0,0.0,0.0,0.0,0.0,0.0,-0.6539,-0.6837,-0.7045,-0.7029,-0.8054,-0.8464,-0.7595,-0.8297,-0.8804,-0.8804,-0.8804,-0.9061,-0.971,-0.9762,-1.0064,-1.0771,-1.1416,-1.1765,-1.1814,-1.2501,-1.2881,-1.2881,-1.2881,-1.2881,-1.2881,-1.2881,-1.2881,-1.2881,-1.2881,-1.2881,-1.2881,-1.2881,-1.3238,-1.3815,-1.4468,-1.505,-1.5676,-1.6281,-1.6522,-1.6522,-1.6522,-1.6522,-1.6595,-1.7118,-1.7626,-1.8185,-1.8688,-1.9244,-1.969,-1.969,-1.969,-1.969,-1.969,-1.969,-1.969,-1.969,-2.0,-2.0416,-2.0862,-2.1306,-2.1718,-2.218,-2.2282,-2.231,-2.231,-2.231,-2.2073,-2.1329,-2.1837,0.0,-2.1339,-2.1854,-2.2293,-2.2243,-2.2243,-2.2243,-2.2243,-2.0196,-1.9908,-2.2175,-2.023,-1.9993,-2.2226,-2.0313,-1.9376,-1.9741,-2.021,-1.9614,-1.7863,0.0,0.0,0.0,0.0,0.0,0.0,0.0,0.0,0.0,0.0,0.0,0.0,0.0,0.0,0.0,0.0,0.0,0.0,0.0,0.0,0.0,-0.507,-0.6043,-0.6158,-0.74,-0.8101,-0.7559,-0.8287,-0.8495,-0.7731,-0.8345,-0.8804,-0.8804,-0.8804,-0.8857,-0.9061,-0.9061,-0.9361,-1.0064,-1.0261,-1.0813,-1.1814,-1.1972,-1.2344,-1.2881,-1.2881,-1.2881,-1.2881,-1.2881,-1.2881,-1.2881,-1.2881,-1.2881,-1.2881,-1.2881,-1.3017,-1.3238,-1.4294,-1.505,-1.5676,-1.6281,-1.6522,-1.6522,-1.6522,-1.6522,-1.6522,-1.668,-1.7076,-1.7626,-1.8185,-1.8688,-1.9207,-1.9603,-1.969,-1.969,-1.969,-1.969,-1.969,-1.969,-1.9782,-1.9965,-2.0382,-2.0846,-2.1275,-2.1705,-2.2077,-2.231,-2.231,-2.231,-2.2243,-2.204,-2.2175,-2.2243,-2.2023,-2.2175,-2.186,-2.0745,-2.0627,-2.0627,-2.0627,-2.0052,-2.045,-2.2209,-2.1718,-2.1651,-2.2276,-2.191,-2.206,-2.277,-2.0761,-1.953,0.0,0.0,0.0,0.0,0.0,0.0,0.0,0.0,0.0,0.0,0.0,0.0,0.0,0.0,0.0,0.0,0.0,0.0,0.0,0.0,0.0,0.0,-0.5054,-0.5809,-0.5809,-0.7017,-0.7723,-0.7289,-0.7883,-0.8156,-0.7723,-0.8476,-0.8985,-0.8985,-0.9105,-0.9178,-0.9178,-0.9178,-0.9275,-0.956,-0.9943,-1.0682,-1.166,-1.2075,-1.2563,-1.3145,-1.3145,-1.3047,-1.2881,-1.2881,-1.2881,-1.2881,-1.2881,-1.2881,-1.2881,-1.2881,-1.3065,-1.3334,0.0,0.0,0.0,0.0,-1.6522,-1.6522,-1.6522,-1.6522,-1.6522,-1.6522,-1.6879,-1.7394,-1.7947,-1.8458,-1.9006,-1.9566,-1.969,-1.969,-1.969,-1.969,-1.969,-1.969,-1.969,-1.9839,-2.0449,-2.0797,-2.1197,-2.1764,-2.2106,0.0,-2.231,-2.231,-2.2209,-2.1887,-2.2107,-2.2192,-2.187,-2.2124,-2.1972,-2.1049,-2.0948,-2.0948,-2.0948,-2.0086,0.0,0.0,0.0,-2.1164,-2.1368,-2.1523,0.0,0.0,0.0,-2.047,-2.1714,-1.9838,0.0,0.0,-2.0915,-1.8838,0.0,0.0,0.0,0.0,0.0,0.0,0.0,0.0,0.0,0.0,0.0,0.0,0.0,0.0,0.0,0.0,-0.4786,-0.5487,-0.5378,-0.5928,-0.6372,-0.648,-0.7257,-0.7711,-0.7657,-0.8612,-0.9236,-0.9236,-0.9532,-0.9686,-0.9686,-0.9686,0.0,0.0,0.0,-1.0931,-1.1531,-1.2356,-1.3075,-1.3574,-1.3525,-1.3311,-1.2949,-1.29,-1.2881,-1.2881,-1.2881,-1.2881,-1.2881,-1.2881,-1.3238,-1.3732,-1.3909,-1.4329,-1.4926,-1.6064,-1.6522,-1.6522,-1.6522,0.0,0.0,-1.6522,-1.6837,-1.7312,-1.7867,-1.838,-1.893,-1.9442,-1.9639,-1.969,-1.969,-1.969,-1.9711,-1.9747,-1.9782,-2.0015,-2.0862,-2.1055,-2.1323,-2.2152,-2.231,-2.231,-2.231,-2.231,-2.209,-2.1414,-2.187,-2.2073,-2.1397,-2.1904,-2.2243,-2.2073,-2.2057,0.0,-2.2057,-2.0196,-1.9959,-2.2175,-2.0715,-1.9981,-2.0478,-2.0514,-2.0733,-2.1179,-2.1002,-2.209,-2.4461,-2.4495,-2.4495,-2.4362,-1.8662,-1.7552,0.0,0.0,0.0,0.0,0.0,0.0,0.0,0.0,0.0,0.0,0.0,0.0,0.0,0.0,0.0,-0.4042,-0.4815,-0.5328,-0.4787,-0.4791,-0.5113,-0.5651,-0.7125,-0.7868,-0.7247,-0.8675,-0.9599,-0.9599,-0.9653,-0.9686,-0.9686,-0.9686,-0.9659,-0.9599,-0.9768,-1.0486,-1.1795,-1.2028,-1.2751,-1.3951,-1.3672,0.0,-1.3379,-1.3037,-1.2881,-1.2881,-1.2881,-1.2881,-1.2881,-1.2881,-1.2978,-1.32,-1.4687,-1.5309,-1.5499,-1.6238,-1.6522,-1.6522,-1.6522,-1.6522,-1.6522,-1.6522,-1.6552,-1.6752,-1.7312,-1.7827,0.0,-1.8893,-1.9369,-1.969,-1.969,-1.969,-1.9782,-2.0089,-2.0177,-2.0416,-2.1306,-2.1491,-2.1628,-2.218,-2.231,-2.231,-2.231,-2.231,-2.226,-2.2124,-2.2226,-2.226,-2.2124,-2.2226,-2.1809,-2.0576,-2.0441,-2.0441,-2.0441,-2.0035,-2.0508,-2.2209,-2.2151,-2.2353,-2.2986,-2.3007,-2.3168,-2.3548,-2.3492,-2.3731,-2.4266,-2.4428,-2.4495,-2.4474,-2.3385,-2.3224,0.0,0.0,0.0,0.0,0.0,0.0,0.0,0.0,0.0,0.0,0.0,-0.4252,-0.4069,0.0,-0.4413,-0.4258,-0.4685,-0.4897,-0.4574,-0.4584,-0.4907,-0.5682,-0.69,-0.7529,-0.7238,-0.8828,-0.9715,-0.9279,-0.9786,-1.012,-1.012,-1.012,-1.0053,-0.9907,-1.0047,-1.0804,-1.224,-1.2365,-1.3112,-1.4463,-1.4248,-1.3916,-1.3496,-1.3291,-1.3076,-1.2881,-1.2881,-1.2881,-1.2881,-1.2881,-1.2881,-1.3017,-1.4236,-1.4869,-1.5276,-1.6151,-1.6522,-1.6522,-1.6522,-1.6522,-1.6522,-1.6522,-1.6522,-1.6595,-1.7146,-1.7666,-1.8224,-1.8727,-1.9281,-1.969,-1.969,-1.969,-1.9818,-2.0212,-2.0314,-2.0534,-2.1413,-2.1582,-2.1718,-2.2209,-2.231,-2.231,-2.231,-2.231,-2.231,-2.231,-2.231,-2.231,-2.231,-2.231,-2.2006,-2.1218,-2.1133,-2.1133,-2.1133,-2.1133,-2.1518,-2.2422,-2.2634,-2.2923,-2.3414,-2.361,-2.3774,-2.3955,-2.4113,-2.4113,-2.3937,-2.4229,-2.4173,-2.3866,-2.4118,-2.4386,0.0,0.0,0.0,0.0,0.0,0.0,0.0,-0.4755,-0.5126,-0.5186,-0.486,-0.461,-0.4676,-0.4354,-0.4185,-0.4477,-0.4543,-0.4563,-0.4563,-0.4636,-0.5148,-0.6214,-0.6861,-0.7343,-0.7579,-0.9162,-0.9888,-0.9186,-1.0032,-1.0624,-1.0624,-1.0624,-1.0448,-1.0207,-1.0434,-1.1298,-1.2647,-1.2868,-1.3637,-1.4902,-1.4824,-1.4424,-1.375,-1.3672,-1.3398,-1.2998,-1.291,-1.2881,-1.2881,-1.2881,-1.2881,-1.2968,-1.3552,-1.4097,-1.4652,-1.5744,-1.6151,-1.6151,-1.6281,-1.6337,-1.6324,-1.6479,-1.6522,-1.6595,-1.6993,-1.7585,-1.8185,-1.8612,-1.9207,-1.969,-1.969,-1.9747,-1.9909,-2.0364,-2.0449,-2.0649,-2.143,-2.1582,-2.1688,-2.1974,-2.2106,-2.2135,-2.2049,-2.2106,-2.218,-2.2282,-2.231,-2.231,-2.231,-2.231,-2.231,-2.231,-2.231,-2.231,-2.231,-2.231,-2.2415,-2.2686,-2.2695,-2.2848,-2.3189,-2.3459,-2.3588,-2.3588,-2.3876,-2.3876,-2.3588,-2.3858,-2.3714,-2.3212,-2.3477,-2.3862,-0.0883,-0.1796,-0.2793,-0.3874,-0.4147,-0.4543,0.0,-0.6054,-0.5815,-0.5535,-0.5439,-0.5194,-0.4616,-0.4467,-0.4477,-0.4512,-0.4575,-0.4663,-0.4663,-0.4796,-0.554,-0.7272,-0.7604,-0.7926,-0.876,-0.9886,-1.0508,-1.0382,-1.0541,-1.0624,-1.0624,-1.0624,-1.0611,-1.0577,-1.0604,-1.1344,-1.2951,-1.2992,-1.3768,-1.5342,-1.4961,-1.4736,-1.4629,-1.4238,-1.3828,-1.3418,-1.3047,-1.2881,-1.2881,-1.2881,-1.2881,-1.2968,-1.3552,-1.3815,-1.3956,-1.4652,-1.488,-1.4971,-1.5499,-1.572,-1.5776,-1.6337,-1.6522,-1.6522,-1.6552,-1.7312,-1.8106,-1.8185,-1.893,-1.969,-1.969,-1.9965,-2.0348,-2.0829,-2.0926,-2.1055,-2.1491,-2.1582,-2.1491,-2.1181,-2.1446,-2.1568,-2.1197,-2.143,-2.1823,-2.2237,-2.231,-2.231,-2.231,-2.231,-2.231,-2.231,-2.231,-2.231,-2.231,-2.231,-2.2443,-2.2764,-2.2738,-2.2848,-2.3189,-2.3253,-2.3277,-2.3277,-2.3282,-2.3282,-2.3277,-2.3282,-2.3259,-2.3189,-2.3236,-2.3459,-0.1406,-0.2641,-0.3678,-0.4064,-0.4441,-0.5012,-0.6102,-0.6232,-0.6142,-0.6124,-0.5814,-0.5269,-0.4625,-0.4519,-0.4519,-0.4519,-0.4592,-0.4691,-0.4691,-0.4894,-0.5677,-0.7484,-0.7797,-0.8202,-0.9103,-1.0034,-1.0364,-0.9849,-1.0301,-1.0624,-1.0624,-1.0624,-1.0624,-1.0624,-1.0624,-1.1358,-1.3009,-1.3009,-1.3795,-1.541,-1.5234,-1.5029,-1.4775,-1.46,-1.4141,-1.3496,-1.332,-1.3105,-1.2881,-1.2881,-1.2881,-1.2929,-1.32,-1.3286,-1.3382,-1.434,-1.4698,-1.4789,-1.541,-1.5588,-1.572,-1.6281,-1.6522,-1.6522,-1.6522,-1.7229,-1.8106,-1.8106,-1.8855,-1.969,-1.969,-1.9803,-2.007,-2.0483,-2.0583,-2.0715,-2.115,-2.1244,-2.1213,-2.1023,-2.1134,-2.1213,-2.1039,-2.115,-2.1323,-2.1524,-2.1991,-2.231,-2.231,-2.231,-2.2209,-2.1928,-2.1675,-2.1554,-2.1554,-2.1554,-2.1688,-2.2079,-2.2091,-2.2258,-2.266,-2.2815,-2.2923,-2.2923,-2.3093,-2.3093,-2.2923,-2.3093,-2.3014,-2.2686,-2.284,-2.2996,-0.2035,-0.325,-0.4212,-0.4303,-0.4766,-0.5414,-0.6137,-0.6166,-0.6063,-0.6279,-0.571,-0.5058,-0.457,-0.4519,-0.4532,-0.4573,-0.4653,-0.4769,-0.4806,-0.5033,-0.5826,-0.7583,-0.7925,-0.8415,-0.953,-1.0238,-1.0364,-0.9722,-1.0238,-1.0624,-1.0624,-1.0624,-1.0624,-1.0624,-1.0624,-1.1358,-1.3009,-1.3009,-1.3795,-1.541,-1.541,-1.5254,-1.4951,-1.4834,-1.4453,-1.3857,-1.373,-1.3437,-1.3057,-1.3057,-1.2988,-1.2881,-1.2881,-1.2881,-1.3017,-1.3884,-1.4201,-1.4294,-1.5096,-1.5365,-1.5466,-1.6238,-1.6522,-1.6522,-1.6522,-1.7229,-1.8106,-1.8106,-1.8855,-1.969,-1.969,-1.9782,-1.9929,-2.0212,-2.0314,-2.0382,-2.0715,-2.0715,-2.0583,-2.0434,-2.0418,-2.0335,-2.0234,-2.0302,-2.0436,-2.0601,-2.1259,-2.1777,-2.1915,-2.1945,-2.1811,-2.146,-2.1181,-2.0991,-2.0991,-2.0991,-2.1118,-2.1399,-2.143,-2.1645,-2.2106,-2.2303,-2.2459,-2.2573,-2.2832,-2.2832,-2.2599,-2.2832,-2.2738,-2.231,-2.25,-2.2599,-0.2551,-0.3421,-0.4365,-0.4944,-0.5267,-0.5697,-0.6406,-0.6023,-0.5534,-0.5538,-0.5003,-0.4515,-0.4519,-0.4519,-0.4567,-0.466,-0.4813,-0.4958,-0.5098,-0.5254,-0.6005,-0.7757,-0.8021,-0.8672,-1.0364,-1.0561,-1.0561,-1.0561,-1.0561,-1.0624,-1.0624,-1.0624,-1.0624,-1.0624,-1.0624,-1.1358,-1.3009,-1.3009,-1.3795,-1.541,-1.541,-1.54,-1.5381,-1.4971,-1.4775,-1.4727,-1.4297,-1.3824,-1.3486,-1.3486,-1.3252,-1.2881,-1.2881,-1.2881,-1.2881,-1.2929,-1.2978,-1.3113,-1.434,-1.4744,-1.4926,-1.6107,-1.6522,-1.6522,-1.6522,-1.7229,-1.8106,-1.8106,-1.8855,-1.969,-1.969,-2.0,-2.028,-2.0314,-2.0314,-2.0299,-2.0314,-1.9974,-1.9513,-1.9066,-1.891,-1.8717,-1.8288,-1.8555,-1.9053,-1.957,-1.9997,-2.0471,-2.0975,-2.1039,-2.1023,-2.1023,-2.1007,-2.0991,-2.0991,-2.0991,-2.1007,-2.1023,-2.1023,-2.1213,-2.1582,-2.1612,-2.1853,-2.231,-2.2338,-2.2338,-2.231,-2.2338,-2.231,-2.231,-2.231,-2.231,-0.315,-0.3839,-0.4457,-0.478,-0.4927,-0.5144,-0.574,-0.5328,-0.4948,-0.5433,-0.4948,-0.4519,-0.4519,-0.4519,-0.457,-0.4667,-0.4819,-0.4969,-0.5111,-0.5264,-0.6013,-0.7767,-0.8027,-0.8672,-1.0428,-1.0624,-1.0624,-1.0624,-1.0624,-1.0624,-1.0624,-1.0624,-1.0624,-1.0624,-1.0624,-1.1358,-1.3009,-1.3009,-1.3795,-1.541,-1.541,-1.541,-1.541,-1.5264,-1.5049,-1.4775,-1.4629,-1.416,-1.3506,-1.3506,-1.3262,-1.2881,-1.2881,-1.2881,-1.2881,-1.2881,-1.2881,-1.3065,-1.4294,-1.4698,-1.4892,-1.6107,-1.6522,-1.6522,-1.6522,-1.7229,-1.8106,-1.8106,-1.8855,-1.969,-1.969,-1.9536,-1.9346,-1.9346,-1.9111,-1.8835,-1.8835,-1.8736,-1.8545,-1.8405,-1.8352,-1.8274,-1.8145,-1.8235,-1.8391,-1.8584,-1.9823,-2.0797,-2.0991,-2.0731,-2.055,-2.055,-2.0311,-2.0139,-2.0139,-2.0139,-2.0243,-2.0516,-2.055,-2.0748,-2.1181,-2.1213,-2.1399,-2.1823,-2.184,-2.2003,-2.231,-2.231,-2.231,-2.231,-2.231,-2.231,-0.3792,-0.4232,-0.4579,-0.4735,-0.4731,-0.4779,-0.5117,-0.4827,-0.4625,-0.5054,-0.4743,-0.4402,-0.4508,-0.4519,-0.4587,-0.4738,-0.4945,-0.5108,-0.5199,-0.5602,-0.6477,-0.7842,-0.8291,-0.9005,-1.0428,-1.0624,-1.0624,-1.0624,-1.0624,-1.0624,-1.0624,-1.0624,-1.0624,-1.0624,-1.0624,-1.1358,-1.3009,-1.3009,-1.3795,-1.541,-1.541,-1.541,-1.541,-1.541,-1.5264,-1.501,-1.501,-1.4619,-1.3955,-1.3799,-1.3486,-1.3096,-1.2939,-1.2881,-1.2881,-1.2881,-1.3065,-1.3382,-1.434,-1.4698,-1.4892,-1.6107,-1.6522,-1.6522,-1.6522,-1.7105,-1.7867,-1.8066,-1.8612,-1.9169,-1.9369,-1.9006,-1.8612,-1.8612,-1.8341,-1.8106,-1.8106,-1.7947,-1.7827,-1.7827,-1.7666,-1.7544,-1.7544,-1.7706,-1.7827,-1.7827,-1.903,-1.9978,-1.9978,-1.9869,-1.9814,-1.9814,-1.9752,-1.969,-1.969,-1.969,-1.9803,-2.007,-2.0089,-2.0296,-2.0731,-2.0764,-2.1023,-2.1582,-2.1582,-2.1823,-2.231,-2.231,-2.231,-2.231,-2.231,-2.231,-0.4314,-0.4599,-0.4748,-0.4894,-0.4819,-0.4711,-0.4694,-0.4579,-0.4525,-0.4512,-0.4338,-0.422,-0.4402,-0.4488,-0.4538,-0.4847,-0.5145,-0.5411,-0.5425,-0.6281,-0.7194,-0.7922,-0.8748,-0.9658,-1.0498,-1.0624,-1.0631,-1.0645,-1.0645,-1.0638,-1.0624,-1.0638,-1.0701,-1.0681,-1.0681,-1.1483,-1.307,-1.313,-1.3914,-1.541,-1.541,-1.541,-1.541,-1.541,-1.541,-1.541,-1.541,-1.5176,-1.4756,-1.4336,-1.3906,-1.3467,-1.3066,-1.29,-1.2881,-1.2881,-1.3238,-1.3826,-1.4422,-1.4698,-1.4926,-1.6107,-1.6522,-1.6522,-1.6522,-1.6879,-1.7435,-1.7907,-1.8066,-1.8224,-1.8727,-1.8458,-1.8066,-1.8066,-1.8027,-1.8027,-1.8027,-1.7626,-1.7271,-1.7271,-1.6837,-1.6522,-1.6522,-1.6909,-1.7271,-1.7271,-1.7706,-1.8027,-1.8106,-1.8535,-1.8855,-1.8893,-1.9369,-1.969,-1.969,-1.969,-1.969,-1.969,-1.969,-1.9874,-2.0246,-2.028,-2.0667,-2.1552,-2.1552,-2.1794,-2.231,-2.231,-2.231,-2.231,-2.231,-2.231,-0.4683,-0.4908,-0.503,-0.5067,-0.5047,-0.4962,-0.4741,-0.466,-0.4568,-0.4348,-0.413,-0.4056,-0.3975,-0.4056,-0.4229,-0.4531,-0.4833,-0.5108,-0.5394,-0.6176,-0.7034,-0.7902,-0.8748,-0.9658,-1.0498,-1.0624,-1.0648,-1.0868,-1.0882,-1.0788,-1.0631,-1.1383,-1.1709,-1.1476,-1.2089,-1.2879,-1.3906,-1.451,-1.4991,-1.541,-1.541,-1.541,-1.541,-1.541,-1.541,-1.541,-1.541,-1.5176,-1.4775,-1.4668,-1.418,-1.3496,-1.3389,-1.3154,-1.2881,-1.2881,-1.3017,-1.32,-1.3826,-1.4641,-1.5499,-1.6238,-1.6522,-1.6522,-1.6522,-1.6879,-1.7353,-1.7463,-1.7787,-1.8145,-1.8263,-1.7907,-1.7504,-1.7504,-1.7188,-1.6909,-1.6909,-1.6795,-1.671,-1.671,-1.6595,-1.6522,-1.6522,-1.6595,-1.671,-1.671,-1.6837,-1.7188,-1.7987,-1.8224,-1.8458,-1.8855,-1.9006,-1.9281,-1.969,-1.969,-1.969,-1.969,-1.969,-1.9747,-1.9839,-1.9839,-2.0261,-2.115,-2.115,-2.1524,-2.231,-2.231,-2.231,-2.231,-2.231,-2.231,-0.487,-0.5074,-0.5233,-0.5233,-0.5135,-0.4975,-0.4745,-0.4589,-0.4412,-0.4111,-0.3931,-0.3782,-0.3626,-0.4164,-0.4727,-0.4915,-0.5426,-0.5948,-0.6453,-0.6995,-0.7673,-0.8495,-0.9326,-1.0047,-1.0555,-1.0624,-1.0681,-1.0969,-1.0995,-1.0982,-1.0942,-1.1414,-1.1797,-1.1989,-1.2282,-1.3061,-1.4213,-1.4991,-1.541,-1.541,-1.541,-1.541,-1.541,-1.541,-1.541,-1.541,-1.541,-1.5283,-1.5049,-1.4863,-1.4502,-1.4033,-1.3652,-1.3359,-1.3135,-1.2949,-1.3065,-1.3334,-1.3684,-1.4411,-1.5276,-1.5908,-1.6281,-1.6522,-1.6522,-1.671,-1.6993,-1.7229,-1.7353,-1.7463,-1.7706,-1.7162,-1.6629,-1.6909,-1.6527,-1.6194,-1.6423,-1.6522,-1.6522,-1.6522,-1.6522,-1.6522,-1.6522,-1.6522,-1.6522,-1.6522,-1.6522,-1.671,-1.7312,-1.7827,-1.8224,-1.8535,-1.8968,-1.9369,-1.969,-1.969,-1.969,-1.969,-1.969,-1.969,-1.969,-1.969,-2.0015,-2.0682,-2.0682,-2.1118,-2.2003,-2.2003,-2.2106,-2.231,-2.231,-2.231,-0.461,-0.4814,-0.509,-0.516,-0.4957,-0.4716,-0.4731,-0.446,-0.4107,-0.3829,-0.3632,-0.3476,-0.3303,-0.4353,-0.5254,-0.5306,-0.6125,-0.7025,-0.7712,-0.8129,-0.8583,-0.9233,-1.0047,-1.0624,-1.0624,-1.0624,-1.0759,-1.1022,-1.1049,-1.1156,-1.141,-1.1323,-1.1593,-1.2447,-1.2344,-1.2923,-1.4332,-1.505,-1.541,-1.541,-1.541,-1.541,-1.541,-1.541,-1.541,-1.541,-1.541,-1.541,-1.5381,-1.5019,-1.4834,-1.4707,-1.3906,-1.3555,-1.3457,-1.3037,-1.3238,-1.3684,-1.3684,-1.4097,-1.4698,-1.5365,-1.5952,-1.638,-1.6479,-1.6522,-1.6595,-1.7076,-1.6879,-1.6595,-1.7076,-1.6403,-1.572,-1.6238,-1.5908,-1.5644,-1.6238,-1.6423,-1.6522,-1.6522,-1.6522,-1.6522,-1.6522,-1.6522,-1.6522,-1.6522,-1.6522,-1.6522,-1.6522,-1.7394,-1.8027,-1.8106,-1.9006,-1.9603,-1.969,-1.969,-1.969,-1.969,-1.969,-1.969,-1.969,-1.9747,-1.9929,-2.028,-2.0348,-2.0797,-2.1582,-2.1582,-2.1823,-2.231,-2.231,-2.231,-0.2889,-0.3015,-0.3345,-0.4082,-0.411,-0.4139,-0.4572,-0.446,-0.4076,-0.3704,-0.3395,-0.3191,-0.3125,-0.343,-0.3844,-0.4367,-0.5426,-0.6358,-0.6854,-0.8192,-0.9127,-0.928,-1.0047,-1.0624,-1.0624,-1.0624,-1.0782,-1.1309,-1.1349,-1.1369,-1.1423,-1.2055,-1.2821,-1.3839,-1.4478,-1.4923,-1.5177,-1.5352,-1.541,-1.541,-1.541,-1.541,-1.541,-1.541,-1.541,-1.541,-1.541,-1.541,-1.54,-1.5332,-1.5098,-1.4736,-1.4228,-1.3818,-1.3457,-1.3037,-1.2978,-1.3065,-1.3065,-1.3467,-1.4143,-1.5219,-1.5676,-1.5864,-1.6337,-1.6522,-1.6522,-1.6595,-1.6552,-1.6522,-1.6595,-1.6126,-1.5632,-1.572,-1.5287,-1.5017,-1.5632,-1.6139,-1.6522,-1.6522,-1.6522,-1.6522,-1.6522,-1.6522,-1.6522,-1.6522,-1.6522,-1.6522,-1.6522,-1.7034,-1.7626,-1.8066,-1.865,-1.9207,-1.9639,-1.969,-1.969,-1.969,-1.969,-1.969,-1.969,-2.0035,-2.0212,-2.0314,-2.0682,-2.1118,-2.1582,-2.1582,-2.1823,-2.231,-2.231,-2.231,-0.2509,-0.26,-0.2881,-0.3663,-0.3778,-0.3795,-0.4223,-0.4168,-0.3863,-0.3337,-0.3113,-0.2961,-0.2801,-0.3536,-0.4208,-0.4502,-0.5806,-0.7057,-0.7787,-0.8728,-0.9466,-0.9913,-1.0364,-1.0624,-1.0624,-1.0759,-1.0902,-1.1182,-1.1483,-1.1724,-1.1877,-1.2816,-1.3372,-1.3571,-1.4746,-1.541,-1.541,-1.541,-1.541,-1.541,-1.541,-1.541,-1.541,-1.541,-1.541,-1.541,-1.541,-1.541,-1.541,-1.541,-1.5293,-1.5049,-1.4394,-1.3951,-1.376,-1.3115,-1.2881,-1.2881,-1.2881,-1.3104,-1.3515,-1.4744,-1.532,-1.572,-1.6337,-1.6522,-1.6522,-1.6522,-1.6522,-1.6423,-1.6095,-1.5599,-1.5141,-1.5141,-1.5141,-1.532,-1.5964,-1.6293,-1.6522,-1.6522,-1.6522,-1.6522,-1.6522,-1.6522,-1.6522,-1.6522,-1.6522,-1.6522,-1.6522,-1.6951,-1.7504,-1.8027,-1.8574,-1.9132,-1.9639,-1.969,-1.969,-1.969,-1.969,-1.969,-1.969,-1.9874,-2.0,-2.0,-2.0208,-2.0532,-2.0927,-2.0927,-2.1165,-2.1615,-2.184,-2.1811,-0.1995,-0.2053,-0.2288,-0.3048,-0.3294,-0.336,-0.3682,-0.3781,-0.3588,-0.3025,-0.2883,-0.2798,-0.262,-0.3622,-0.4537,-0.4701,-0.6127,-0.7628,-0.8554,-0.9176,-0.9781,-1.0485,-1.0624,-1.0624,-1.0624,-1.0768,-1.0922,-1.0989,-1.1536,-1.2009,-1.2394,-1.3385,-1.3687,-1.3277,-1.4628,-1.541,-1.541,-1.541,-1.541,-1.541,-1.541,-1.541,-1.541,-1.541,-1.541,-1.541,-1.541,-1.541,-1.541,-1.541,-1.541,-1.5322,-1.4418,-1.4077,-1.398,-1.3193,-1.2881,-1.2881,-1.2881,-1.2881,-1.3113,-1.4294,-1.5017,-1.5543,-1.6281,-1.6522,-1.6522,-1.6522,-1.6423,-1.6194,-1.572,-1.505,-1.4514,-1.4514,-1.496,-1.5555,-1.6194,-1.6423,-1.6522,-1.6522,-1.6522,-1.6522,-1.6522,-1.6522,-1.6522,-1.6522,-1.6522,-1.6522,-1.6522,-1.6879,-1.7353,-1.7867,-1.8496,-1.9132,-1.9639,-1.969,-1.969,-1.969,-1.969,-1.969,-1.969,-1.9782,-1.9782,-1.969,-1.9782,-2.0,-2.0314,-2.0314,-2.055,-2.1007,-2.1337,-2.1306,-0.0413,-0.0242,-0.0433,-0.1298,-0.1931,-0.2464,-0.2887,-0.3325,-0.347,-0.3005,-0.2798,-0.2734,-0.2846,-0.2996,-0.331,-0.3962,-0.5426,-0.6822,-0.7714,-0.9076,-1.0192,-1.0528,-1.0624,-1.0624,-1.0624,-1.0651,-1.0708,-1.0975,-1.1536,-1.2115,-1.2621,-1.3467,-1.3944,-1.4112,-1.4932,-1.541,-1.541,-1.541,-1.541,-1.541,-1.541,-1.541,-1.541,-1.541,-1.541,-1.541,-1.541,-1.541,-1.541,-1.541,-1.541,-1.5322,-1.4418,-1.4077,-1.398,-1.3193,-1.2881,-1.2881,-1.2881,-1.2881,-1.3113,-1.4294,-1.4744,-1.5017,-1.6151,-1.6522,-1.6522,-1.6522,-1.6095,-1.5676,-1.5632,-1.4732,-1.3862,-1.3862,-1.4329,-1.4971,-1.5543,-1.6095,-1.6522,-1.6522,-1.6522,-1.6522,-1.6522,-1.6522,-1.6522,-1.6522,-1.6522,-1.6522,-1.6522,-1.6552,-1.6795,-1.7312,-1.8302,-1.9132,-1.9639,-1.969,-1.969,-1.969,-1.969,-1.969,-1.969,-2.0054,-2.0054,-1.9726,-2.0054,-2.0246,-2.0314,-2.0314,-2.055,-2.0991,-2.1023,-2.1039,-0.0176,0.0,-0.03,-0.1555,-0.2012,-0.2329,-0.2804,-0.3259,-0.3364,-0.2546,-0.254,-0.27,-0.2761,-0.2849,-0.3246,-0.4239,-0.5413,-0.652,-0.7533,-0.8775,-0.9699,-1.0,-1.0187,-1.0367,-1.0604,-1.0722,-1.0942,-1.1229,-1.1309,-1.1882,-1.3063,-1.3639,-1.4008,-1.4172,-1.4991,-1.541,-1.541,-1.541,-1.541,-1.541,-1.541,-1.541,-1.541,-1.541,-1.541,-1.541,-1.541,-1.5264,-1.5049,-1.5312,-1.5107,-1.4554,-1.4214,-1.3922,-1.3682,-1.3096,-1.2881,-1.2881,-1.2881,-1.2881,-1.3113,-1.4294,-1.4698,-1.4937,-1.6151,-1.6522,-1.6522,-1.6522,-1.6051,-1.5499,-1.5141,-1.4154,-1.3324,-1.3732,-1.3956,-1.4329,-1.4915,-1.5543,-1.5952,-1.5952,-1.6238,-1.6522,-1.6522,-1.6522,-1.6522,-1.6522,-1.6522,-1.6522,-1.6522,-1.6522,-1.671,-1.7229,-1.7987,-1.865,-1.9169,-1.953,-1.969,-1.969,-1.969,-1.969,-1.969,-1.9839,-1.9874,-1.969,-1.9874,-1.9929,-1.9929,-1.9929,-2.0035,-2.0208,-2.0465,-2.0465,-0.0173,0.0,-0.0232,-0.1273,-0.1735,-0.1958,-0.2205,-0.2761,-0.3016,-0.2167,-0.2364,-0.2712,-0.2712,-0.2768,-0.3206,-0.4358,-0.5261,-0.6244,-0.7541,-0.8486,-0.9252,-0.9639,-0.9866,-1.0107,-1.0401,-1.0695,-1.0949,-1.1156,-1.1247,-1.1905,-1.32,-1.3863,-1.4279,-1.4529,-1.5108,-1.541,-1.541,-1.541,-1.541,-1.541,-1.541,-1.541,-1.541,-1.541,-1.541,-1.541,-1.541,-1.5176,-1.4805,-1.5107,-1.4795,-1.4068,-1.3941,-1.3769,-1.3457,-1.3037,-1.2881,-1.2881,-1.2881,-1.3017,-1.3334,-1.4387,-1.4835,-1.5152,-1.6194,-1.6522,-1.6466,-1.6281,-1.5688,-1.4903,-1.4329,-1.3525,-1.3065,-1.3637,-1.3956,-1.4236,-1.4835,-1.5466,-1.5864,-1.5864,-1.6194,-1.6522,-1.6522,-1.6522,-1.6522,-1.6522,-1.6522,-1.6522,-1.6522,-1.6522,-1.6637,-1.7034,-1.7544,-1.8145,-1.8855,-1.9406,-1.969,-1.969,-1.969,-1.969,-1.969,-1.969,-1.969,-1.969,-1.969,-1.969,-1.969,-1.969,-1.969,-1.9726,-2.0,-1.9965,-0.0224,0.0,0.0,0.0,-0.056,-0.1034,-0.0782,-0.1658,-0.2414,-0.2055,-0.2364,-0.2712,-0.2712,-0.2716,-0.3038,-0.4043,-0.4822,-0.5853,-0.7489,-0.8321,-0.9031,-0.9613,-0.9686,-0.98,-1.0094,-1.0388,-1.0631,-1.0631,-1.1582,-1.2434,-1.2972,-1.4101,-1.4934,-1.5362,-1.541,-1.541,-1.541,-1.541,-1.541,-1.541,-1.541,-1.541,-1.541,-1.541,-1.541,-1.541,-1.541,-1.5176,-1.4785,-1.4785,-1.4531,-1.4038,-1.3682,-1.3516,-1.3457,-1.3037,-1.2881,-1.2881,-1.2881,-1.3286,-1.3909,-1.4514,-1.5096,-1.572,-1.6337,-1.6522,-1.638,-1.5776,-1.4721,-1.3684,-1.3055,-1.2929,-1.3065,-1.3637,-1.4236,-1.488,-1.5454,-1.6051,-1.6479,-1.6479,-1.6522,-1.6522,-1.6522,-1.6522,-1.6522,-1.6522,-1.6522,-1.6522,-1.6522,-1.6522,-1.6522,-1.6522,-1.6993,-1.7747,-1.8817,-1.9406,-1.969,-1.969,-1.969,-1.969,-1.969,-1.969,-1.969,-1.969,-1.969,-1.969,-1.969,-1.969,-1.969,-1.969,-1.9711,-1.9711,-0.0216,0.0,-0.0108,-0.063,-0.0939,-0.118,-0.1494,-0.2072,-0.243,-0.2171,-0.2425,-0.2712,-0.2712,-0.2712,-0.314,-0.4452,-0.5168,-0.6035,-0.7396,-0.8419,-0.9117,-0.9359,-0.9913,-1.0383,-1.0414,-1.0571,-1.0624,-1.0624,-1.1437,-1.2251,-1.2948,-1.3848,-1.4708,-1.5362,-1.4874,-1.4815,-1.541,-1.4864,-1.4874,-1.541,-1.541,-1.541,-1.541,-1.541,-1.541,-1.541,-1.541,-1.501,-1.4365,-1.4658,-1.4189,-1.3291,-1.3447,-1.333,-1.3066,-1.293,-1.2881,-1.2968,-1.3372,-1.3637,-1.3956,-1.5005,-1.5454,-1.572,-1.6337,-1.6522,-1.6293,-1.5287,-1.4422,-1.3637,-1.3065,-1.2881,-1.2978,-1.3152,-1.3334,-1.3525,-1.3695,-1.456,-1.5242,-1.5242,-1.5599,-1.5864,-1.5864,-1.5555,-1.5421,-1.582,-1.5864,-1.6051,-1.6436,-1.6522,-1.6522,-1.6522,-1.6993,-1.7422,-1.7787,-1.8302,-1.8765,-1.9132,-1.9169,-1.9332,-1.969,-1.9369,-1.9332,-1.969,-1.8968,-1.8779,-1.9169,-1.9169,-1.9332,-1.969,-1.9332,-1.9369,-0.0103,0.0,-0.0104,-0.0558,-0.0857,-0.1094,-0.1459,-0.1983,-0.2345,-0.2157,-0.2419,-0.2712,-0.2712,-0.2712,-0.3127,-0.4477,-0.5095,-0.594,-0.7434,-0.8351,-0.9038,-0.9365,-0.9993,-1.0394,-1.0394,-1.0557,-1.0624,-1.0624,-1.1655,-1.2451,-1.2948,-1.4025,-1.4746,-1.4932,-1.4451,-1.4264,-1.451,-1.4332,-1.4451,-1.4932,-1.5225,-1.541,-1.541,-1.541,-1.541,-1.54,-1.5244,-1.4785,0.0,-1.4258,-1.374,-1.291,-1.3174,-1.3105,-1.2881,-1.2881,-1.2881,-1.2978,-1.3334,-1.3779,-1.4283,-1.5005,-1.541,-1.5632,-1.5788,-1.5832,-1.5611,-1.4652,-1.392,-1.3372,-1.3017,-1.2881,-1.2881,-1.2881,-1.3055,-1.3238,-1.3238,-1.4014,-1.4698,-1.4698,-1.5005,-1.5276,-1.5276,-1.5141,-1.5186,-1.5543,-1.5776,-1.6095,-1.6466,-1.6522,-1.6522,-1.6522,-1.6795,-1.6993,-1.6993,-1.7666,-1.8263,-1.8574,-1.8612,-1.8727,-1.908,-1.8779,-1.8765,-1.9095,-1.8458,-1.8263,-1.8612,-1.8817,-1.908,-1.9406,-1.9244,-1.9369,0.0,0.0,0.0,-0.005,-0.0496,-0.0876,-0.0813,-0.1542,0.0,-0.2066,-0.2399,-0.2719,-0.271,-0.2726,-0.3116,-0.4245,-0.4782,-0.5688,-0.7613,-0.8247,-0.8804,-0.9646,-0.9987,-1.0147,-1.0147,-1.0401,-1.0624,-1.0624,-1.2035,-1.2887,-1.2887,-1.4392,-1.4874,-1.4025,-1.4025,-1.3726,-1.3009,-1.3726,-1.4145,-1.4213,-1.4991,-1.541,-1.541,-1.541,-1.5391,-1.5342,-1.4951,-1.4521,-1.4009,-1.3662,-1.3262,-1.2881,-1.2881,-1.2881,-1.2881,-1.2881,-1.2881,-1.2929,-1.2978,-1.3752,-1.4698,-1.4744,-1.5141,-1.5499,-1.4835,-1.4652,-1.4514,-1.3956,-1.3372,-1.2881,-1.2881,-1.2881,-1.2881,-1.2881,-1.3334,-1.3732,-1.3732,-1.419,-1.4652,-1.4652,-1.4652,-1.4652,-1.4652,-1.505,-1.541,-1.5454,-1.5964,-1.6337,-1.638,-1.638,-1.638,-1.6423,-1.6423,-1.6466,-1.6522,-1.7435,-1.7987,-1.8027,-1.8027,-1.8066,-1.8106,-1.8066,-1.8066,-1.8106,-1.8066,-1.8027,-1.8027,-1.8535,-1.8817,-1.8893,-1.9406,-1.9639,-0.0083,0.0,-0.0087,-0.0463,-0.0626,-0.0954,0.0,-0.1943,-0.2162,-0.2588,-0.2681,-0.2751,-0.2978,-0.3104,-0.3516,-0.4621,-0.5663,-0.6734,-0.7729,-0.8909,-0.9866,-1.0301,-1.0414,-1.0454,-1.0454,-1.0521,-1.0624,-1.0624,-1.1531,-1.2081,-1.2081,-1.3,-1.3183,-1.2381,-1.2381,-1.2565,-1.3009,-1.3191,-1.3606,-1.4213,-1.4991,-1.541,-1.541,-1.541,-1.5234,-1.4932,-1.4834,-1.4355,-1.3652,-1.3545,-1.3262,-1.2881,-1.2881,-1.2881,-1.2881,-1.2881,-1.2881,-1.2978,-1.342,-1.4061,-1.4789,-1.5231,-1.5499,-1.541,-1.4318,-1.4003,-1.3956,-1.3815,-1.3372,-1.2881,-1.2881,-1.2881,-1.2881,-1.2881,-1.3017,-1.3104,-1.3104,-1.36,-1.4003,-1.4003,-1.4003,-1.4003,-1.4003,-1.3742,-1.3695,-1.4133,-1.4318,-1.4595,-1.5062,-1.5107,-1.5287,-1.5776,-1.582,-1.6008,-1.6479,-1.671,-1.7034,-1.7463,-1.7504,-1.7666,-1.8066,-1.7706,-1.7666,-1.8106,-1.7706,-1.7504,-1.7504,-1.7626,-1.8106,-1.8893,-1.9043,-1.9332,-0.0403,-0.016,-0.0129,-0.0755,-0.1,-0.1324,-0.215,-0.237,-0.2487,-0.2749,-0.274,-0.273,-0.289,-0.3357,-0.3961,-0.478,-0.5968,-0.7199,-0.8336,-0.9557,-1.0381,-1.0604,-1.0624,-1.0624,-1.0624,-1.0624,-1.0624,-1.0624,-1.1351,-1.1834,-1.1834,-1.2573,-1.2634,-1.1834,-1.1834,-1.202,-1.2451,-1.2826,-1.3425,-1.4213,-1.4991,-1.541,-1.54,-1.5215,-1.5,-1.4766,-1.4365,-1.3936,-1.3496,-1.3301,-1.3086,-1.2881,-1.2881,-1.2881,-1.2881,-1.2881,-1.2881,-1.2978,-1.3286,-1.3789,-1.4329,-1.4687,-1.4767,-1.4584,-1.3695,-1.3372,-1.3372,-1.3372,-1.3152,-1.2881,-1.2881,-1.2881,-1.2881,-1.2881,-1.2881,-1.2881,-1.2881,-1.3152,-1.3372,-1.3372,-1.3372,-1.3372,-1.3372,-1.3324,-1.342,-1.3732,-1.405,-1.4329,-1.4663,-1.4698,-1.4835,-1.5141,-1.5186,-1.5332,-1.5656,-1.5656,-1.6039,-1.6866,-1.6909,-1.7076,-1.7353,-1.7076,-1.7076,-1.7353,-1.7076,-1.6909,-1.6909,-1.7188,-1.7706,-1.8535,-1.8779,-1.9207,-0.0857,-0.0593,-0.0401,-0.0997,-0.144,-0.1917,-0.2427,-0.2727,-0.2866,-0.2713,-0.27,-0.2737,-0.284,-0.3659,-0.45,-0.4997,-0.6264,-0.7658,-0.9103,-1.0033,-1.0624,-1.0624,-1.0624,-1.0624,-1.0624,-1.0624,-1.0624,-1.0624,-1.1226,-1.1648,-1.1648,-1.2266,-1.2336,-1.1648,-1.1648,-1.171,-1.1834,-1.2451,-1.3183,-1.3837,-1.4681,-1.5139,-1.5129,-1.4827,-1.4648,-1.4551,-1.3818,-1.3477,-1.3379,-1.3027,-1.2881,-1.2881,-1.2881,-1.2881,-1.2881,-1.2881,-1.2881,-1.2929,-1.3017,-1.3372,-1.3815,-1.3815,-1.3815,-1.3684,-1.3055,-1.2881,-1.2881,-1.2881,-1.2881,-1.2881,-1.2881,-1.2881,-1.2881,-1.2881,-1.2881,-1.2881,-1.2881,-1.2881,-1.2881,-1.2881,-1.2881,-1.2881,-1.2881,-1.3324,-1.3637,-1.3637,-1.4107,-1.4433,-1.4433,-1.4433,-1.4479,-1.456,-1.456,-1.4606,-1.4709,-1.4698,-1.5152,-1.6163,-1.6293,-1.6423,-1.6522,-1.6522,-1.6522,-1.6522,-1.6522,-1.6522,-1.6522,-1.7034,-1.7544,-1.7987,-1.8612,-1.9132,-0.1679,-0.157,-0.1466,-0.1324,-0.1901,-0.2542,-0.2659,-0.2778,-0.2866,-0.2713,-0.2784,-0.2991,-0.3371,-0.4272,-0.5203,-0.5866,-0.7604,-0.9009,-0.9552,-1.016,-1.0624,-1.0624,-1.0624,-1.0624,-1.0624,-1.0624,-1.0624,-1.0624,-1.0681,-1.0807,-1.0807,-1.0933,-1.0926,-1.0807,-1.0807,-1.1108,-1.1764,-1.1896,-1.2074,-1.2197,-1.3336,-1.3898,-1.388,-1.4096,-1.4043,-1.3701,-1.3564,-1.3311,-1.2969,-1.291,-1.2881,-1.2881,-1.2881,-1.2881,-1.2881,-1.2881,-1.2881,-1.2968,-1.3457,-1.3732,-1.3815,-1.3815,-1.3815,-1.3684,-1.3055,-1.2881,-1.2881,-1.2881,-1.2881,-1.2881,-1.2881,-1.2881,-1.2881,-1.2881,-1.2881,-1.2881,-1.2881,-1.2881,-1.2881,-1.2881,-1.2881,-1.2881,-1.2881,-1.2968,-1.3065,-1.3065,-1.3113,-1.3152,-1.3152,-1.3152,-1.3382,-1.3862,-1.3956,-1.4143,-1.4663,-1.4698,-1.4789,-1.4971,-1.5466,-1.5964,-1.6466,-1.6522,-1.6522,-1.6522,-1.6522,-1.6522,-1.6522,-1.7034,-1.7353,-1.7463,-1.8458,-1.893,-0.1805,-0.1898,-0.2015,-0.1967,-0.2364,-0.2928,-0.3321,-0.3337,-0.3253,-0.3181,-0.3222,-0.3334,-0.3541,-0.4406,-0.5396,-0.6271,-0.7743,-0.8698,-0.8463,-0.8865,-0.939,-0.9849,-0.9919,-1.011,-1.0555,-1.0624,-1.0624,-1.0624,-1.0624,-1.0624,-1.0624,-1.0624,-1.0624,-1.0624,-1.0624,-1.0807,-1.117,-1.1001,-1.1336,-1.2234,-1.2781,-1.3178,-1.3349,-1.3283,-1.3318,-1.3496,-1.3271,-1.3057,-1.2881,-1.2881,-1.2881,-1.2881,-1.2881,-1.2881,-1.2881,-1.2881,-1.2881,-1.2929,-1.3238,-1.3334,-1.3334,-1.3334,-1.3334,-1.3238,-1.2968,-1.2881,-1.2881,-1.2881,-1.2881,-1.2881,-1.2881,-1.2881,-1.2881,-1.2881,-1.2608,-1.2403,-1.2822,-1.2608,-1.2403,-1.2822,-1.2881,-1.2881,-1.2881,-1.2881,-1.2881,-1.2881,-1.2881,-1.2881,-1.2881,-1.2881,-1.3017,-1.3286,-1.3334,-1.342,-1.3705,-1.3476,-1.364,-1.4317,-1.4879,-1.5193,-1.5196,-1.5496,-1.563,-1.563,-1.563,-1.5781,-1.607,-1.6306,-1.6736,-1.7312,-1.8106,-1.8612,-0.2033,-0.2217,-0.2427,-0.2623,-0.2863,-0.3144,-0.3762,-0.3714,-0.3534,-0.3571,-0.3605,-0.3639,-0.3676,-0.4494,-0.5524,-0.6426,-0.7462,-0.794,-0.7408,-0.7674,-0.8221,-0.8941,-0.9011,-0.9332,-1.0238,-1.0301,-1.0364,-1.0561,-1.0624,-1.0624,-1.0624,-1.0624,-1.0624,-1.0624,-1.0494,-1.0454,-1.0454,-1.016,-1.0692,-1.2003,-1.2184,-1.2405,-1.2653,-1.2595,-1.2893,-1.334,-1.3018,-1.2881,-1.2881,-1.2881,-1.2881,-1.2881,-1.2881,-1.2881,-1.2881,-1.2881,-1.2881,-1.2881,-1.2881,-1.2881,-1.2881,-1.2881,-1.2881,-1.2881,-1.2881,-1.2881,-1.2881,-1.2881,-1.2881,-1.2881,-1.2881,-1.2774,-1.2657,-1.2657,-1.2089,-1.1774,-1.2501,-1.2187,-1.203,-1.2774,-1.2881,-1.2881,-1.2881,-1.2881,-1.2881,-1.2881,-1.2881,-1.2881,-1.2881,-1.2881,-1.2881,-1.2881,-1.2793,-1.2686,-1.2578,-1.2266,-1.2418,-1.3303,-1.4019,-1.4255,-1.3962,-1.445,-1.4697,-1.4697,-1.4826,-1.5117,-1.5505,-1.5505,-1.5949,-1.6754,-1.7436,-1.8001,-0.2763,-0.2821,-0.2904,-0.3182,-0.3239,-0.3347,-0.3578,-0.3483,-0.3363,-0.3551,-0.3683,-0.3819,-0.3961,-0.4796,-0.5729,-0.647,-0.7063,-0.7349,-0.7289,-0.7674,-0.8027,-0.8091,-0.8091,-0.842,-0.9332,-0.9402,-0.9722,-1.0561,-1.0624,-1.0624,-1.0624,-1.0624,-1.0624,-1.0624,-1.0294,-1.0147,-1.0147,-0.986,-0.9905,-1.0288,-1.105,-1.1432,-1.1444,-1.2438,-1.2871,-1.293,-1.2891,-1.2881,-1.2881,-1.2881,-1.2881,-1.2881,-1.2881,-1.2881,-1.2881,-1.2881,-1.2881,-1.2881,-1.2881,-1.2881,-1.2881,-1.2881,-1.2881,-1.2881,-1.2881,-1.2881,-1.2881,-1.2881,-1.2881,-1.2881,-1.2881,-1.2393,-1.1864,-1.1864,-1.1366,-1.1065,-1.1715,-1.1814,-1.203,-1.2774,-1.2881,-1.2881,-1.2881,-1.2881,-1.2881,-1.2881,-1.2881,-1.2881,-1.2881,-1.2881,-1.2881,-1.2881,-1.252,-1.2109,-1.1734,-1.1675,-1.1479,-1.115,-1.243,-1.3303,-1.3417,-1.391,-1.4177,-1.4177,-1.4658,-1.4928,-1.4966,-1.4966,-1.4991,-1.5119,-1.6153,-1.6883,-0.2432,-0.2628,-0.2839,-0.3095,-0.3351,-0.3558,-0.3799,-0.3835,-0.3929,-0.4219,-0.4239,-0.4226,-0.4284,-0.4969,-0.5433,-0.5336,-0.5979,-0.6344,-0.5872,-0.6117,-0.6597,-0.7111,-0.7177,-0.7502,-0.842,-0.8484,-0.8871,-0.9722,-0.9786,-1.0047,-1.0561,-1.0388,-1.0281,-1.0281,-1.0,-0.9846,-0.9846,-0.9559,-0.9466,-0.9566,-0.9827,-1.0348,-1.1019,-1.1394,-1.2049,-1.2881,-1.2881,-1.2881,-1.2871,-1.2403,-1.2501,-1.2881,-1.2881,-1.2881,-1.2881,-1.2881,-1.2881,-1.2881,-1.2881,-1.2881,-1.2881,-1.2881,-1.2881,-1.2881,-1.2881,-1.2881,-1.2881,-1.2881,-1.2559,-1.2236,-1.2236,-1.2021,-1.1715,-1.1266,-1.0669,-1.0364,-1.1015,-1.0864,-1.0771,-1.1484,-1.194,-1.2236,-1.2236,-1.2608,-1.2881,-1.2881,-1.2881,-1.2881,-1.2881,-1.2646,-1.248,-1.248,-1.208,-1.1631,-1.1191,-1.1449,-1.1302,-1.0566,-1.1593,-1.215,-1.1908,-1.2388,-1.2805,-1.3116,-1.3313,-1.3754,-1.44,-1.44,-1.4576,-1.4916,-1.567,-1.6251,-0.2329,-0.2561,-0.2822,-0.3078,-0.3351,-0.3598,-0.3941,-0.405,-0.4207,-0.4558,-0.4535,-0.4519,-0.4519,-0.4897,-0.5058,-0.457,-0.5135,-0.5456,-0.4972,-0.5131,-0.5563,-0.6199,-0.6268,-0.6658,-0.7502,-0.751,-0.7856,-0.8758,-0.8754,-0.9089,-0.9904,-0.9778,-0.9734,-0.998,-0.9693,-0.9546,-0.9546,-0.9252,-0.905,-0.905,-0.905,-0.9567,-1.0517,-1.0712,-1.1325,-1.2255,-1.2255,-1.2255,-1.2206,-1.1674,-1.1931,-1.2559,-1.2559,-1.2715,-1.2881,-1.2881,-1.2881,-1.2881,-1.2618,-1.2559,-1.2559,-1.2559,-1.2559,-1.2608,-1.2832,-1.2881,-1.2881,-1.2881,-1.2344,-1.1765,-1.1566,-1.1316,-1.1065,-1.061,-0.9961,-0.9666,-1.0364,-1.0115,-1.0012,-1.0669,-1.1366,-1.1814,-1.1814,-1.2403,-1.2832,-1.2695,-1.2676,-1.2627,-1.2528,-1.2197,-1.1963,-1.1826,-1.1533,-1.1224,-1.0752,-1.0986,-1.0949,-1.0361,-1.0903,-1.112,-1.0774,-1.1282,-1.1689,-1.2018,-1.2354,-1.2866,-1.3605,-1.3749,-1.3986,-1.4362,-1.4961,-1.5415,-0.2612,-0.2791,-0.2981,-0.3232,-0.3354,-0.3523,-0.3921,-0.4022,-0.4107,-0.4457,-0.4519,-0.4519,-0.4519,-0.4519,-0.4519,-0.4519,-0.4592,-0.4745,-0.4897,-0.504,-0.5186,-0.5404,-0.5425,-0.5745,-0.6584,-0.6489,-0.6755,-0.7613,-0.7542,-0.7838,-0.8551,-0.8604,-0.8903,-0.9679,-0.9392,-0.9183,-0.9183,-0.8951,-0.8804,-0.8804,-0.8804,-0.9159,-0.9814,-1.0466,-1.0813,-1.0813,-1.0813,-1.0813,-1.0813,-1.0813,-1.1216,-1.1814,-1.1814,-1.2236,-1.2881,-1.2881,-1.2881,-1.2774,-1.208,-1.1814,-1.1814,-1.1814,-1.1814,-1.1972,-1.2666,-1.2881,-1.2881,-1.2881,-1.2344,-1.1665,-1.0965,-1.0312,-0.9814,-0.9814,-0.9263,-0.8956,-0.9666,-0.9814,-0.9969,-1.0661,-1.1316,-1.1814,-1.1814,-1.2393,-1.2725,-1.2248,-1.218,-1.2061,-1.1655,-1.1596,-1.143,-1.0947,-1.0898,-1.0732,-1.0312,-1.0283,-1.0283,-1.0283,-1.0283,-1.0283,-1.0283,-1.0764,-1.1019,-1.1019,-1.1982,-1.2508,-1.2508,-1.2978,-1.3198,-1.321,-1.3821,-1.4349,-0.2135,-0.2625,-0.3056,-0.3005,-0.3592,-0.4192,-0.412,-0.4256,-0.4385,-0.4582,-0.4623,-0.4589,-0.4536,-0.4519,-0.4519,-0.4519,-0.4592,-0.4707,-0.4752,-0.4887,-0.4999,-0.5043,-0.505,-0.5171,-0.5417,-0.5373,-0.5708,-0.6605,-0.6616,-0.6937,-0.7779,-0.8144,-0.8399,-0.8626,-0.8812,-0.8938,-0.8938,-0.8851,-0.8804,-0.8804,-0.8804,-0.9159,-0.9814,-1.002,-1.0364,-1.0813,-1.0813,-1.0813,-1.0813,-1.0813,-1.0914,-1.1166,-1.1616,-1.2236,-1.2822,-1.2344,-1.2452,-1.2774,-1.208,-1.2138,-1.2559,-1.2559,-1.2559,-1.2608,-1.2822,-1.2881,-1.2774,-1.2295,-1.1625,-1.0965,-1.0261,-0.9614,-0.9113,-0.9113,-0.8962,-0.8857,-0.9061,-0.9113,-0.9159,-0.9361,-1.0312,-1.1116,-1.1116,-1.181,-1.2383,-1.22,-1.1963,-1.1602,-1.1162,-1.1103,-1.0937,-1.0518,-1.0469,-1.042,-1.0293,-1.0283,-1.0283,-1.0283,-1.0283,-1.0283,-1.0283,-1.0428,-1.0649,-1.0971,-1.1653,-1.2174,-1.2508,-1.2978,-1.3198,-1.3198,-1.3396,-1.3702,-0.2561,-0.309,-0.3487,-0.3517,-0.391,-0.4311,-0.4402,-0.4443,-0.4543,-0.4582,-0.4599,-0.4572,-0.4536,-0.4519,-0.4519,-0.4519,-0.4594,-0.4619,-0.468,-0.4769,-0.485,-0.4911,-0.4918,-0.4918,-0.4918,-0.4863,-0.5061,-0.5585,-0.5576,-0.5884,-0.6687,-0.6961,-0.7284,-0.7566,-0.8081,-0.8374,-0.8374,-0.8646,-0.8804,-0.8804,-0.8804,-0.9008,-0.9413,-0.9413,-0.9614,-1.002,-1.002,-1.002,-1.002,-1.002,-1.0167,-1.0466,-1.1166,-1.1674,-1.2098,-1.2187,-1.2344,-1.2344,-1.1674,-1.1882,-1.2403,-1.2147,-1.2255,-1.251,-1.2822,-1.2715,-1.2344,-1.1922,-1.1116,-1.032,-0.9917,-0.9309,-0.8804,-0.8804,-0.8804,-0.8804,-0.8804,-0.8804,-0.8804,-0.8804,-0.9666,-1.0418,-1.0532,-1.1064,-1.1528,-1.1659,-1.1328,-1.0998,-1.0693,-1.0654,-1.0477,-1.0029,-1.0,-1.0,-1.0,-1.0,-1.0079,-1.0283,-1.0283,-1.0283,-1.0283,-1.0283,-1.0428,-1.0725,-1.1207,-1.1616,-1.1909,-1.2579,-1.2908,-1.2943,-1.3129,-1.3357,-0.3423,-0.3829,-0.4063,-0.4388,-0.4229,-0.4165,-0.4575,-0.4562,-0.4522,-0.4536,-0.4529,-0.4519,-0.4519,-0.4519,-0.4519,-0.4519,-0.4519,-0.4567,-0.465,-0.467,-0.4721,-0.486,-0.4877,-0.4877,-0.4877,-0.4752,-0.467,-0.467,-0.4541,-0.4787,-0.5378,-0.5487,-0.5814,-0.6475,-0.7235,-0.7616,-0.7616,-0.8268,-0.8646,-0.8699,-0.8699,-0.8752,-0.8804,-0.8804,-0.8804,-0.8804,-0.8804,-0.8804,-0.8804,-0.8804,-0.9211,-0.9865,-1.0466,-1.0771,-1.0965,-1.2255,-1.2295,-1.1715,-1.1015,-1.1266,-1.1665,-1.1015,-1.1216,-1.1823,-1.251,-1.2246,-1.1715,-1.1616,-1.0762,-0.9762,-0.9718,-0.9263,-0.8804,-0.8804,-0.8804,-0.8804,-0.8804,-0.8804,-0.8804,-0.8804,-0.934,-0.9824,-1.01,-1.0227,-1.0372,-1.0675,-1.0398,-1.0157,-1.0157,-1.0157,-0.9961,-0.9478,-0.9478,-0.9518,-0.9518,-0.9558,-0.9804,-1.0283,-1.0283,-1.0283,-1.0283,-1.0283,-1.0283,-1.0283,-1.0764,-1.1019,-1.1019,-1.1982,-1.2437,-1.2437,-1.2908,-1.3129,-0.2578,-0.332,-0.3856,-0.3921,-0.4155,-0.4392,-0.4543,-0.4539,-0.4553,-0.4616,-0.4548,-0.4519,-0.4519,-0.4519,-0.4519,-0.4519,-0.4519,-0.4529,-0.4563,-0.4567,-0.458,-0.4558,-0.4562,-0.4562,-0.4562,-0.4587,-0.4567,-0.4567,-0.4536,-0.457,-0.4736,-0.5218,-0.5597,-0.5706,-0.6475,-0.6858,-0.6858,-0.702,-0.7343,-0.7943,-0.7943,-0.8262,-0.8804,-0.8804,-0.8804,-0.8804,-0.8804,-0.8804,-0.8804,-0.8804,-0.9211,-0.9814,-0.9961,-1.0364,-1.0864,-1.1124,-1.1475,-1.1715,-1.1015,-1.1266,-1.1665,-1.1015,-1.0914,-1.1065,-1.1225,-1.1124,-1.0914,-1.0364,-1.0012,-0.9666,-0.9159,-0.891,-0.8804,-0.8804,-0.8804,-0.8804,-0.8804,-0.8804,-0.8804,-0.8804,-0.9169,-0.9509,-0.9581,-0.9546,-0.9468,-0.9228,-0.909,-0.9039,-0.9039,-0.9039,-0.8999,-0.8878,-0.9239,-0.9518,-0.9518,-0.9883,-1.0166,-1.0283,-1.0283,-1.0283,-1.0283,-1.0283,-1.0283,-1.0283,-1.0764,-1.1019,-1.1019,-1.1653,-1.1957,-1.1957,-1.2437,-1.265,-0.2832,-0.3436,-0.3843,-0.4056,-0.4343,-0.4519,-0.4519,-0.4519,-0.4539,-0.4565,-0.4573,-0.4519,-0.4519,-0.4519,-0.4519,-0.4519,-0.4519,-0.4519,-0.4519,-0.4519,-0.4519,-0.4519,-0.4519,-0.4519,-0.4519,-0.4519,-0.4519,-0.4519,-0.4519,-0.4519,-0.4519,-0.4842,-0.5003,-0.5003,-0.571,-0.6091,-0.6091,-0.6421,-0.6804,-0.7182,-0.7509,-0.8103,-0.8804,-0.8804,-0.8804,-0.8804,-0.8804,-0.8804,-0.8804,-0.8804,-0.9008,-0.9361,-0.9666,-0.9814,-0.9917,-1.0568,-1.0813,-1.0813,-1.0415,-1.0762,-1.1216,-1.0517,-1.0517,-1.0813,-1.0813,-1.0568,-1.0269,-0.9917,-0.9562,-0.9263,-0.891,-0.8804,-0.8771,-0.8637,-0.8704,-0.8771,-0.8631,-0.8604,-0.8557,-0.8417,-0.8553,-0.8724,-0.8848,-0.8969,-0.8848,-0.8381,-0.8521,-0.8716,-0.8716,-0.8716,-0.8602,-0.8357,-0.8561,-0.8716,-0.8716,-0.8999,-0.9279,-0.9518,-0.9755,-0.9922,-0.9922,-1.0157,-1.0283,-1.0283,-1.0544,-1.0649,-1.0687,-1.1169,-1.1431,-1.1431,-1.192,-1.2282,-0.3124,-0.3615,-0.387,-0.4398,-0.4519,-0.4519,-0.4519,-0.4519,-0.4519,-0.4519,-0.4519,-0.4519,-0.4519,-0.4519,-0.4519,-0.4519,-0.4519,-0.4519,-0.4519,-0.4519,-0.4519,-0.4519,-0.4519,-0.4519,-0.4519,-0.4349,-0.4349,-0.4519,-0.4349,-0.4349,-0.4519,-0.4519,-0.4519,-0.4519,-0.5058,-0.5324,-0.5324,-0.5932,-0.6317,-0.6421,-0.7182,-0.783,-0.8427,-0.854,-0.8699,-0.8804,-0.8804,-0.8804,-0.8804,-0.8804,-0.8804,-0.8857,-0.9413,-0.9316,-0.8962,-1.0167,-1.0261,-0.9814,-0.9814,-1.0167,-1.0517,-0.9865,-1.0012,-1.0466,-1.0466,-1.0064,-0.9614,-0.9614,-0.9211,-0.8804,-0.8804,-0.8771,-0.8671,-0.843,-0.8517,-0.8591,-0.835,-0.8297,-0.8223,-0.7928,-0.7842,-0.7888,-0.8063,-0.8246,-0.8267,-0.7829,-0.8103,-0.839,-0.839,-0.839,-0.8226,-0.7787,-0.7829,-0.7919,-0.7919,-0.7995,-0.8242,-0.8675,-0.9119,-0.9359,-0.9359,-0.9804,-1.0,-1.0,-1.0205,-1.0283,-1.0283,-1.0687,-1.0867,-1.0905,-1.1431,-1.1884,-0.1995,-0.2838,-0.3744,-0.4374,-0.4519,-0.4519,-0.4519,-0.4519,-0.4519,-0.4519,-0.4519,-0.4519,-0.4519,-0.4519,-0.4519,-0.4519,-0.4519,-0.4519,-0.4519,-0.4519,-0.4519,-0.4519,-0.4519,-0.4519,-0.4519,-0.3846,-0.3735,-0.446,-0.3846,-0.379,-0.446,-0.4519,-0.4519,-0.4519,-0.457,-0.4625,-0.4625,-0.4736,-0.5062,-0.5651,-0.6421,-0.6804,-0.6912,-0.7563,-0.8209,-0.8804,-0.8804,-0.8804,-0.8804,-0.8804,-0.8804,-0.8811,-0.891,-0.8857,-0.891,-0.9666,-0.9865,-0.9814,-0.9814,-0.9865,-0.9814,-0.9159,-0.9008,-0.9061,-0.9061,-0.9008,-0.8956,-0.8956,-0.8857,-0.8804,-0.8804,-0.8617,-0.8424,-0.8383,-0.821,-0.7988,-0.7996,-0.7989,-0.7928,-0.7888,-0.7715,-0.7479,-0.7213,-0.7216,-0.7189,-0.7147,-0.7189,-0.7231,-0.7231,-0.7231,-0.7189,-0.7105,-0.7572,-0.7919,-0.7919,-0.8316,-0.8643,-0.8675,-0.8756,-0.8797,-0.8797,-0.8878,-0.8918,-0.8918,-0.9843,-1.0283,-1.0283,-1.0361,-1.039,-1.039,-1.0867,-1.1132,-0.2162,-0.3055,-0.3822,-0.4388,-0.4519,-0.4519,-0.4519,-0.4519,-0.4519,-0.4519,-0.4519,-0.4519,-0.4519,-0.4519,-0.4519,-0.4519,-0.4519,-0.4519,-0.4519,-0.4519,-0.4519,-0.4519,-0.4519,-0.4519,-0.4519,-0.379,-0.3511,-0.3846,-0.3511,-0.3456,-0.3846,-0.4294,-0.4519,-0.4519,-0.4519,-0.4519,-0.4519,-0.4519,-0.4842,-0.5487,-0.5814,-0.6199,-0.6642,-0.7343,-0.7883,-0.8209,-0.8646,-0.8804,-0.8804,-0.8804,-0.8804,-0.8804,-0.8804,-0.8804,-0.8857,-0.9106,-0.9263,-0.9263,-0.9263,-0.9263,-0.9211,-0.891,-0.8804,-0.8804,-0.8804,-0.8804,-0.8804,-0.8804,-0.8804,-0.8771,-0.8604,-0.847,-0.834,-0.799,-0.7769,-0.7622,-0.7417,-0.7548,-0.7622,-0.741,-0.7308,-0.7174,-0.7041,-0.6979,-0.6979,-0.6979,-0.6979,-0.6979,-0.6979,-0.6979,-0.6979,-0.6979,-0.7238,-0.7405,-0.7405,-0.7607,-0.7765,-0.7765,-0.807,-0.8234,-0.8234,-0.8561,-0.8716,-0.8716,-0.9159,-0.9558,-0.9843,-0.9843,-1.0,-1.0283,-1.0505,-1.0764,-0.231,-0.2995,-0.349,-0.4182,-0.4343,-0.4374,-0.4491,-0.4519,-0.4519,-0.4519,-0.4519,-0.4519,-0.4519,-0.4519,-0.4519,-0.4519,-0.4519,-0.4463,-0.4236,-0.4405,-0.4408,-0.4236,-0.4184,-0.4184,-0.4239,-0.3345,-0.2899,-0.3067,-0.3065,-0.3121,-0.3345,-0.407,-0.4519,-0.4519,-0.4519,-0.4519,-0.4519,-0.4519,-0.4732,-0.5273,-0.5273,-0.5546,-0.61,-0.702,-0.7402,-0.745,-0.8374,-0.8804,-0.8804,-0.8804,-0.8804,-0.8804,-0.8804,-0.8804,-0.8804,-0.8804,-0.8804,-0.8804,-0.8804,-0.8804,-0.8804,-0.8804,-0.8804,-0.8804,-0.8804,-0.8804,-0.8804,-0.8804,-0.8804,-0.8738,-0.845,-0.8317,-0.8123,-0.7641,-0.7453,-0.7295,-0.7068,-0.7194,-0.7288,-0.7068,-0.6979,-0.6979,-0.6979,-0.6979,-0.6979,-0.6979,-0.6979,-0.6979,-0.6979,-0.6979,-0.6979,-0.6979,-0.6979,-0.6979,-0.6979,-0.6979,-0.6979,-0.6979,-0.7405,-0.7663,-0.7663,-0.8062,-0.822,-0.8174,-0.8174,-0.8544,-0.9279,-0.9439,-0.9725,-1.0079,-1.0244,-1.0505,-0.1746,-0.2079,-0.2381,-0.3537,-0.3826,-0.3938,-0.4419,-0.4519,-0.4519,-0.4519,-0.4519,-0.4519,-0.4519,-0.4519,-0.4519,-0.4519,-0.4519,-0.4239,-0.3569,-0.407,-0.4236,-0.3456,-0.3342,-0.3398,-0.3456,-0.212,-0.1507,-0.223,-0.2286,-0.2565,-0.3287,-0.407,-0.4519,-0.4519,-0.4519,-0.4519,-0.4519,-0.4519,-0.4515,-0.457,-0.457,-0.457,-0.468,-0.6041,-0.6642,-0.675,-0.8156,-0.8804,-0.8804,-0.8804,-0.8804,-0.8804,-0.8804,-0.8804,-0.8804,-0.8804,-0.8804,-0.8804,-0.8804,-0.8804,-0.8804,-0.8804,-0.8804,-0.8804,-0.8804,-0.8804,-0.8804,-0.8804,-0.8804,-0.8738,-0.845,-0.8163,-0.7869,-0.7587,-0.7248,-0.7041,-0.6985,-0.7034,-0.7041,-0.6985,-0.6979,-0.6979,-0.6979,-0.6979,-0.6979,-0.6979,-0.6979,-0.6979,-0.6979,-0.6979,-0.6979,-0.6979,-0.6979,-0.6979,-0.6979,-0.6979,-0.6979,-0.6979,-0.7021,-0.7063,-0.7063,-0.7063,-0.697,-0.6692,-0.6692,-0.7382,-0.8756,-0.9239,-0.9518,-0.9558,-1.004,-1.0322,-0.1494,-0.1795,-0.2093,-0.3008,-0.3442,-0.3721,-0.3975,-0.4309,-0.4519,-0.4519,-0.4519,-0.4519,-0.4519,-0.4519,-0.4349,-0.3846,-0.3735,-0.3456,-0.2732,-0.2843,-0.2899,-0.2619,-0.2619,-0.2619,-0.2619,-0.1675,-0.1229,-0.1452,-0.1507,-0.184,-0.2565,-0.3345,-0.4015,-0.4463,-0.4519,-0.4519,-0.4519,-0.4519,-0.4519,-0.4519,-0.4519,-0.4519,-0.4574,-0.5932,-0.6588,-0.6696,-0.8156,-0.8804,-0.8804,-0.8804,-0.8804,-0.8804,-0.8804,-0.8804,-0.8804,-0.8804,-0.8804,-0.8804,-0.8804,-0.8804,-0.8804,-0.8804,-0.8804,-0.8804,-0.8804,-0.8804,-0.8804,-0.8804,-0.8671,-0.8457,-0.817,-0.7862,-0.7555,-0.7255,-0.7101,-0.6979,-0.6979,-0.6979,-0.6979,-0.6979,-0.6979,-0.6979,-0.6979,-0.6979,-0.6979,-0.6979,-0.6979,-0.6979,-0.6979,-0.6979,-0.6979,-0.6979,-0.6979,-0.6979,-0.6979,-0.6979,-0.6979,-0.6979,-0.6979,-0.6941,-0.6754,-0.6747,-0.6607,-0.6357,-0.635,-0.677,-0.7591,-0.8056,-0.8464,-0.8803,-0.9238,-0.9463,-0.1116,-0.1397,-0.1701,-0.255,-0.2907,-0.3195,-0.3744,-0.4022,-0.4275,-0.4477,-0.4519,-0.4519,-0.4519,-0.4294,-0.3959,-0.3456,-0.3121,-0.2676,-0.1952,-0.2063,-0.212,-0.1842,-0.184,-0.184,-0.184,-0.1174,-0.0727,-0.0727,-0.095,-0.134,-0.1786,-0.2788,-0.3735,-0.446,-0.4519,-0.4519,-0.4519,-0.4519,-0.4519,-0.4519,-0.4519,-0.4519,-0.4519,-0.5714,-0.6258,-0.6312,-0.7777,-0.8586,-0.8804,-0.8804,-0.8804,-0.8804,-0.8804,-0.8804,-0.8804,-0.8804,-0.8804,-0.8804,-0.8804,-0.8804,-0.8804,-0.8804,-0.8804,-0.8804,-0.8804,-0.8804,-0.8804,-0.8804,-0.8597,-0.8303,-0.8009,-0.7622,-0.7268,-0.7068,-0.6979,-0.6937,-0.6774,-0.6852,-0.6979,-0.6979,-0.6979,-0.6979,-0.6979,-0.6979,-0.6979,-0.6979,-0.6979,-0.6979,-0.6979,-0.6979,-0.6979,-0.6979,-0.6852,-0.681,-0.6979,-0.6852,-0.6771,-0.6839,-0.6709,-0.6497,-0.6259,-0.6091,-0.5958,-0.5832,-0.5825,-0.6023,-0.6437,-0.7233,-0.778,-0.8132,-0.873,-0.9164,0.0,0.0,0.0,-0.2173,-0.2205,-0.2318,-0.3618,-0.3748,-0.3721,-0.4367,-0.4491,-0.4494,-0.4457,-0.3846,-0.3345,-0.3234,-0.2621,-0.1898,-0.1174,-0.1675,-0.1898,-0.1174,-0.1062,-0.1062,-0.1062,-0.0448,0.0,0.0,-0.0671,-0.1062,-0.1118,-0.2508,-0.3677,-0.4463,-0.4463,-0.4519,-0.4519,-0.4519,-0.4519,-0.4519,-0.4519,-0.4519,-0.4515,-0.5218,-0.5487,-0.5597,-0.7015,-0.8103,-0.8752,-0.8804,-0.8804,-0.8804,-0.8804,-0.8804,-0.8804,-0.8804,-0.8804,-0.8804,-0.8804,-0.8804,-0.8804,-0.8804,-0.8804,-0.8804,-0.8804,-0.8798,-0.8791,-0.8791,-0.8577,-0.8277,-0.7983,-0.7424,-0.6979,-0.6979,-0.6979,-0.681,-0.6307,-0.6598,-0.6937,-0.6937,-0.6937,-0.6937,-0.6937,-0.6937,-0.6937,-0.6937,-0.6937,-0.6937,-0.6937,-0.6937,-0.6937,-0.6937,-0.6477,-0.6392,-0.6881,-0.6465,-0.6264,-0.6514,-0.6132,-0.5773,-0.5515,-0.513,-0.4981,-0.512,-0.5114,-0.5156,-0.5309,-0.6815,-0.7569,-0.7605,-0.8512,-0.9414,-0.0283,0.0,0.0,0.0,0.0,0.0,-0.227,-0.2614,-0.302,-0.37,-0.387,-0.3804,-0.3724,-0.3065,-0.2343,-0.1786,-0.1563,-0.1174,-0.0392,-0.0504,-0.056,-0.0336,-0.028,-0.028,-0.028,-0.0112,0.0,0.0,-0.0168,-0.056,-0.1062,-0.2565,-0.3456,-0.368,-0.4239,-0.4519,-0.4519,-0.4519,-0.4519,-0.4519,-0.4519,-0.4519,-0.4515,-0.5218,-0.5487,-0.5542,-0.6475,-0.7343,-0.8049,-0.8593,-0.8804,-0.8804,-0.8804,-0.8804,-0.8804,-0.8804,-0.8804,-0.8804,-0.8804,-0.8804,-0.8804,-0.8804,-0.8804,-0.8804,-0.8804,-0.8657,-0.849,-0.849,-0.8116,-0.7649,-0.7348,-0.7105,-0.6894,-0.652,-0.6435,-0.6264,-0.5653,-0.5653,-0.5776,-0.5776,-0.5776,-0.5776,-0.5776,-0.5776,-0.5776,-0.5776,-0.5776,-0.5776,-0.5776,-0.5776,-0.5776,-0.5776,-0.5653,-0.5583,-0.561,-0.5471,-0.5378,-0.5373,-0.5242,-0.5167,-0.521,-0.5092,-0.5114,-0.5242,-0.5235,-0.5261,-0.5309,-0.6013,-0.6514,-0.6825,-0.7658,-0.8198,-0.0169,-0.02,-0.0294,-0.0684,0.0,0.0,-0.1655,-0.19,-0.2187,-0.2874,-0.3009,-0.2988,-0.2911,-0.2287,-0.1619,-0.1174,-0.0838,-0.0504,-0.0056,0.0,0.0,0.0,0.0,0.0,0.0,0.0,0.0,0.0,0.0,-0.0336,-0.1062,-0.2232,-0.3065,-0.3345,-0.4125,-0.4519,-0.4519,-0.4519,-0.4519,-0.4519,-0.4519,-0.4519,-0.4519,-0.4893,-0.5058,-0.5164,-0.615,-0.6858,-0.7343,-0.8374,-0.8804,-0.8804,-0.8804,-0.8804,-0.8804,-0.8804,-0.8586,-0.8321,-0.8321,-0.8156,-0.7883,-0.7883,-0.8103,-0.8262,-0.799,-0.8126,-0.8327,-0.8012,-0.7739,-0.7439,-0.7101,-0.6852,-0.6598,-0.6264,-0.6007,-0.5653,-0.5043,-0.4913,-0.5,-0.526,-0.5303,-0.5303,-0.5303,-0.5303,-0.5303,-0.5303,-0.5303,-0.5303,-0.5303,-0.5303,-0.5267,-0.5219,-0.4998,-0.4873,-0.5016,-0.4793,-0.4664,-0.4677,-0.4546,-0.4408,-0.435,-0.434,-0.4482,-0.4736,-0.4922,-0.5176,-0.5554,-0.5944,-0.6427,-0.7017,-0.748,-0.7783,-0.0138,-0.0184,-0.027,-0.0701,-0.0569,0.0,-0.1436,-0.138,-0.1349,-0.197,-0.2082,-0.2092,-0.2073,-0.1552,-0.1073,-0.1015,-0.0435,0.0,0.0,0.0,0.0,0.0,0.0,0.0,0.0,0.0,0.0,0.0,0.0,-0.028,-0.095,-0.1675,-0.2397,-0.3176,-0.3959,-0.4405,-0.4519,-0.4519,-0.4519,-0.4519,-0.4519,-0.4519,-0.4519,-0.4519,-0.4519,-0.457,-0.5823,-0.6421,-0.6583,-0.799,-0.8646,-0.8804,-0.8804,-0.8804,-0.8804,-0.8804,-0.8374,-0.783,-0.7723,-0.7289,-0.6696,-0.6642,-0.7058,-0.7517,-0.6876,-0.7431,-0.8164,-0.7473,-0.7352,-0.7355,-0.7003,-0.6562,-0.6179,-0.605,-0.5567,-0.5043,-0.4434,-0.4303,-0.4478,-0.5005,-0.5091,-0.5091,-0.5091,-0.5091,-0.5091,-0.5091,-0.5091,-0.5091,-0.5091,-0.511,-0.5022,-0.4908,-0.4428,-0.4222,-0.4635,-0.4196,-0.3961,-0.4192,-0.3892,-0.3565,-0.3298,-0.329,-0.3556,-0.4058,-0.4473,-0.5106,-0.5975,-0.6336,-0.6889,-0.7627,-0.7666,-0.7889,-0.0035,-0.0034,-0.0068,-0.0154,-0.0134,0.0,-0.0438,-0.0459,-0.0608,-0.1327,-0.1475,-0.1443,-0.1321,-0.121,-0.0911,-0.0305,-0.0089,0.0,0.0,0.0,0.0,0.0,0.0,0.0,0.0,0.0,0.0,0.0,0.0,-0.0056,-0.0224,-0.0895,-0.1675,-0.2397,-0.3121,-0.3846,-0.4519,-0.4519,-0.4519,-0.4519,-0.4519,-0.4519,-0.4519,-0.4519,-0.4519,-0.4519,-0.4791,-0.5222,-0.576,-0.6691,-0.7723,-0.8804,-0.8804,-0.8804,-0.8804,-0.8804,-0.8699,-0.848,-0.7883,-0.7616,-0.7402,-0.6804,-0.695,-0.7366,-0.7206,-0.7376,-0.7595,-0.7172,-0.7071,-0.6967,-0.6489,-0.6264,-0.5959,-0.5,-0.4648,-0.4434,-0.388,-0.3751,-0.3796,-0.3928,-0.3928,-0.3928,-0.3928,-0.3928,-0.3928,-0.3928,-0.3928,-0.3928,-0.3928,-0.3809,-0.3712,-0.372,-0.3475,-0.3295,-0.329,-0.3166,-0.3097,-0.3034,-0.2955,-0.3041,-0.3294,-0.329,-0.3686,-0.4473,-0.4922,-0.5578,-0.6397,-0.6457,-0.676,-0.7216,-0.7539,-0.7754,0.0,0.0,0.0,0.0,0.0,0.0,0.0,0.0,-0.0064,-0.0252,-0.0372,-0.0411,-0.0238,-0.0279,-0.0245,0.0035,0.0083,0.0093,0.0,0.0,0.0,0.0,0.0,0.0,0.0,0.0,0.0,0.0,0.0,0.0,0.0,-0.0671,-0.1452,-0.2174,-0.2899,-0.368,-0.4519,-0.4519,-0.4519,-0.4519,-0.4519,-0.4519,-0.4519,-0.4519,-0.4519,-0.4515,-0.4838,-0.5164,-0.5597,-0.6691,-0.7563,-0.8262,-0.8646,-0.8804,-0.8804,-0.8804,-0.8321,-0.767,-0.7289,-0.6691,-0.6023,-0.5556,-0.5825,-0.6237,-0.5774,-0.5856,-0.609,-0.6145,-0.6161,-0.6076,-0.5825,-0.5524,-0.513,-0.4565,-0.4176,-0.3924,-0.3667,-0.3581,-0.3581,-0.3581,-0.3581,-0.3581,-0.3581,-0.3581,-0.3581,-0.3581,-0.3514,-0.3463,-0.3463,-0.3289,-0.3169,-0.3141,-0.3063,-0.2954,-0.2808,-0.2795,-0.2764,-0.2719,-0.2712,-0.2779,-0.3003,-0.3196,-0.3719,-0.4596,-0.4826,-0.5358,-0.6213,-0.6397,-0.682,-0.7403,-0.7598,-0.7695,0.0,0.0,0.0,0.0,0.0,0.004,0.0,0.0,0.0,0.0573,0.0516,0.0446,0.0626,0.0521,0.0362,0.0251,0.0261,0.0239,0.0069,0.0044,0.0052,0.0,0.0,0.0,0.0,0.0,0.0,0.0,0.0,0.0,0.0,-0.056,-0.1229,-0.1952,-0.273,-0.3456,-0.4294,-0.4408,-0.4519,-0.4519,-0.4519,-0.4519,-0.4519,-0.4519,-0.4519,-0.4515,-0.5058,-0.5328,-0.5433,-0.6907,-0.7509,-0.7557,-0.848,-0.8804,-0.8804,-0.8646,-0.783,-0.675,-0.6475,-0.5638,-0.4616,-0.4284,-0.4669,-0.5086,-0.4417,-0.4506,-0.4861,-0.5227,-0.5303,-0.5265,-0.5173,-0.4783,-0.4391,-0.4264,-0.3921,-0.3581,-0.3581,-0.3581,-0.3581,-0.3581,-0.3554,-0.3534,-0.3534,-0.3534,-0.3524,-0.3497,-0.3385,-0.3262,-0.3262,-0.3135,-0.3035,-0.292,-0.2883,-0.2815,-0.2726,-0.2712,-0.2712,-0.2712,-0.2712,-0.2712,-0.2712,-0.3167,-0.3751,-0.4473,-0.4634,-0.5106,-0.5913,-0.6213,-0.6798,-0.7598,-0.7666,-0.7695,0.0,0.0,0.0,0.0,0.0,0.0024,0.0167,0.0,0.0252,0.0405,0.0,0.0413,0.0433,0.0,0.0,0.0385,0.0528,0.0541,0.0222,0.0293,0.0271,0.0039,0.0,0.0,0.0,0.0,0.0,0.0,0.0,0.0,0.0,-0.0056,-0.0448,-0.1229,-0.1952,-0.2732,-0.3511,-0.4181,-0.4519,-0.4519,-0.4519,-0.4519,-0.4519,-0.4519,-0.4519,-0.4519,-0.457,-0.4625,-0.4736,-0.615,-0.675,-0.6858,-0.8262,-0.8804,-0.8699,-0.8049,-0.7723,-0.7396,-0.6086,-0.5441,-0.5096,-0.4407,-0.4465,-0.4794,-0.5094,-0.5189,-0.5251,-0.527,-0.5303,-0.5173,-0.4652,-0.4434,-0.426,-0.3792,-0.3622,-0.3581,-0.3581,-0.3581,-0.3581,-0.3581,-0.347,-0.3333,-0.3333,-0.3333,-0.3289,-0.3191,-0.3118,-0.3108,-0.3108,-0.3022,-0.2927,-0.291,-0.2788,-0.2733,-0.2716,-0.2712,-0.2712,-0.2712,-0.2712,-0.2712,-0.2712,-0.3499,-0.3956,-0.4058,-0.4826,-0.5428,-0.5913,-0.5944,-0.6397,-0.7178,-0.7539,-0.7695,0.0294,0.0233,0.0197,0.0043,0.0,0.0049,0.026,0.0321,0.0414,0.0744,0.0,0.0,0.0,0.0,0.0,0.0,0.0643,0.0621,0.0346,0.0357,0.0313,0.0035,0.0,0.0,0.0,0.0,0.0,0.0,0.0,0.0,0.0,0.0,-0.0336,-0.1062,-0.1396,-0.1953,-0.2676,-0.301,-0.3178,-0.3178,-0.3178,-0.34,-0.379,-0.379,-0.407,-0.4519,-0.4519,-0.4519,-0.4625,-0.6046,-0.6588,-0.6696,-0.7777,-0.8156,-0.8103,-0.783,-0.7094,-0.6235,-0.5597,-0.5012,-0.4498,-0.4111,-0.4029,-0.4104,-0.4252,-0.4316,-0.4316,-0.4316,-0.4316,-0.4272,-0.4008,-0.3921,-0.388,-0.3667,-0.3581,-0.3581,-0.3581,-0.3581,-0.3554,-0.3463,-0.335,-0.3252,-0.3085,-0.3122,-0.3155,-0.3092,-0.3049,-0.2998,-0.2998,-0.2869,-0.2778,-0.2778,-0.272,-0.2712,-0.2712,-0.2712,-0.2712,-0.2712,-0.2712,-0.2712,-0.2712,-0.3266,-0.3723,-0.3993,-0.4602,-0.5112,-0.5554,-0.5797,-0.6068,-0.6427,-0.6829,-0.7008,0.0822,0.0737,0.064,0.0206,0.0159,0.0228,0.0366,0.0529,0.073,0.1037,0.1182,0.0,0.0,0.0,0.0,0.0,0.0,0.0778,0.0515,0.0504,0.0423,0.0085,0.003,0.0,0.0,0.0,0.0,0.0,0.0,0.0,0.0,0.0,-0.0222,-0.0783,-0.1006,-0.1341,-0.1898,-0.212,-0.2174,-0.2174,-0.2174,-0.2452,-0.301,-0.301,-0.34,-0.4181,-0.4184,-0.4294,-0.4625,-0.6046,-0.6588,-0.6696,-0.7396,-0.757,-0.7295,-0.7136,-0.63,-0.52,-0.4999,-0.448,-0.3931,-0.3782,-0.3663,-0.3581,-0.3581,-0.3581,-0.3581,-0.3581,-0.3581,-0.3581,-0.3581,-0.3581,-0.3581,-0.3581,-0.3581,-0.3581,-0.3581,-0.3581,-0.3534,-0.3336,-0.3276,-0.3165,-0.2954,-0.2995,-0.3049,-0.3005,-0.2913,-0.2846,-0.2846,-0.2751,-0.2712,-0.2712,-0.2712,-0.2712,-0.2712,-0.2712,-0.2712,-0.2712,-0.2712,-0.2712,-0.2712,-0.3101,-0.3523,-0.3993,-0.4409,-0.4826,-0.5309,-0.5585,-0.5734,-0.5734,-0.6275,-0.6488,0.1671,0.1561,0.1389,0.0585,0.0532,0.0634,0.0443,0.0849,0.1241,0.1127,0.1667,0.2076,0.1826,0.0,0.0,0.0,0.0,0.0,0.0,0.0,0.0,0.0,0.0,0.0,0.0,0.0,0.0,0.0,0.0,0.0,0.0,0.0,0.0,-0.0056,-0.0727,-0.1118,-0.1118,-0.1842,-0.2174,-0.2174,-0.2174,-0.2232,-0.2232,-0.2232,-0.2621,-0.3345,-0.34,-0.3846,-0.4625,-0.6046,-0.6588,-0.6696,-0.7396,-0.7197,-0.6365,-0.5648,-0.5267,-0.5005,-0.4271,-0.3927,-0.3775,-0.3632,-0.3585,-0.3581,-0.3581,-0.3581,-0.3581,-0.3581,-0.3581,-0.3581,-0.3581,-0.3581,-0.3581,-0.3581,-0.3581,-0.3581,-0.3581,-0.3581,-0.3534,-0.3336,-0.3189,-0.3045,-0.2934,-0.2913,-0.2866,-0.2717,-0.2726,-0.2719,-0.2719,-0.2716,-0.2712,-0.2712,-0.2712,-0.2712,-0.2712,-0.2712,-0.2712,-0.2712,-0.2712,-0.2712,-0.2712,-0.3101,-0.3523,-0.3993,-0.4409,-0.4826,-0.5309,-0.5309,-0.5309,-0.534,-0.6121,-0.6488,0.2424,0.2312,0.2147,0.1397,0.1156,0.1044,0.078,0.1019,0.1256,0.113,0.1682,0.2126,0.1857,0.0,0.0,0.0,0.0,0.0,0.0,0.0,0.0,0.0,0.0,0.0,0.0,0.0,0.0109,0.0,0.0,0.0,0.0,0.0,0.0,0.0,-0.0222,-0.0392,-0.0392,-0.0615,-0.0727,-0.0727,-0.0727,-0.1006,-0.1452,-0.1452,-0.2176,-0.3345,-0.3345,-0.379,-0.457,-0.5492,-0.5869,-0.5914,-0.6053,-0.5873,-0.5503,-0.5383,-0.4831,-0.4182,-0.3854,-0.3693,-0.3643,-0.3595,-0.3581,-0.3581,-0.3581,-0.3581,-0.3581,-0.3581,-0.3581,-0.3581,-0.3581,-0.3581,-0.3581,-0.3581,-0.3581,-0.3581,-0.3581,-0.3581,-0.3534,-0.3336,-0.3185,-0.3076,-0.2934,-0.258,-0.2401,-0.2656,-0.2712,-0.258,-0.2281,-0.2247,-0.2247,-0.2247,-0.2247,-0.2347,-0.2679,-0.2712,-0.2712,-0.2712,-0.2712,-0.2712,-0.2712,-0.3101,-0.3392,-0.3528,-0.4242,-0.4666,-0.4826,-0.5151,-0.5309,-0.5316,-0.5585,-0.5703,0.3194,0.3081,0.2996,0.2513,0.2311,0.2136,0.1708,0.1913,0.2123,0.1915,0.2228,0.2655,0.3093,0.0,0.0,0.0,0.0,0.0,0.0,0.0799,0.0,0.0,0.0,0.0,0.0,0.0,0.0,0.0,0.0,0.0,0.0,0.0,0.0,0.0,0.0,0.0,0.0,0.0,0.0,0.0,0.0,-0.0224,-0.0727,-0.0727,-0.1563,-0.2954,-0.2954,-0.3511,-0.457,-0.5218,-0.5487,-0.5467,-0.5343,-0.5212,-0.505,-0.4857,-0.4312,-0.3704,-0.3612,-0.3442,-0.3306,-0.3534,-0.3442,-0.3306,-0.3534,-0.3581,-0.3581,-0.3581,-0.3581,-0.3581,-0.3581,-0.3581,-0.3581,-0.3581,-0.3581,-0.3581,-0.3581,-0.3442,-0.3206,-0.3061,-0.2793,-0.2525,-0.236,-0.2023,-0.1911,-0.238,-0.2311,-0.2109,-0.1776,-0.1742,-0.1742,-0.1742,-0.1911,-0.2181,-0.265,-0.2712,-0.2712,-0.2712,-0.2712,-0.2712,-0.2712,-0.294,-0.3163,-0.329,-0.3844,-0.4205,-0.4377,-0.4826,-0.5055,-0.5055,-0.5214,-0.5309]}]]